[[{"header":{"parameterUnit":"m.s-1","parameterCategory":1,"la1":30.6,"la2":29.2853,"lo1":-89.7004,"lo2":-87.6739,"dx":0.0162,"dy":0.0183,"nx":112,"ny":82,"refTime":"2022-11-15T18:00:00:Z","depth":0,"parameterNumber":2,"parameterNumberName":"U-component_of_WINDS"},"data":[0.0,0.0,0.0,0.0,0.0,0.0,0.0,0.0,0.0,0.0,0.0,0.0,0.0,0.0,0.0,0.0,0.0,0.0,0.0,0.0,0.0,0.0,0.0,0.0,0.0,0.0,0.0,0.0,0.0,0.0,0.0,0.0,0.0,0.0,0.0,0.0,0.0,0.0,0.0,0.0,0.0,0.0,0.0,0.0,0.0,0.0,0.0,0.0,0.0,0.0,0.0,0.0,0.0,0.0,0.0,0.0,0.0,0.0,0.0,0.0,0.0,0.0,0.0,0.0,0.0,0.0,0.0,0.0,0.0,0.0,0.0,0.0,0.0,0.0,0.0,0.0,0.0,0.0,0.0,0.0,0.0,0.0,0.0,0.0,0.0,0.0,0.0,0.0,0.0,0.0,4.5557,5.1597,5.3871,5.5032,5.5075,5.5106,5.2229,4.552,0.0,0.0,0.0,0.0,0.0,0.0,0.0,0.0,0.0,0.0,0.0,0.0,0.0,0.0,0.0,0.0,0.0,0.0,0.0,0.0,0.0,0.0,0.0,0.0,0.0,0.0,0.0,0.0,0.0,0.0,0.0,0.0,0.0,0.0,0.0,0.0,0.0,0.0,0.0,0.0,0.0,0.0,0.0,0.0,0.0,0.0,0.0,0.0,0.0,0.0,0.0,0.0,0.0,0.0,0.0,0.0,0.0,0.0,0.0,0.0,0.0,0.0,0.0,0.0,0.0,0.0,0.0,0.0,0.0,0.0,0.0,0.0,0.0,0.0,0.0,0.0,0.0,0.0,0.0,0.0,0.0,0.0,0.0,0.0,0.0,0.0,0.0,0.0,0.0,0.0,0.0,0.0,0.0,0.0,0.0,0.0,0.0,0.0,0.0,0.0,0.0,0.0,0.0,0.0,4.876,5.5266,5.535,5.5197,5.5943,5.5985,5.3142,4.6433,0.0,0.0,0.0,0.0,0.0,0.0,0.0,0.0,0.0,0.0,0.0,0.0,0.0,0.0,0.0,0.0,0.0,0.0,0.0,0.0,0.0,0.0,0.0,0.0,0.0,0.0,0.0,0.0,0.0,0.0,0.0,0.0,0.0,0.0,0.0,0.0,0.0,0.0,0.0,0.0,0.0,0.0,0.0,0.0,0.0,0.0,0.0,0.0,0.0,0.0,0.0,0.0,0.0,0.0,0.0,0.0,0.0,0.0,0.0,0.0,0.0,0.0,0.0,0.0,0.0,0.0,0.0,0.0,0.0,0.0,0.0,0.0,0.0,0.0,0.0,0.0,0.0,0.0,0.0,0.0,0.0,0.0,0.0,0.0,0.0,0.0,0.0,0.0,0.0,0.0,0.0,0.0,0.0,0.0,0.0,0.0,0.0,0.0,0.0,0.0,0.0,0.0,0.0,4.8497,5.3302,5.6157,5.6128,5.5955,5.6193,5.6592,5.3787,4.6664,4.4649,0.0,0.0,0.0,0.0,0.0,0.0,0.0,0.0,0.0,0.0,0.0,0.0,0.0,0.0,0.0,0.0,0.0,0.0,0.0,0.0,0.0,0.0,0.0,0.0,0.0,0.0,0.0,0.0,0.0,0.0,0.0,0.0,0.0,0.0,0.0,0.0,0.0,0.0,0.0,0.0,0.0,0.0,0.0,0.0,0.0,0.0,0.0,0.0,0.0,0.0,0.0,0.0,0.0,0.0,0.0,0.0,0.0,0.0,0.0,0.0,0.0,0.0,0.0,0.0,0.0,0.0,0.0,0.0,0.0,0.0,0.0,0.0,0.0,0.0,0.0,0.0,0.0,0.0,0.0,0.0,0.0,0.0,0.0,0.0,0.0,0.0,0.0,0.0,0.0,0.0,0.0,0.0,0.0,0.0,0.0,0.0,0.0,0.0,0.0,0.0,0.0,0.0,5.216,5.608,5.6303,5.6467,5.6573,5.6616,5.7181,5.4379,4.6961,4.5862,0.0,0.0,0.0,0.0,0.0,0.0,0.0,0.0,0.0,0.0,0.0,0.0,0.0,0.0,0.0,0.0,0.0,0.0,0.0,0.0,0.0,0.0,0.0,0.0,0.0,0.0,0.0,0.0,0.0,0.0,0.0,0.0,0.0,0.0,0.0,0.0,0.0,0.0,0.0,0.0,0.0,0.0,0.0,0.0,0.0,0.0,0.0,0.0,0.0,0.0,0.0,0.0,0.0,0.0,0.0,0.0,0.0,0.0,0.0,0.0,0.0,0.0,0.0,0.0,0.0,0.0,0.0,0.0,0.0,0.0,0.0,0.0,0.0,0.0,0.0,0.0,0.0,0.0,0.0,0.0,0.0,0.0,0.0,0.0,0.0,0.0,0.0,0.0,0.0,0.0,0.0,0.0,0.0,0.0,0.0,0.0,0.0,0.0,0.0,0.0,0.0,0.0,5.0699,5.4541,5.6459,5.6334,5.6599,5.7672,5.7872,5.4898,4.7778,4.7267,0.0,0.0,0.0,0.0,0.0,0.0,0.0,0.0,0.0,0.0,0.0,0.0,0.0,0.0,0.0,0.0,0.0,0.0,0.0,0.0,0.0,0.0,0.0,0.0,0.0,0.0,0.0,0.0,0.0,0.0,0.0,0.0,0.0,0.0,0.0,0.0,0.0,0.0,0.0,0.0,0.0,0.0,0.0,0.0,0.0,0.0,0.0,0.0,0.0,0.0,0.0,0.0,0.0,0.0,0.0,0.0,0.0,0.0,0.0,0.0,0.0,0.0,0.0,0.0,0.0,0.0,0.0,0.0,0.0,0.0,0.0,0.0,0.0,0.0,0.0,0.0,0.0,0.0,0.0,0.0,0.0,0.0,0.0,0.0,0.0,0.0,0.0,0.0,0.0,0.0,0.0,0.0,0.0,0.0,0.0,0.0,0.0,0.0,0.0,0.0,0.0,0.0,5.2644,5.6671,5.7692,5.7458,5.7645,5.8615,5.8505,5.5483,4.8636,0.0,0.0,0.0,0.0,0.0,0.0,0.0,0.0,0.0,0.0,0.0,0.0,0.0,0.0,0.0,0.0,0.0,0.0,0.0,0.0,0.0,0.0,0.0,0.0,0.0,0.0,0.0,0.0,0.0,0.0,0.0,0.0,0.0,0.0,0.0,0.0,0.0,0.0,0.0,0.0,0.0,0.0,0.0,0.0,0.0,0.0,0.0,0.0,0.0,0.0,0.0,0.0,0.0,0.0,0.0,0.0,0.0,0.0,0.0,0.0,0.0,0.0,0.0,0.0,0.0,0.0,0.0,0.0,0.0,0.0,0.0,0.0,0.0,0.0,0.0,0.0,0.0,0.0,0.0,0.0,0.0,0.0,0.0,0.0,0.0,0.0,0.0,0.0,0.0,0.0,0.0,0.0,0.0,0.0,0.0,0.0,0.0,0.0,0.0,0.0,0.0,0.0,4.8389,5.4164,5.8284,5.8554,5.8534,5.868,5.916,5.8911,5.594,4.9329,0.0,0.0,0.0,0.0,0.0,0.0,0.0,0.0,0.0,0.0,0.0,0.0,0.0,0.0,0.0,0.0,0.0,0.0,0.0,0.0,0.0,0.0,0.0,0.0,0.0,0.0,0.0,0.0,0.0,0.0,0.0,0.0,0.0,0.0,0.0,0.0,0.0,0.0,0.0,0.0,0.0,0.0,0.0,0.0,0.0,0.0,0.0,0.0,0.0,0.0,0.0,0.0,0.0,0.0,0.0,0.0,0.0,0.0,0.0,0.0,0.0,0.0,0.0,0.0,0.0,0.0,0.0,0.0,0.0,0.0,0.0,0.0,0.0,0.0,0.0,0.0,0.0,0.0,0.0,0.0,0.0,0.0,0.0,0.0,0.0,0.0,0.0,0.0,0.0,0.0,0.0,0.0,0.0,0.0,0.0,0.0,0.0,0.0,0.0,0.0,0.0,0.0,4.8676,5.4678,5.881,5.881,5.9439,5.9668,5.9284,5.9158,5.634,0.0,0.0,0.0,0.0,0.0,0.0,0.0,0.0,0.0,0.0,0.0,0.0,0.0,0.0,0.0,0.0,0.0,0.0,0.0,0.0,0.0,0.0,0.0,0.0,0.0,0.0,0.0,0.0,0.0,0.0,0.0,0.0,0.0,0.0,0.0,0.0,0.0,0.0,0.0,0.0,0.0,0.0,0.0,0.0,0.0,0.0,0.0,0.0,0.0,0.0,0.0,0.0,0.0,0.0,0.0,0.0,0.0,0.0,0.0,0.0,0.0,0.0,0.0,0.0,0.0,0.0,0.0,0.0,0.0,0.0,0.0,0.0,0.0,0.0,0.0,0.0,0.0,0.0,0.0,0.0,0.0,0.0,0.0,0.0,0.0,0.0,0.0,0.0,0.0,0.0,0.0,0.0,0.0,0.0,0.0,0.0,0.0,0.0,0.0,0.0,0.0,0.0,0.0,4.9877,5.517,5.9173,6.0108,6.0542,6.1058,6.1758,6.1037,5.7766,5.121,0.0,0.0,0.0,0.0,0.0,0.0,0.0,0.0,0.0,0.0,0.0,0.0,0.0,0.0,0.0,0.0,0.0,0.0,0.0,0.0,0.0,0.0,0.0,0.0,0.0,0.0,0.0,0.0,0.0,0.0,0.0,0.0,0.0,0.0,0.0,0.0,0.0,0.0,0.0,0.0,0.0,0.0,0.0,0.0,0.0,0.0,0.0,0.0,0.0,0.0,0.0,0.0,0.0,0.0,0.0,0.0,0.0,0.0,0.0,0.0,0.0,0.0,0.0,0.0,0.0,0.0,0.0,0.0,0.0,0.0,0.0,0.0,0.0,0.0,0.0,0.0,0.0,0.0,0.0,0.0,0.0,0.0,0.0,0.0,0.0,0.0,0.0,0.0,0.0,0.0,0.0,0.0,0.0,0.0,0.0,0.0,0.0,0.0,0.0,0.0,0.0,0.0,5.1113,5.6615,6.0698,6.1517,6.2283,6.2883,6.327,6.2285,5.9504,5.4417,0.0,0.0,0.0,0.0,0.0,0.0,0.0,0.0,0.0,0.0,0.0,0.0,0.0,0.0,0.0,0.0,0.0,0.0,0.0,0.0,0.0,0.0,0.0,0.0,0.0,0.0,0.0,0.0,0.0,0.0,0.0,0.0,0.0,0.0,0.0,0.0,0.0,0.0,0.0,0.0,0.0,0.0,0.0,0.0,0.0,0.0,0.0,0.0,0.0,0.0,0.0,0.0,0.0,0.0,0.0,0.0,0.0,0.0,0.0,0.0,0.0,0.0,0.0,0.0,0.0,0.0,0.0,0.0,0.0,0.0,0.0,0.0,0.0,0.0,0.0,0.0,0.0,0.0,0.0,0.0,0.0,0.0,0.0,0.0,0.0,0.0,0.0,0.0,0.0,0.0,0.0,0.0,0.0,0.0,0.0,0.0,0.0,0.0,0.0,0.0,0.0,0.0,5.2336,5.8586,6.2933,6.2975,6.4334,6.4941,6.4166,6.3287,6.1542,5.8561,0.0,0.0,0.0,0.0,0.0,0.0,0.0,0.0,0.0,0.0,0.0,0.0,0.0,0.0,0.0,0.0,0.0,0.0,0.0,0.0,0.0,0.0,0.0,0.0,0.0,0.0,0.0,0.0,0.0,0.0,0.0,0.0,0.0,0.0,0.0,0.0,0.0,0.0,0.0,0.0,0.0,0.0,0.0,0.0,0.0,0.0,0.0,0.0,0.0,0.0,0.0,0.0,0.0,0.0,0.0,0.0,0.0,0.0,0.0,0.0,4.3392,3.8729,0.0,0.0,0.0,0.0,0.0,0.0,0.0,0.0,0.0,0.0,0.0,0.0,0.0,0.0,0.0,0.0,0.0,0.0,0.0,0.0,0.0,0.0,0.0,0.0,0.0,0.0,0.0,0.0,0.0,0.0,0.0,0.0,0.0,0.0,0.0,0.0,0.0,0.0,0.0,0.0,5.3822,5.9766,6.3976,6.4347,6.548,6.606,6.575,6.5647,6.3976,6.009,5.8245,0.0,0.0,0.0,0.0,0.0,0.0,0.0,0.0,0.0,0.0,0.0,0.0,0.0,0.0,0.0,0.0,0.0,0.0,0.0,0.0,0.0,0.0,0.0,0.0,0.0,0.0,0.0,0.0,0.0,0.0,0.0,0.0,0.0,0.0,0.0,0.0,0.0,0.0,0.0,0.0,0.0,0.0,0.0,0.0,0.0,0.0,0.0,0.0,0.0,0.0,0.0,0.0,0.0,0.0,0.0,0.0,0.0,0.0,0.0,4.7682,4.4892,0.0,0.0,0.0,0.0,0.0,0.0,0.0,0.0,0.0,0.0,0.0,0.0,0.0,0.0,0.0,0.0,0.0,0.0,0.0,0.0,0.0,0.0,0.0,0.0,0.0,0.0,0.0,0.0,0.0,0.0,0.0,0.0,0.0,0.0,0.0,0.0,0.0,0.0,0.0,0.0,5.5415,6.1244,6.5366,6.5587,6.647,6.7036,6.6919,6.6656,6.5575,6.3433,6.1001,0.0,0.0,0.0,0.0,0.0,0.0,0.0,0.0,0.0,0.0,0.0,0.0,0.0,0.0,0.0,0.0,0.0,0.0,0.0,0.0,0.0,0.0,0.0,0.0,0.0,0.0,0.0,0.0,0.0,0.0,0.0,0.0,0.0,0.0,0.0,0.0,0.0,0.0,0.0,0.0,0.0,0.0,0.0,0.0,0.0,0.0,0.0,0.0,0.0,0.0,0.0,0.0,0.0,5.1536,5.2359,5.248,5.2253,5.2269,5.2438,5.1772,5.147,5.1242,4.8636,0.0,0.0,0.0,0.0,0.0,0.0,0.0,0.0,0.0,0.0,0.0,0.0,0.0,0.0,0.0,0.0,0.0,0.0,0.0,0.0,0.0,0.0,5.0881,5.4163,5.5085,5.4559,5.2043,0.0,0.0,0.0,0.0,0.0,0.0,0.0,0.0,0.0,0.0,0.0,5.7282,6.2989,6.6916,6.6916,6.7657,6.8104,6.8104,6.74,6.6916,6.6916,6.3427,6.053,0.0,0.0,0.0,0.0,0.0,0.0,0.0,0.0,0.0,0.0,0.0,0.0,0.0,0.0,0.0,0.0,0.0,0.0,0.0,0.0,0.0,0.0,0.0,0.0,0.0,0.0,0.0,0.0,0.0,0.0,0.0,0.0,3.6274,3.844,0.0,0.0,0.0,0.0,0.0,0.0,0.0,0.0,0.0,0.0,0.0,0.0,0.0,4.7251,4.8145,5.2229,5.4423,5.471,5.7194,5.8639,5.9099,5.7992,5.8083,5.8971,5.5747,0.0,5.3959,5.4221,0.0,0.0,0.0,0.0,0.0,0.0,0.0,0.0,0.0,0.0,0.0,0.0,0.0,0.0,0.0,0.0,0.0,0.0,0.0,0.0,0.0,0.0,6.2002,6.2528,6.0557,5.9,6.0651,5.4848,4.9831,5.1592,4.9289,4.7298,0.0,0.0,0.0,0.0,0.0,0.0,5.9716,6.5001,6.8561,6.8561,6.9302,6.9786,6.9786,6.9045,6.8561,6.8561,6.6756,6.4297,6.1251,6.2505,0.0,0.0,0.0,0.0,0.0,0.0,0.0,0.0,0.0,0.0,0.0,0.0,0.0,0.0,0.0,0.0,0.0,0.0,0.0,0.0,0.0,0.0,0.0,0.0,0.0,0.0,0.0,0.0,0.0,3.7137,4.0365,4.2079,4.2584,4.1747,0.0,0.0,0.0,0.0,0.0,0.0,0.0,0.0,0.0,4.8269,5.03,5.1752,5.2575,5.6467,5.8516,5.87,6.064,6.1465,6.1286,6.0711,6.0533,6.0573,5.9381,5.9009,5.9081,5.7207,5.6448,5.6235,0.0,0.0,0.0,0.0,4.9926,5.088,5.1248,5.323,5.5684,5.6082,0.0,0.0,0.0,0.0,0.0,0.0,0.0,5.6163,5.7964,6.0554,6.3155,6.5011,6.4361,6.3726,6.5223,6.1146,5.7172,5.7249,5.5539,5.3694,5.2448,5.3765,0.0,0.0,0.0,6.1857,6.3019,6.6506,6.9075,6.9522,6.9889,7.0117,7.0117,6.9779,6.9559,6.9559,6.8898,6.7576,6.5497,6.5436,6.2866,0.0,0.0,0.0,0.0,0.0,0.0,0.0,0.0,0.0,0.0,0.0,0.0,0.0,0.0,0.0,0.0,0.0,0.0,0.0,0.0,0.0,0.0,0.0,0.0,0.0,0.0,0.0,0.0,4.1331,4.3979,4.5831,4.6552,4.6085,0.0,0.0,0.0,0.0,0.0,0.0,5.0437,5.054,5.1304,5.299,5.4782,5.6046,5.6686,5.9723,6.129,6.1335,6.2446,6.2663,6.2133,6.1832,6.1475,6.1111,6.1581,6.2264,6.281,6.0052,5.93,5.9869,5.9826,5.8731,5.7053,5.6429,5.6613,5.7158,5.7378,5.9434,6.1998,6.2218,6.1698,6.0854,6.0052,0.0,0.0,0.0,0.0,5.9263,6.1882,6.3017,6.414,6.6772,6.7437,6.758,6.8178,6.6076,6.3647,6.2236,6.0816,5.914,5.6927,5.8531,0.0,5.7703,6.1416,6.4751,6.5778,6.8153,7.0003,7.0597,7.1001,7.12,7.12,7.101,7.0797,7.0614,7.0351,6.979,6.8836,6.7835,6.588,6.2857,0.0,0.0,0.0,0.0,0.0,0.0,0.0,0.0,0.0,0.0,0.0,0.0,0.0,0.0,0.0,0.0,0.0,0.0,0.0,0.0,0.0,0.0,0.0,0.0,0.0,0.0,0.0,0.0,0.0,5.0321,5.3268,0.0,0.0,0.0,0.0,5.0796,5.0796,5.2176,5.5099,5.5272,5.6633,5.9633,5.9815,6.0201,6.079,6.1767,6.212,6.1969,6.2218,6.2413,6.2523,6.1336,6.1179,6.1912,6.145,6.1962,6.3115,6.3647,6.4257,6.4701,6.2365,6.1416,6.1013,5.8736,5.9324,6.1416,6.2175,6.4083,6.6329,6.707,6.5228,6.2095,5.9061,5.8541,0.0,0.0,6.1338,6.3951,6.4868,6.6797,6.8753,6.9717,6.9913,6.9948,6.9979,6.8653,6.7211,6.6361,6.3653,6.1682,6.2269,0.0,6.2572,6.2462,6.404,6.5815,6.737,7.0226,7.2146,7.2182,7.34,7.4191,7.4191,7.3483,7.2709,7.1951,7.0999,7.0279,6.9834,6.9588,6.8805,6.7417,6.5007,0.0,0.0,0.0,0.0,0.0,0.0,0.0,0.0,0.0,0.0,0.0,0.0,0.0,0.0,0.0,0.0,0.0,0.0,0.0,0.0,0.0,0.0,0.0,0.0,0.0,0.0,0.0,0.0,5.2145,5.3521,0.0,5.3038,5.3659,5.4073,5.3996,5.5831,5.7633,5.9176,5.928,5.9771,6.0875,6.0909,6.1275,6.2005,6.2743,6.3344,6.3738,6.4027,6.4198,6.4256,6.3504,6.3305,6.3602,6.3411,6.383,6.468,6.5248,6.5596,6.5726,6.5566,6.5534,6.5424,6.4573,6.48,6.5645,6.6432,6.7644,6.9045,7.0367,7.0,6.8818,6.7687,6.7534,6.7774,6.777,6.8613,6.946,6.9229,7.0181,7.1153,7.0913,7.1282,7.1639,7.1627,7.1204,7.065,7.0126,6.7996,6.6401,6.6698,6.8379,6.8959,6.6865,6.863,7.0397,7.0952,7.1893,7.2702,7.3262,7.3796,7.4095,7.4198,7.3471,7.3161,7.3533,7.2605,7.1892,7.1604,7.1656,7.0976,6.9405,6.8812,6.5856,0.0,0.0,0.0,0.0,0.0,0.0,0.0,0.0,0.0,0.0,0.0,0.0,0.0,0.0,0.0,0.0,0.0,0.0,0.0,0.0,0.0,0.0,0.0,0.0,0.0,4.7405,5.1146,5.4181,5.5004,5.5486,5.6012,5.6521,5.7107,5.7874,5.9806,6.1298,6.2048,6.2324,6.2461,6.2461,6.2703,6.3126,6.3653,6.3977,6.4393,6.4864,6.4942,6.4903,6.4762,6.4683,6.4332,6.3781,6.479,6.5186,6.5206,6.6406,6.6848,6.6882,6.7978,6.8521,6.879,6.9047,6.9226,6.9382,6.9926,7.0477,7.1138,7.2459,7.3083,7.3347,7.3494,7.3795,7.403,7.3663,7.3443,7.3201,7.2644,7.2627,7.2681,7.2562,7.2839,7.3223,7.3482,7.3127,7.2849,7.3347,7.1523,6.9734,6.9133,7.0727,7.1274,6.8878,7.0383,7.1878,7.2169,7.2984,7.3776,7.4329,7.5063,7.557,7.5647,7.4655,7.4426,7.5281,7.3922,7.3128,7.3261,7.2718,7.1817,7.0489,6.9814,6.7689,6.4047,0.0,0.0,0.0,0.0,0.0,0.0,0.0,0.0,0.0,0.0,0.0,0.0,0.0,0.0,0.0,0.0,0.0,0.0,0.0,0.0,0.0,0.0,0.0,4.5748,5.0203,5.4356,5.6667,5.8211,5.9659,6.1151,6.1323,6.1668,6.2471,6.2549,6.2884,6.3643,6.4289,6.4669,6.4669,6.5428,6.5832,6.5832,6.55,6.5308,6.5308,6.4881,6.4485,6.412,6.4825,6.4133,6.2585,6.5427,6.5842,6.4715,6.7315,6.838,6.8483,6.9388,7.0151,7.0878,7.1688,7.2226,7.2518,7.2525,7.2562,7.2738,7.3604,7.4397,7.5085,7.5567,7.6452,7.7111,7.5982,7.5365,7.502,7.4982,7.4213,7.3686,7.4757,7.481,7.4799,7.555,7.4472,7.3949,7.59,7.4082,7.1625,6.9819,6.9514,6.9346,6.8771,6.9347,0.0,7.0966,7.3629,7.5477,7.5552,7.74,7.8644,7.8748,7.7245,7.6561,7.7194,7.4922,7.396,7.4834,7.2834,7.1495,7.0995,6.814,6.8194,7.1233,0.0,0.0,0.0,0.0,0.0,0.0,0.0,0.0,0.0,0.0,0.0,0.0,0.0,0.0,0.0,0.0,0.0,0.0,0.0,0.0,0.0,5.0762,5.4065,5.2961,5.4555,5.6909,5.9737,6.0418,6.0832,6.1254,6.1815,6.2471,6.3229,6.3772,6.4437,6.523,6.4402,6.3919,6.3919,6.4313,6.4507,6.4507,6.6762,6.7889,6.7889,6.8549,6.8808,6.8651,6.7988,6.7672,6.7701,6.7432,6.74,6.7658,6.9416,7.0285,7.0515,7.0141,7.0095,7.0414,7.1588,7.2427,7.3043,7.3296,7.3963,7.5121,7.7389,7.7691,7.7271,7.7985,7.8229,7.8126,7.7525,7.7667,7.7867,7.7295,7.7774,7.8276,7.7725,7.8417,7.8918,7.7971,7.7883,7.7883,7.7623,7.7432,7.6453,7.3873,7.4306,7.5019,7.5012,7.5325,7.5875,7.6825,7.6956,7.7416,7.8737,7.7361,7.735,7.9783,7.7591,7.6669,7.7979,7.743,7.6819,7.6344,7.6438,7.6075,7.5173,7.2196,7.057,0.0,0.0,0.0,0.0,0.0,0.0,0.0,0.0,0.0,0.0,0.0,0.0,0.0,0.0,0.0,0.0,0.0,0.0,0.0,0.0,0.0,0.0,5.4935,5.8866,5.8935,5.9081,5.9944,6.2013,6.1979,6.2057,6.2668,6.3151,6.3747,6.4506,6.4954,6.5455,6.6029,6.5711,6.5162,6.4488,6.5713,6.6163,6.564,6.7958,6.9244,6.957,7.0321,7.0666,7.0654,7.0592,7.0428,7.0262,7.0328,7.0262,7.0201,7.1617,7.2371,7.2494,0.0,0.0,0.0,0.0,7.3771,7.4522,7.5056,7.5729,7.6736,7.9054,7.9554,7.9387,8.0002,7.9706,7.9009,7.8249,7.7777,7.7511,7.7709,7.8088,7.8522,7.9013,7.9953,8.0581,7.998,8.0212,8.0604,8.0795,8.0675,0.0,7.8771,7.7665,7.6831,7.6419,7.676,7.7425,7.8431,7.881,7.9392,8.0474,7.9531,7.9468,8.099,7.89,0.0,0.0,0.0,7.7469,7.7055,7.7251,0.0,0.0,0.0,7.2284,7.2395,7.081,0.0,0.0,6.5007,6.2432,0.0,0.0,0.0,0.0,0.0,0.0,0.0,0.0,0.0,0.0,0.0,0.0,0.0,0.0,0.0,0.0,5.8495,6.1687,6.3639,6.3441,6.325,6.3678,6.3257,6.3439,6.4741,6.4882,6.5252,6.6131,6.6154,6.6264,6.6649,6.7495,0.0,0.0,0.0,6.9052,6.8079,6.93,7.0321,7.1045,7.135,7.1521,7.1554,7.278,7.268,7.162,7.3434,7.3488,7.2494,7.3891,7.4547,7.4578,7.4034,7.428,7.5028,7.5237,7.5887,7.6763,7.7448,0.0,0.0,7.9655,8.0587,8.1156,8.1607,8.0991,7.9973,7.9044,7.7556,7.6567,7.8045,7.7721,7.76,7.9943,8.08,8.1292,8.1826,8.2024,8.2558,8.4271,8.352,8.28,8.3422,8.0187,7.7148,7.6102,7.6522,7.7331,7.8327,8.0244,8.1563,8.1771,8.2775,0.0,8.268,8.1101,8.0332,8.072,7.8729,7.772,7.8071,7.7252,7.6246,7.5123,7.3962,7.4305,7.6267,7.5918,7.7231,7.9853,7.0954,6.8378,0.0,0.0,0.0,0.0,0.0,0.0,0.0,0.0,0.0,0.0,0.0,0.0,0.0,0.0,0.0,5.9891,6.344,6.5921,6.5949,6.6324,6.609,6.4647,6.507,6.5587,6.5865,6.5955,6.6509,6.7815,6.7605,6.7884,6.8995,6.7745,6.6826,6.6513,6.7809,6.8652,6.902,7.1863,7.3625,7.4389,7.4971,0.0,7.5251,7.4979,7.4999,7.5231,7.4515,7.4395,7.4757,7.5774,7.6644,7.7215,7.6564,7.7027,7.8005,7.7593,7.8351,7.9575,7.9386,7.9558,8.0134,8.2069,8.2166,8.1634,8.2332,8.2186,0.0,8.2651,8.3037,8.3445,8.4352,8.4891,8.5106,8.4717,8.5159,8.5325,8.4257,8.4549,8.489,8.4662,8.4872,8.495,8.4442,8.363,8.304,8.2957,8.2946,8.328,8.4296,8.4146,8.4469,8.5951,8.4195,8.3922,8.6315,8.4804,8.3874,8.4209,8.3643,8.3402,8.3636,8.271,8.1944,8.1372,8.0799,8.0478,8.0423,8.0687,8.1122,8.1644,7.7818,7.6717,0.0,0.0,0.0,0.0,0.0,0.0,0.0,0.0,0.0,0.0,0.0,5.3927,5.5866,0.0,5.9979,6.2888,6.5271,6.6995,6.7748,6.8598,6.828,6.5861,6.6069,6.6595,6.7115,6.7203,6.7711,6.8778,6.8646,6.9073,7.0237,6.9428,6.8793,6.8473,7.0113,7.0897,7.0638,7.3368,7.5111,7.5794,7.6887,7.7404,7.7404,7.7828,7.8193,7.8477,7.7762,7.7676,7.8047,7.8506,7.8975,7.9368,7.9552,7.9475,7.9324,7.9903,8.0885,8.1972,8.2603,8.2939,8.3333,8.4679,8.4743,8.4322,8.4736,8.388,8.2947,8.355,8.3144,8.2884,8.445,8.4854,8.5008,8.5634,8.6371,8.6692,8.5905,8.6695,8.7447,8.7029,8.7288,8.7411,8.702,8.6962,8.6629,8.5641,8.5432,8.5713,8.6726,8.6398,8.6434,8.7367,8.6093,8.5656,8.6777,8.5483,8.4724,8.49,8.4814,8.5033,8.564,8.5175,8.4811,8.4614,8.4614,8.4206,8.341,8.3996,8.4311,8.4274,8.3269,8.215,0.0,0.0,0.0,0.0,0.0,0.0,0.0,5.3141,5.4677,5.5568,5.6255,5.7324,5.9383,6.0409,6.2043,6.5478,6.6765,6.7844,6.9414,7.0329,6.9981,6.7702,6.7349,6.7579,6.8378,6.8653,6.9099,6.9827,6.9884,7.0343,7.1355,7.1423,7.1272,7.0915,7.3086,7.3924,7.3218,7.5277,7.6639,7.7356,7.8538,7.9102,7.9135,8.0344,8.0875,8.0875,8.082,8.0766,8.0711,8.0711,8.0711,8.0787,8.1789,8.1322,8.0318,8.2124,8.3351,8.4263,8.5573,8.6002,8.6109,8.6715,8.6894,8.6894,8.6894,8.5573,8.412,8.4263,8.2933,8.1969,8.4003,8.4075,8.4059,8.6019,8.695,8.7358,8.7361,8.8362,8.9309,8.9309,8.9309,8.9309,8.9309,8.9309,8.8696,8.6991,8.67,8.7013,8.7834,8.7916,8.7916,8.7916,8.7967,8.7685,8.6916,8.6091,8.5554,8.5554,8.5512,8.5896,8.67,8.6568,8.6496,8.6496,8.6713,8.6446,8.564,8.6402,8.6784,8.6876,8.72,8.5927,4.7677,4.5479,4.5195,4.7314,5.0513,5.3314,0.0,5.8392,6.1925,6.0557,6.2575,6.4979,6.6214,6.6995,6.788,6.924,7.0425,7.1151,7.1167,7.126,7.1222,7.0898,7.012,6.9656,6.978,7.043,7.1172,7.1917,7.2019,7.2394,7.3182,7.2609,7.2625,7.3462,7.5027,7.6421,7.7583,7.9122,8.0293,8.1016,8.1183,8.125,8.125,8.1417,8.1518,8.1504,8.1248,8.099,8.0711,8.0711,8.0711,8.0787,8.1789,8.2079,8.2164,8.4182,8.5606,8.6537,8.6705,8.6787,8.6787,8.6858,8.6894,8.6894,8.6894,8.6715,8.6644,8.7368,8.7404,8.7393,8.8382,8.856,8.8585,8.8849,8.8953,8.9046,8.9016,8.9181,8.9309,8.9309,8.9309,8.9309,8.9309,8.9309,8.9202,8.8985,8.8949,8.8996,8.9089,8.91,8.91,8.91,8.9282,8.9447,8.9553,8.9247,8.9038,8.9038,8.8882,8.8821,8.8949,8.8257,8.7864,8.7864,8.7567,8.734,8.7248,8.7752,8.8178,8.8535,8.8581,8.8207,5.1466,5.1618,5.2508,5.356,5.6987,6.0107,6.0096,6.2302,6.4434,6.4713,6.6058,6.7507,6.8573,6.814,6.8433,7.091,7.067,7.0805,7.2736,7.3012,7.2913,7.265,7.1517,7.0504,6.9883,7.1344,7.2077,7.1513,7.2297,7.351,7.5157,7.4801,7.5404,7.7262,7.8197,7.8958,7.9582,8.062,8.1277,8.1611,8.2033,8.2234,8.2234,8.2683,8.2884,8.2884,8.2762,8.2639,8.2496,8.2496,8.2496,8.2605,8.3597,8.4378,8.5013,8.5729,8.6291,8.6834,8.7913,8.831,8.831,8.831,8.831,8.831,8.831,8.831,8.8382,8.8703,8.8821,8.8881,8.9202,8.9309,8.9309,8.9309,8.9309,8.9309,8.9309,8.9309,8.9309,8.9309,8.9309,8.9309,8.9309,8.9309,8.9309,8.9309,8.9309,8.9309,8.9309,8.9309,8.9309,8.9309,8.9396,8.9457,8.9589,8.9504,8.9414,8.9414,8.9353,8.9309,8.9309,8.8988,8.8821,8.8821,8.8635,8.8551,8.8551,8.8999,8.9268,8.9458,8.9957,9.0097,5.4144,5.5621,5.712,5.854,6.1817,6.471,6.4902,6.5551,6.6466,6.7669,6.8374,6.8987,6.9695,6.9265,6.956,7.1946,7.1397,7.158,7.4219,7.4593,7.4332,7.3602,7.2563,7.1265,6.9701,7.1571,7.2827,7.2557,7.3678,7.5248,7.7401,7.7266,7.8081,8.0153,8.0746,8.1112,8.1327,8.2053,8.2442,8.2442,8.2966,8.3235,8.3235,8.3786,8.398,8.3911,8.3911,8.387,8.3802,8.3802,8.3802,8.3884,8.4605,8.5528,8.6473,8.6579,8.6963,8.767,8.9027,8.9504,8.9504,8.9504,8.9504,8.9504,8.9504,8.9504,8.9504,8.9504,8.945,8.936,8.936,8.9353,8.9309,8.9309,8.9309,8.9309,8.9309,8.9309,8.9309,8.9309,8.9309,8.9309,8.9309,8.9309,8.9309,8.9309,8.9309,8.9309,8.9309,8.9309,8.9309,8.9309,8.9309,8.9309,8.9309,8.9309,8.9309,8.9309,8.9309,8.9309,8.9309,8.9309,8.9309,8.9309,8.9309,8.9309,8.9309,8.9607,8.9793,8.9929,9.0535,9.0985,5.5077,5.4822,5.4839,5.9466,6.2396,6.4644,6.6568,6.8124,6.9124,6.8976,6.9727,7.0368,7.0194,7.1842,7.3028,7.2474,7.3935,7.5219,7.5601,7.5666,7.5124,7.3657,7.3454,7.2304,6.9405,7.1109,7.3634,7.6509,7.719,7.8231,7.998,7.9841,8.0165,8.1224,8.1942,8.2686,8.3396,8.4127,8.4519,8.4519,8.4519,8.4519,8.4519,8.4553,8.4419,8.4197,8.4197,8.4048,8.3802,8.3802,8.3802,8.3802,8.3843,8.4445,8.5476,8.6508,8.8163,8.9913,8.9969,8.998,8.998,8.998,8.998,8.998,8.998,8.998,8.998,8.998,8.9787,8.9607,8.9607,8.9436,8.9309,8.9309,8.9309,8.9309,8.9309,8.9309,8.9309,8.9309,8.9309,8.9309,8.9309,8.9309,8.9309,8.9309,8.9309,8.9309,8.9309,8.9309,8.9309,8.9309,8.9309,8.9309,8.9309,8.9309,8.9309,8.9309,8.9309,8.9309,8.9309,8.9309,8.9309,8.9309,8.9309,8.9309,8.9309,8.932,8.9521,8.9918,8.9939,9.0385,5.493,5.7103,5.9734,6.183,6.44,6.6779,6.8105,6.8662,6.9059,6.9677,6.912,6.8724,6.9358,6.9089,6.9415,7.1356,7.1412,7.244,7.6004,7.4345,7.3871,7.6847,7.5011,7.4266,7.6284,7.5337,7.4796,7.5325,7.7822,8.0019,8.1583,8.1573,8.2135,8.3443,8.3748,8.3984,8.4221,8.4492,8.4614,8.4614,8.4614,8.4614,8.4614,8.4614,8.456,8.448,8.448,8.4426,8.4346,8.4346,8.4662,8.5196,8.5855,8.7051,8.848,8.9495,9.0789,9.18,9.0465,9.0001,9.0001,9.0001,9.0001,9.0001,9.0001,9.0001,9.0001,9.0001,8.9949,8.9886,8.9886,8.9833,8.9749,8.9771,8.9761,8.9911,9.0454,9.0423,9.0448,9.1,9.0956,9.0814,9.0814,9.0814,9.0827,9.0819,8.9952,8.9309,8.9309,8.9309,8.9309,8.9309,8.9309,8.9309,8.9309,8.9309,8.9309,8.9309,8.9309,8.9309,8.9309,8.9309,8.9309,8.9309,8.9309,8.9309,8.9309,8.9309,8.9385,8.9511,8.9772,9.0038,5.8051,6.082,6.3603,6.4969,6.7128,6.9074,6.9601,7.0018,7.0468,7.1086,7.0554,6.9757,6.919,6.8784,6.905,7.0646,7.077,7.2225,7.6669,7.5676,7.5528,7.8382,7.6792,7.642,7.8788,7.7976,7.6995,7.6272,7.8437,8.0445,8.1934,8.2002,8.28,8.4546,8.4614,8.4614,8.4614,8.4614,8.4614,8.4614,8.4898,8.5033,8.5033,8.5303,8.4999,8.4255,8.5067,8.4965,8.4289,8.51,8.5743,8.6278,8.6897,8.8061,8.949,9.0481,9.1528,9.2302,9.1382,9.1068,9.1068,9.1068,9.1068,9.1068,9.1068,9.1068,9.1068,9.1068,9.1016,9.0953,9.0953,9.0891,9.0817,9.0815,9.083,9.098,9.1477,9.1458,9.1495,9.2001,9.1983,9.1855,9.1855,9.1847,9.1828,9.1737,9.0912,9.0211,9.0116,9.0116,9.0116,9.013,9.013,9.013,9.013,9.013,9.013,9.013,9.013,8.9987,8.9738,8.9738,8.9595,8.9309,8.9309,8.9309,8.9309,8.9309,8.9309,8.9309,8.9575,8.9761,6.369,6.5436,6.6219,6.8663,7.0319,7.13,7.1074,7.2128,7.307,7.2935,7.3397,7.2805,6.9373,7.0398,7.1413,7.0274,7.183,7.43,7.7447,7.9058,7.9464,7.8259,7.872,7.8674,7.7435,7.9194,8.0107,7.9283,7.9317,7.9993,8.1405,8.1473,8.2441,8.4512,8.4614,8.4614,8.4614,8.4647,8.4647,8.4681,8.5452,8.5872,8.5872,8.6602,8.5709,8.3795,8.5946,8.5675,8.3828,8.6014,8.6927,8.6961,8.6961,8.7636,8.8702,8.9668,9.0703,9.1734,9.278,9.307,9.2998,9.2998,9.2998,9.2998,9.2998,9.2998,9.2998,9.2998,9.2853,9.2733,9.2733,9.255,9.233,9.233,9.233,9.2366,9.2402,9.2391,9.2381,9.2438,9.2435,9.2417,9.2439,9.2417,9.2369,9.2147,9.2137,9.2022,9.1649,9.1577,9.1599,9.1604,9.1593,9.1593,9.1593,9.1593,9.1593,9.1593,9.1593,9.1272,9.0605,9.0569,9.0212,8.9463,8.9381,8.9381,8.9392,8.9309,8.9309,8.937,8.937,8.9572,6.315,6.6006,6.9396,7.1131,7.1853,7.2247,7.2731,7.3125,7.2776,7.0569,6.8924,6.7121,6.458,6.3632,6.4377,6.7895,6.8954,7.0939,7.562,7.6149,7.6915,7.9329,7.9803,8.0648,8.2462,8.3139,8.2733,8.0898,8.2259,8.3375,8.3748,8.3748,8.4018,8.458,8.4614,8.4614,8.4614,8.5168,8.5486,8.5486,8.6264,8.6636,8.6636,8.6825,8.6589,8.6048,8.6656,8.6555,8.6081,8.6656,8.7231,8.7719,8.7719,8.9202,9.1336,9.1525,9.2797,9.4405,9.4673,9.3986,9.2998,9.2998,9.2998,9.2998,9.2998,9.2998,9.2998,9.2998,9.2957,9.2915,9.2915,9.2884,9.2807,9.2807,9.2807,9.2988,9.3602,9.361,9.3655,9.42,9.4208,9.4104,9.408,9.4108,9.3994,9.3745,9.3896,9.3437,9.1805,9.1584,9.1609,9.1593,9.1593,9.1593,9.1593,9.1593,9.1593,9.1593,9.1593,9.1533,9.1308,9.1319,9.1325,9.1321,9.0586,9.0253,9.0427,8.9682,8.9595,9.0201,9.0201,9.0553,6.6219,6.891,7.183,7.2676,7.3138,7.3138,7.2236,7.2033,7.1221,6.821,6.6349,6.4556,6.2323,6.1467,6.2594,6.7151,6.847,7.0601,7.554,7.642,7.749,7.9904,8.0479,8.1697,8.4343,8.4614,8.4086,8.2847,8.3016,8.3152,8.3152,8.3152,8.3612,8.458,8.4614,8.4762,8.51,8.5892,8.6264,8.6298,8.7042,8.738,8.738,8.7719,8.7347,8.6467,8.7448,8.7313,8.6501,8.7482,8.8091,8.8477,8.8477,8.9457,9.0949,9.1391,9.2293,9.3448,9.4369,9.4104,9.3449,9.3897,9.4058,9.4058,9.4058,9.4058,9.4058,9.4058,9.4058,9.4058,9.4058,9.4058,9.4058,9.4058,9.4058,9.4167,9.4638,9.4652,9.4672,9.5103,9.5078,9.5018,9.4999,9.4995,9.4936,9.464,9.4742,9.4385,9.3117,9.2979,9.2945,9.2945,9.2954,9.2907,9.2807,9.2796,9.2796,9.2796,9.2796,9.2653,9.2331,9.2295,9.2163,9.1839,9.1278,9.1028,9.1149,9.0588,9.0523,9.0997,9.0997,9.1201,7.0557,7.2462,7.3691,7.3894,7.4356,7.404,7.1391,7.0477,6.9327,6.6214,6.4725,6.3463,6.1637,6.1907,6.3609,6.7286,6.9293,7.1627,7.5337,7.7727,7.9249,7.9701,8.0661,8.2171,8.4377,8.4309,8.4275,8.458,8.2813,8.1744,8.1744,8.1744,8.2678,8.4695,8.4762,8.5134,8.5939,8.667,8.7062,8.7062,8.7786,8.8158,8.8158,8.8815,8.8037,8.6345,8.8274,8.8003,8.6379,8.8308,8.9086,8.9086,8.9086,8.9184,8.9428,9.0524,9.1001,9.1378,9.3332,9.3998,9.418,9.5082,9.5409,9.5409,9.5409,9.5409,9.5409,9.5409,9.5409,9.5409,9.5409,9.5409,9.5409,9.5409,9.5409,9.5409,9.5409,9.5409,9.5409,9.5409,9.5409,9.5409,9.5409,9.5409,9.529,9.5041,9.5031,9.4997,9.4766,9.4722,9.4703,9.4712,9.4703,9.4609,9.4352,9.433,9.433,9.433,9.433,9.409,9.3445,9.3409,9.2962,9.207,9.1929,9.1858,9.1891,9.1751,9.1729,9.1836,9.1836,9.1907,7.1267,7.2822,7.4728,7.598,7.5912,7.5236,7.4074,7.1954,6.9157,6.5527,6.2719,6.096,6.1264,6.1907,6.3609,6.7286,6.9711,7.0962,7.05,7.5427,7.8708,7.7604,7.9748,8.2171,8.4377,8.2949,8.2644,8.4444,8.4255,8.4018,8.4018,8.4018,8.4492,8.5567,8.5587,8.596,8.6704,8.7448,8.782,8.782,8.8545,8.8917,8.8917,8.9052,8.8883,8.8545,8.8917,8.8883,8.8545,8.8951,8.9086,8.9086,8.9086,8.9648,9.0564,9.1641,9.2547,9.3425,9.4691,9.5104,9.5161,9.5331,9.5409,9.5409,9.5409,9.5409,9.5409,9.5409,9.5409,9.5409,9.5409,9.5409,9.5409,9.5409,9.5409,9.5409,9.5409,9.5409,9.5409,9.5409,9.5409,9.5409,9.5409,9.5409,9.529,9.5041,9.5201,9.524,9.4997,9.4799,9.47,9.4714,9.4691,9.4676,9.4631,9.4609,9.4609,9.4609,9.4609,9.4584,9.4441,9.4441,9.4434,9.4396,9.36,9.3287,9.3502,9.2626,9.2518,9.319,9.319,9.3549,7.0489,7.262,7.5337,7.6082,7.598,7.4695,7.0838,6.8571,6.5808,6.0496,5.7949,5.69,5.7679,5.8423,6.0757,6.6396,6.8933,7.0861,7.2868,7.6577,7.8978,7.8653,8.0221,8.171,8.278,8.1913,8.1744,8.2813,8.2881,8.3389,8.4546,8.4999,8.5587,8.6332,8.6738,8.711,8.7482,8.8192,8.8578,8.8578,8.8917,8.9086,8.9086,8.9086,8.9086,8.9086,8.9086,8.8443,8.7462,8.8612,8.8409,8.7496,8.8646,8.94,8.9928,9.0458,9.0949,9.1572,9.3167,9.3771,9.3977,9.5029,9.5409,9.5409,9.5409,9.5409,9.5409,9.5409,9.5409,9.5409,9.5409,9.5409,9.5409,9.5409,9.5409,9.5409,9.5409,9.5409,9.5409,9.5409,9.5409,9.5409,9.5409,9.5409,9.5373,9.5243,9.5326,9.5356,9.5219,9.5133,9.508,9.508,9.5072,9.4993,9.486,9.485,9.485,9.485,9.485,9.485,9.485,9.485,9.4839,9.4828,9.437,9.419,9.432,9.3805,9.3751,9.4136,9.4136,9.4316,7.067,7.3037,7.5743,7.5912,7.5811,7.4052,6.7838,6.5493,6.2821,5.6605,5.4329,5.3923,5.5285,5.6012,5.8675,6.5686,6.7546,6.9925,7.4999,7.7118,7.8572,7.9837,8.0763,8.1473,8.1981,8.1575,8.1507,8.1981,8.2184,8.3016,8.4762,8.5621,8.6366,8.7096,8.7719,8.8091,8.8226,8.8815,8.9086,8.9086,8.9086,8.9086,8.9086,8.9086,8.9086,8.9086,8.9086,8.7834,8.5973,8.8172,8.78,8.6007,8.824,8.9086,8.9128,8.9345,8.9442,8.9697,9.1572,9.2267,9.2582,9.4191,9.5018,9.5409,9.5409,9.5409,9.5409,9.5409,9.5409,9.5409,9.5409,9.5409,9.5409,9.5409,9.5409,9.5409,9.5409,9.5409,9.5409,9.5409,9.5409,9.5409,9.5409,9.5409,9.5409,9.5409,9.5409,9.5409,9.5409,9.5409,9.5409,9.5409,9.5409,9.5299,9.5097,9.5087,9.5087,9.5087,9.5087,9.5087,9.5087,9.5087,9.5001,9.4864,9.4864,9.4864,9.4864,9.4864,9.4864,9.4864,9.4864,9.4864,7.3947,7.5371,7.5879,7.6623,7.6251,7.4492,6.9857,6.6609,6.326,5.8567,5.5412,5.4524,5.7974,5.8641,6.0477,6.5922,6.5797,6.6609,7.1165,7.3668,7.607,7.8877,8.0445,8.2069,8.412,8.2475,8.215,8.4153,8.4979,8.5466,8.5669,8.6399,8.7144,8.7888,8.7955,8.8328,8.8984,8.9052,8.9086,8.9086,8.9086,8.9086,8.9086,8.9086,8.9086,8.9086,8.9086,8.7834,8.5973,8.8172,8.78,8.6007,8.824,8.9086,8.9226,9.0177,9.0564,9.0701,9.1905,9.2302,9.2303,9.2451,9.3792,9.5409,9.5409,9.5409,9.5409,9.5409,9.5409,9.5409,9.5409,9.5409,9.5409,9.5409,9.5409,9.5409,9.5409,9.5409,9.5409,9.5409,9.5409,9.5409,9.5409,9.5409,9.5409,9.5409,9.5409,9.5409,9.5409,9.5409,9.5409,9.5409,9.5409,9.5409,9.5377,9.5341,9.5341,9.5341,9.5341,9.5341,9.5341,9.5341,9.5331,9.5346,9.5346,9.5346,9.5346,9.5346,9.5346,9.5346,9.5346,9.5346,6.9385,7.2293,7.5236,7.598,7.5608,7.351,6.7726,6.5111,6.2303,5.6461,5.4329,5.3949,5.5437,5.6055,5.7746,6.2067,6.3419,6.6125,7.2417,7.5596,7.8403,8.1393,8.3097,8.3639,8.2712,8.1811,8.1845,8.3172,8.3998,8.5229,8.7022,8.7414,8.7888,8.8646,8.8646,8.8815,8.9086,8.9086,8.9086,8.9086,8.9086,8.9086,8.9086,8.9086,8.9086,8.9086,8.9086,8.7056,8.4031,8.7631,8.6988,8.4099,8.7699,8.9086,8.9142,8.9593,8.9724,8.9887,9.0962,9.1349,9.1451,9.2057,9.2836,9.353,9.353,9.3977,9.4424,9.4424,9.4424,9.4424,9.4424,9.4424,9.4424,9.4424,9.4932,9.5225,9.4581,9.4943,9.5409,9.5409,9.5409,9.5409,9.5409,9.5409,9.5409,9.5409,9.5409,9.5409,9.5409,9.5409,9.5409,9.5409,9.5409,9.5409,9.5409,9.5409,9.5409,9.5409,9.5409,9.5409,9.5409,9.5409,9.5409,9.5409,9.5409,9.5409,9.5409,9.5409,9.5409,9.5409,9.5409,9.5409,6.6703,7.0737,7.5055,7.5574,7.4492,7.1774,6.5933,6.3352,6.0511,5.4693,5.3509,5.3509,5.3509,5.3923,5.5556,5.9471,6.183,6.555,7.2349,7.5867,7.8945,8.2137,8.3862,8.4214,8.2759,8.2421,8.2678,8.3646,8.42,8.5621,8.8206,8.8342,8.8578,8.9086,8.9086,8.9086,8.9086,8.9086,8.9086,8.9086,8.9086,8.8748,8.8139,8.8781,8.8748,8.8172,8.8815,8.692,8.3693,8.7529,8.6853,8.3795,8.7597,8.9086,8.9086,8.9086,8.9086,8.9212,8.9969,9.0218,9.0351,9.1117,9.1362,9.1362,9.1362,9.2499,9.3748,9.3449,9.3576,9.3737,9.3413,9.3587,9.3737,9.3437,9.3908,9.4372,9.3896,9.438,9.4932,9.4932,9.4934,9.4825,9.4545,9.447,9.4489,9.4479,9.4493,9.4592,9.49,9.4932,9.504,9.5388,9.5409,9.5409,9.5409,9.5409,9.5409,9.5409,9.5409,9.5409,9.5409,9.5409,9.5409,9.5409,9.5409,9.5409,9.5409,9.5409,9.5409,9.5409,9.5409,9.5409,6.8213,7.2326,7.5676,7.5709,7.2947,6.9259,6.5459,6.1728,5.8008,5.4253,5.3509,5.3509,5.3509,5.3518,5.4972,5.937,6.14,6.4251,6.9496,7.28,7.6036,7.9803,8.1562,8.3321,8.5533,8.5033,8.5189,8.6724,8.6859,8.7516,8.9018,8.9086,8.9086,8.9086,8.9086,8.9086,8.9086,8.9086,8.9086,8.9086,8.9086,8.7936,8.5905,8.8105,8.7902,8.5973,8.8139,8.7834,8.5939,8.8172,8.7766,8.5973,8.824,8.9086,8.9086,8.9086,8.9086,8.9086,8.91,8.9114,8.9114,8.9128,8.9128,8.9128,8.9128,9.1327,9.3599,9.2607,9.3014,9.3576,9.2582,9.3038,9.3564,9.2535,9.2326,9.2619,9.3599,9.3817,9.3817,9.3817,9.3819,9.3495,9.2491,9.2317,9.233,9.2319,9.2339,9.2703,9.3691,9.3817,9.4225,9.5278,9.5409,9.5409,9.5409,9.5409,9.5409,9.5409,9.5409,9.5409,9.5409,9.5409,9.5409,9.5409,9.5409,9.5409,9.5409,9.5409,9.5409,9.5409,9.5409,9.5409,6.1573,6.4705,6.7478,6.7996,6.688,6.4772,6.1525,5.9471,5.7349,5.4152,5.3509,5.3509,5.3509,5.3509,5.4938,5.937,6.1409,6.5097,7.2868,7.6115,7.9046,8.2767,8.3612,8.4187,8.4898,8.3389,8.3625,8.6656,8.5452,8.5892,8.8951,8.9086,8.9086,8.9086,8.9086,8.9086,8.9086,8.9086,8.9086,8.9086,8.9086,8.7936,8.5872,8.8071,8.7902,8.5905,8.8139,8.7834,8.5973,8.8172,8.78,8.6007,8.824,8.9086,8.9086,8.9086,8.9086,8.9086,8.9086,8.9086,8.9086,8.9086,8.9086,8.9086,8.9086,9.0325,9.1607,9.1311,9.1429,9.1607,9.1298,9.1429,9.1594,9.1285,9.1777,9.2185,9.1788,9.2254,9.2765,9.2765,9.2752,9.2895,9.3248,9.3344,9.3576,9.4291,9.4427,9.4537,9.4868,9.49,9.4734,9.4347,9.4303,9.4614,9.532,9.5409,9.5409,9.5409,9.5409,9.5409,9.5409,9.5409,9.5409,9.5409,9.5409,9.5409,9.5409,9.5409,9.5409,9.5409,9.5409,9.5409,5.7582,6.1173,6.4028,6.4478,6.3183,6.1322,5.9419,5.7568,5.5716,5.3881,5.4591,5.5133,5.3746,5.4862,5.6519,5.8177,6.2076,6.6586,7.1289,7.5608,7.9317,8.2192,8.3261,8.412,8.4965,8.3808,8.4065,8.669,8.5858,8.6345,8.8951,8.9086,8.9086,8.9086,8.9086,8.9086,8.9086,8.9086,8.9086,8.9086,8.9086,8.7936,8.5872,8.8071,8.7902,8.5905,8.8139,8.8308,0.0,8.8511,8.8274,8.7191,8.8545,8.9086,8.9086,8.9086,8.9086,8.9086,8.9086,8.9086,8.9086,8.9086,8.9289,8.956,8.9864,9.0008,9.0164,9.0603,9.0916,9.0948,9.0259,9.0597,9.0948,9.0246,9.0594,9.1027,9.0767,9.121,9.1688,9.1681,9.1723,9.1789,9.1989,9.2025,9.2269,9.2919,9.3003,9.3179,9.3552,9.3645,9.3679,9.3794,9.3805,9.4054,9.4734,9.4814,9.4965,9.5352,9.5409,9.5409,9.5409,9.5409,9.5409,9.5409,9.5409,9.5409,9.5409,9.5409,9.5409,9.5409,9.5409,9.5409,0.0,6.0362,6.3734,6.3802,6.1187,5.8616,5.8616,5.5944,0.0,5.3847,5.6621,5.7931,5.4524,5.7509,5.9539,5.6578,6.3453,6.8504,6.6518,7.2575,7.7671,7.8877,8.1109,8.3321,8.5296,8.5669,8.6108,8.6825,8.7583,8.8328,8.9052,8.9086,8.9086,8.9086,8.9086,8.9086,8.9086,8.9086,8.9018,8.8883,8.9018,8.7868,8.5635,8.8003,8.7902,8.5905,8.8139,8.9086,8.9086,8.9086,8.9086,8.9086,8.9086,8.9086,8.9086,8.9086,8.912,8.9187,8.9187,8.9221,8.9255,8.9255,8.9715,9.0425,9.1102,9.0338,8.9459,9.0401,9.1162,9.1286,8.9549,9.0332,9.1191,8.9487,8.9086,8.9374,9.0356,9.0596,9.0576,9.0607,9.0573,9.0293,8.9351,8.9232,8.9234,8.9337,8.9351,8.9669,9.0709,9.0806,9.1518,9.3378,9.3599,9.3599,9.3599,9.3725,9.4202,9.514,9.5182,9.5182,9.5182,9.5182,9.5182,9.5182,9.5182,9.5246,9.5409,9.5309,9.532,9.5409,9.5409,9.5409,5.1168,0.0,5.5344,5.5953,5.5437,5.4794,0.0,5.4118,5.4287,5.7128,5.8404,5.8743,5.7872,6.1366,6.3439,6.0443,6.5595,7.0342,7.1492,7.6635,7.9781,7.8428,8.1731,8.3612,8.2454,8.4451,8.6108,8.6825,8.7583,8.8328,8.9052,8.9086,8.9086,8.9086,8.9086,8.9086,8.9086,8.9086,8.824,8.6582,8.8274,8.7022,8.3321,8.7293,8.7902,8.5905,8.8139,8.9086,8.9086,8.9086,8.9086,8.9086,8.9086,8.9086,8.9086,8.9086,8.9458,8.9951,8.9951,9.0324,9.0778,9.0778,9.0899,9.1068,9.1237,9.1068,9.0719,9.0425,9.0427,9.0371,8.9359,8.9431,8.9638,8.919,8.9086,8.915,8.9409,8.9495,8.9471,8.9491,8.9478,8.9674,9.0235,9.033,9.0603,9.1429,9.1565,9.1654,9.1905,9.1943,9.1818,9.1454,9.1416,9.1416,9.1416,9.2895,9.3587,9.3073,9.3038,9.3038,9.3038,9.3038,9.3038,9.3038,9.3038,9.3794,9.5409,9.4581,9.4603,9.5409,9.5409,9.5409,4.9502,5.1088,5.2807,5.4972,5.4499,5.3949,5.564,5.4727,5.4558,5.8235,5.9259,5.9496,5.9496,6.2347,6.4174,6.2574,6.6136,7.0646,7.4943,7.7988,7.9477,7.8619,8.031,8.1629,8.1799,8.4539,8.6602,8.7347,8.8091,8.8849,8.9579,8.9289,8.9255,8.9579,8.9289,8.9086,8.9086,8.9086,8.7969,8.5838,8.8037,8.7293,8.4065,8.7529,8.8443,8.7326,8.7496,8.8172,8.9018,8.8003,8.8172,8.912,8.9478,8.9579,8.9661,8.9999,9.0357,9.0696,9.0696,9.0966,9.1372,9.1711,9.1798,9.1865,9.2218,9.2368,9.2116,9.1034,9.0952,9.0952,8.9884,8.9864,8.9932,8.9255,8.9086,8.9086,8.9086,8.9086,8.9086,8.9086,8.9086,8.9263,8.9858,8.9963,9.0166,9.0753,9.0819,9.0819,9.0819,9.0819,9.0792,9.0701,9.0688,9.0688,9.0688,9.1733,9.2365,9.2314,9.2716,9.2764,9.2326,9.2267,9.2267,9.2314,9.2314,9.2859,9.3977,9.3402,9.3414,9.3989,9.3989,9.3989,4.9203,5.0935,5.3078,5.6943,5.5683,5.4456,5.8177,5.6147,5.4727,5.9124,6.0419,6.0892,6.1231,6.3792,6.5449,6.4062,6.6779,7.1142,7.7007,7.8225,7.8631,7.8911,7.8991,7.9904,8.2192,8.5134,8.7198,8.7955,8.868,8.9357,9.0019,8.9458,8.939,9.0019,8.9424,8.9086,8.9086,8.9086,8.7969,8.5838,8.8037,8.7936,8.5872,8.8071,8.9086,8.8984,8.7123,8.7428,8.912,8.7225,8.7631,8.9492,9.0121,9.0391,9.0459,9.1068,9.1372,9.1474,9.1609,9.1643,9.1744,9.2373,9.2575,9.2711,9.3383,9.3586,9.3315,9.2029,9.1947,9.1933,9.0546,9.0594,9.0642,8.939,8.9086,8.9086,8.9086,8.9086,8.9086,8.9086,8.9086,8.9086,8.9086,8.9086,8.9086,8.9086,8.9086,8.9086,8.9086,8.9086,8.9442,9.0365,9.0458,9.0458,9.0458,9.0617,9.1014,9.178,9.262,9.2704,9.1868,9.1748,9.1823,9.2067,9.1905,9.1993,9.2314,9.2142,9.2154,9.2314,9.2314,9.2314,4.8648,5.0238,5.2427,5.6808,5.5683,5.4456,5.8177,5.6147,5.5615,6.3135,6.4285,6.4478,6.6373,7.218,7.4209,6.6609,7.0511,7.51,7.6826,7.9206,8.012,7.8394,8.138,8.3274,8.2496,8.5134,8.7198,8.7955,8.868,8.9154,8.9255,8.9154,8.9154,8.9255,8.9154,8.9086,8.9086,8.9086,8.7969,8.5838,8.8037,8.7936,8.5872,8.8071,8.9086,8.9086,8.8748,8.9154,9.0005,8.9681,9.0087,9.0966,9.1102,9.1135,9.1135,9.1271,9.1711,9.2339,9.3011,9.3248,9.3281,9.3383,9.3417,9.3451,9.3552,9.3586,9.3552,9.3315,9.2402,9.1271,9.0425,8.9816,8.939,8.9154,8.9086,8.9086,8.9086,8.9086,8.9086,8.9086,8.9086,8.9086,8.9086,8.9086,8.9086,8.9086,8.9086,8.9086,8.9086,8.9086,8.9156,8.9351,8.9365,8.9365,8.9365,9.0164,9.0391,8.9648,8.9738,8.9751,8.9607,8.9593,8.9989,9.0923,9.0029,9.0498,9.2314,9.14,9.1413,9.2314,9.2314,9.2314,4.899,5.0364,5.2757,5.9293,5.7171,5.564,6.3792,5.9631,5.6977,6.7229,6.486,6.2651,6.8142,7.0973,7.2045,7.0737,7.6487,8.0729,7.9443,8.0784,8.1528,8.0513,8.1832,8.2881,8.2983,8.5337,8.7367,8.8511,8.8917,8.9255,8.9681,8.9323,8.9289,8.9681,8.9323,8.9086,8.9086,8.9086,8.7969,8.5838,8.8037,8.7936,8.5872,8.8071,8.9323,8.9613,8.8429,8.9004,9.0662,8.9058,8.9328,9.0763,9.1135,9.1305,9.1406,9.2232,9.2759,9.3098,9.3484,9.3586,9.3586,9.3586,9.3586,9.3586,9.3586,9.3586,9.3586,9.3586,9.3078,9.2266,9.1102,9.0527,9.0101,8.9289,8.9086,8.9086,8.9086,8.9086,8.9086,8.9086,8.9086,8.9086,8.9086,8.9424,8.9681,8.9681,9.0033,9.0304,9.0304,8.9932,8.9681,8.9681,8.9357,8.9086,8.9086,8.9552,8.9874,8.9969,8.9414,8.9086,8.9086,8.9086,8.9351,8.9819,8.9331,8.9593,9.0577,9.0091,9.0104,9.0577,9.0577,9.0577,4.9479,5.0777,5.3239,6.0603,5.8075,5.6833,6.8628,6.2922,5.8466,7.0229,6.618,6.283,7.0375,7.0195,7.0489,7.5371,8.0987,8.4112,8.2319,8.2577,8.2902,8.2902,8.2577,8.286,8.4167,8.6027,8.7719,8.8984,8.9086,8.9357,8.9918,8.9424,8.9357,8.9918,8.939,8.9086,8.9086,8.9086,8.824,8.6582,8.8477,8.8477,8.6887,8.8748,8.9918,9.0343,8.8652,8.9295,9.1372,8.9125,8.9295,9.1068,9.1623,9.186,9.1981,9.3146,9.3586,9.3586,9.3586,9.3586,9.3586,9.3586,9.3586,9.3586,9.3586,9.3586,9.3586,9.3586,9.3586,9.3281,9.1913,9.144,9.0966,8.9681,8.9351,8.9311,8.9134,8.9086,8.9086,8.9086,8.9086,8.9086,8.9086,8.9715,9.0208,9.0208,9.0831,9.1305,9.1305,9.0797,9.0391,9.0208,8.9681,8.9289,8.912,8.9086,8.9442,9.0271,8.9552,8.9086,8.9086,8.9086,8.9086,8.9086,8.9086,8.9086,8.9086,8.9086,8.9086,8.9086,8.9086,8.9086,4.9591,5.115,5.3374,5.8134,5.69,5.7476,6.873,6.369,5.9844,7.1086,7.068,6.9958,7.5405,7.5676,7.6318,8.0187,8.127,8.2285,8.412,8.4411,8.4444,8.4444,8.5046,8.5804,8.6589,8.7414,8.826,8.9052,8.9086,8.912,8.9187,8.912,8.912,8.9187,8.912,8.9086,8.9086,8.9086,8.9018,8.8883,8.9715,9.0053,8.9903,9.0763,9.1184,9.1203,9.1034,9.1493,9.229,9.2087,9.2556,9.3349,9.3417,9.3417,9.3451,9.3552,9.3586,9.3586,9.3586,9.3586,9.3586,9.3586,9.3586,9.3586,9.3586,9.3586,9.3586,9.3586,9.3586,9.3417,9.2542,9.1798,9.1087,9.032,9.0118,8.994,8.9263,8.9086,8.9086,8.9086,8.9086,8.9086,8.9086,8.9715,9.0208,9.0208,9.0831,9.1305,9.1305,9.1237,9.0966,9.0275,9.014,8.985,8.9154,8.9086,8.9128,8.9212,8.9142,8.9086,8.9086,8.9086,8.9086,8.9086,8.9086,8.9086,8.9086,8.9086,8.9086,8.9086,8.9086,8.9086,5.023,5.144,5.4059,6.1332,5.9539,5.8896,7.0139,6.6948,6.4816,7.6026,7.3421,7.0128,7.3477,7.6521,7.9092,8.0999,8.2441,8.3646,8.4478,8.4614,8.4614,8.4614,8.5317,8.6108,8.6825,8.7583,8.8294,8.9052,8.9086,8.9086,8.9086,8.9086,8.9086,8.9086,8.9086,8.9323,8.9782,8.9782,9.0019,9.0473,9.029,9.0459,9.0899,9.1169,9.1541,9.1967,9.1967,9.2421,9.3098,9.2609,9.2575,9.2846,9.2846,9.3165,9.3586,9.3586,9.3586,9.3586,9.3586,9.3586,9.3586,9.3586,9.3586,9.3586,9.3586,9.3586,9.3586,9.3586,9.3586,9.3417,9.2609,9.2203,9.1798,9.1073,9.0897,9.0672,8.9946,8.9771,8.9638,8.9187,8.9086,8.9086,8.9086,8.9715,9.0208,9.0208,9.1223,9.1967,9.1967,9.1967,9.1865,9.1595,9.0749,9.0073,8.9816,8.9357,8.9086,8.9086,8.9086,8.9086,8.9086,8.9086,8.9086,8.9086,8.9086,8.9086,8.9086,8.9086,8.9086,8.9086,8.9086,8.9086,5.1005,5.2217,5.4837,6.2424,6.1061,6.0723,7.1695,6.9586,6.8199,7.8496,7.7266,7.4525,7.5112,7.8314,8.0987,8.127,8.2577,8.3815,8.4512,8.4614,8.4681,8.4931,8.5655,8.6433,8.7164,8.7922,8.8545,8.9052,8.9086,8.9086,8.9086,8.9086,8.9086,8.9086,8.9086,8.9444,9.0174,9.0208,9.0681,9.1643,9.1121,9.1155,9.1677,9.215,9.2522,9.2778,9.3015,9.33,9.3552,9.2745,9.2392,9.2392,9.2392,9.288,9.3586,9.3586,9.3586,9.3586,9.3586,9.3586,9.3586,9.3586,9.3586,9.3586,9.3586,9.3586,9.3586,9.3586,9.3586,9.3484,9.2928,9.2778,9.2595,9.1841,9.1648,9.1464,9.0722,9.056,9.0393,8.9884,8.9627,8.9458,8.9458,8.9884,9.0275,9.0527,9.1595,9.2493,9.2745,9.2778,9.2677,9.244,9.129,9.056,9.056,9.0087,8.9695,8.9458,8.9458,8.9357,8.912,8.9086,8.9086,8.9086,8.9086,8.9086,8.9086,8.9086,8.9086,8.9086,8.9086,8.9086,5.192,5.345,5.5691,6.0182,6.0723,6.2854,7.3274,7.1109,6.9203,7.7456,8.2644,8.4823,8.1811,8.19,8.2158,8.1405,8.1304,8.2116,8.4289,8.4614,8.4898,8.5702,8.6467,8.7211,8.7922,8.868,8.9086,8.9086,8.9086,8.9086,8.9086,8.9086,8.9086,8.9086,8.912,8.9458,9.0208,9.0208,9.0952,9.2392,9.2392,9.2392,9.2459,9.3996,9.4282,9.3654,9.4383,9.4282,9.3552,9.2745,9.2392,9.2392,9.2392,9.2895,9.3586,9.3586,9.3586,9.3586,9.3586,9.3586,9.3586,9.3586,9.3586,9.3586,9.3586,9.3586,9.3586,9.3586,9.3586,9.3586,9.3586,9.3586,9.3406,9.2592,9.2413,9.2225,9.1459,9.1305,9.1315,9.131,9.0729,9.0208,9.0208,9.0208,9.0459,9.1169,9.1933,9.2677,9.3484,9.3586,9.33,9.2508,9.173,9.1305,9.1305,9.1305,9.1,9.0242,9.0208,8.9884,8.912,8.9086,8.9086,8.9086,8.9086,8.9086,8.9086,8.9086,8.9086,8.9086,8.9086,8.9086,5.5153,5.5358,5.5691,6.0182,6.1897,6.3994,6.9755,7.209,7.4661,8.0264,8.2069,8.1879,7.9409,8.1697,8.3375,8.1575,8.2611,8.3849,8.4512,8.508,8.552,8.577,8.692,8.7753,8.7989,8.868,8.9086,8.9086,8.9086,8.9086,8.9086,8.9086,8.9086,8.9086,8.9579,9.0222,9.0966,9.1493,9.2237,9.3233,9.3233,9.3233,9.3267,9.3721,9.3823,9.362,9.3823,9.3789,9.3586,9.3349,9.3233,9.3233,9.3233,9.3383,9.3586,9.3586,9.3586,9.3586,9.3586,9.3586,9.3586,9.3586,9.3586,9.3586,9.3586,9.3586,9.3586,9.3586,9.3586,9.3586,9.3586,9.3586,9.3537,9.3309,9.3227,9.3024,9.2232,9.2078,9.1923,9.1406,9.1102,9.0797,9.0275,9.0628,9.0865,9.056,9.1595,9.2677,9.3484,9.3586,9.3518,9.3281,9.2556,9.2068,9.2068,9.1609,9.1203,9.1,9.0966,9.0405,8.9154,8.9086,8.9086,8.9086,8.9086,8.9086,8.9086,8.9086,8.9086,8.9086,8.9086,8.9086,5.7339,5.7741,5.8626,6.4275,6.5483,6.6464,7.1142,7.4492,7.7874,8.2361,8.3422,8.2915,8.0987,8.3037,8.4539,8.2881,8.3714,8.4715,8.5033,8.5486,8.6007,8.6616,8.7448,8.8139,8.8409,8.8849,8.9086,8.9086,8.9086,8.9086,8.9086,8.9086,8.9221,8.9526,8.9985,9.0681,9.1744,9.1899,9.2522,9.3586,9.3267,9.33,9.362,9.389,9.389,9.3586,9.3586,9.3417,9.3131,9.3131,9.3131,9.3098,9.2808,9.3078,9.3552,9.3233,9.3349,9.3586,9.3586,9.3586,9.3586,9.3586,9.3586,9.3586,9.3586,9.3586,9.3586,9.3586,9.3586,9.3586,9.3586,9.3586,9.3586,9.3586,9.3586,9.3484,9.2996,9.2895,9.2759,9.23,9.1947,9.1609,9.1155,9.1203,9.1237,9.1087,9.2102,9.3064,9.3552,9.3586,9.3586,9.3586,9.3165,9.2895,9.2895,9.2455,9.2083,9.1778,9.1744,9.1203,9.0033,8.9966,8.9966,8.9966,8.9966,8.983,8.9545,8.9545,8.9545,8.9545,8.9545,8.9695,5.8912,6.0341,6.2946,6.9789,6.9722,6.9688,7.6048,7.7921,7.9511,8.3815,8.5608,8.6014,8.4817,8.5215,8.5452,8.4715,8.4647,8.4965,8.5702,8.5905,8.6514,8.7854,8.8057,8.8361,8.9018,8.9086,8.9086,8.9086,8.9086,8.9086,8.9086,8.9086,8.9458,9.0174,9.0275,9.0952,9.2305,9.1696,9.2083,9.3484,9.2745,9.2778,9.3518,9.418,9.4079,9.3383,9.3383,9.2962,9.229,9.229,9.229,9.2237,9.1643,9.2252,9.3417,9.2745,9.2962,9.3586,9.3586,9.3586,9.3586,9.3586,9.3654,9.3687,9.362,9.3654,9.3687,9.362,9.3586,9.3586,9.3586,9.3586,9.3586,9.3586,9.3586,9.3586,9.3586,9.3586,9.3586,9.3586,9.2996,9.2508,9.2392,9.1899,9.1744,9.2406,9.3131,9.3586,9.3586,9.3586,9.3586,9.3586,9.3586,9.3586,9.3586,9.3586,9.3281,9.2575,9.2508,9.2203,9.1541,9.1372,9.1305,9.1305,9.1305,9.0966,9.029,9.029,9.029,9.029,9.029,9.0662,6.1492,6.1931,6.1839,6.4015,6.6711,7.1176,8.0073,8.1304,8.1541,8.4857,8.3909,8.2915,8.4343,8.4762,8.4796,8.4614,8.5148,8.5601,8.577,8.6819,8.7651,8.7955,8.8511,8.8917,8.9086,8.9086,8.9086,8.9086,8.9086,8.9086,8.9086,8.9086,8.9458,9.0174,9.0763,9.1203,9.1541,9.1933,9.2339,9.2643,9.2474,9.2493,9.2643,9.2812,9.2474,9.1778,9.1778,9.1711,9.1541,9.1541,9.1541,9.1575,9.2,9.2373,9.2711,9.3165,9.3451,9.3586,9.3586,9.3586,9.3586,9.3586,9.3977,9.4349,9.3789,9.4011,9.4349,9.3755,9.3586,9.3586,9.3586,9.3586,9.3586,9.3586,9.3586,9.3586,9.3586,9.3586,9.3586,9.3586,9.3451,9.3131,9.2508,9.2793,9.3146,9.3315,9.3484,9.3586,9.3586,9.3586,9.3586,9.3586,9.3586,9.3586,9.3586,9.3586,9.3518,9.3334,9.3349,9.3281,9.3112,9.1962,9.1305,9.1305,9.1305,9.1203,9.1068,9.1068,9.1068,9.1068,9.1068,9.1135,6.0003,6.2337,6.4806,6.8447,7.271,7.6927,8.0581,8.2171,8.3321,8.4911,8.3964,8.324,8.4377,8.4614,8.4614,8.4614,8.5283,8.5905,8.6264,8.7279,8.8125,8.8477,8.8883,8.9086,8.9086,8.9086,8.9086,8.9086,8.9086,8.9086,8.9086,8.9086,8.9593,9.0696,9.0763,9.1305,9.2402,9.2049,9.2252,9.2962,9.2575,9.2392,9.2406,9.2034,9.1677,9.1305,9.1305,9.1305,9.1338,9.1677,9.1831,9.1865,9.2237,9.2643,9.2996,9.303,9.3281,9.3586,9.3586,9.3586,9.3586,9.3586,9.4112,9.4552,9.3823,9.4112,9.4552,9.3823,9.3586,9.3586,9.3586,9.3586,9.3586,9.3586,9.3586,9.3586,9.3586,9.3586,9.3586,9.3586,9.3586,9.3484,9.3064,9.3315,9.3586,9.3586,9.3586,9.3586,9.3586,9.3586,9.3586,9.3586,9.3586,9.3586,9.3586,9.3586,9.3586,9.3586,9.3586,9.3586,9.3586,9.2841,9.2402,9.2402,9.2402,9.2218,9.1831,9.1831,9.1831,9.1831,9.1831,9.2049,5.734,6.2245,6.8561,7.5067,7.9261,8.146,8.0297,8.2022,8.3971,8.4512,8.4614,8.4614,8.4614,8.4614,8.4647,8.4796,8.5486,8.6244,8.6995,8.7719,8.8409,8.9018,8.9086,8.9086,8.9086,8.9086,8.9086,8.9086,8.9221,8.9289,8.9289,8.9424,9.0101,9.144,9.0763,9.1372,9.3383,9.1981,9.1981,9.3383,9.2711,9.2392,9.2373,9.1643,9.1305,9.1305,9.1305,9.1305,9.1338,9.1967,9.2203,9.2237,9.2358,9.2827,9.3349,9.2778,9.303,9.3586,9.3586,9.3586,9.3586,9.3586,9.4112,9.4571,9.3977,9.4214,9.4571,9.3958,9.3687,9.3586,9.3586,9.3586,9.3586,9.3586,9.3586,9.3586,9.3586,9.3586,9.3586,9.3586,9.3586,9.3586,9.3586,9.3586,9.3586,9.3586,9.3586,9.3586,9.3586,9.3586,9.3586,9.3586,9.3586,9.3586,9.3586,9.3586,9.3586,9.3586,9.3586,9.3586,9.3586,9.3586,9.3586,9.3586,9.3586,9.3267,9.2609,9.2609,9.2609,9.2609,9.2609,9.2962,5.6722,6.2245,6.9045,7.4492,7.5349,7.6432,8.2496,8.2259,8.1515,8.4072,8.4614,8.4614,8.4614,8.4614,8.483,8.5533,8.6264,8.7008,8.7753,8.8511,8.8984,8.9086,8.9086,8.9086,8.9086,8.9086,8.9086,8.9086,8.9681,9.0039,9.0039,9.0662,9.1406,9.2237,9.1541,9.1609,9.2542,9.1711,9.1711,9.2575,9.2459,9.2392,9.2373,9.1643,9.1305,9.1305,9.1305,9.1305,9.1319,9.1406,9.144,9.1508,9.2136,9.2474,9.2643,9.3199,9.3518,9.3586,9.3586,9.3586,9.3586,9.3586,9.4112,9.4673,9.4571,9.4605,9.4673,9.4586,9.4079,9.3586,9.3586,9.3586,9.3586,9.3586,9.3586,9.3586,9.3586,9.3586,9.3586,9.3586,9.3586,9.3586,9.3586,9.3586,9.3586,9.3586,9.3586,9.3586,9.3586,9.3586,9.3586,9.3586,9.3586,9.3586,9.3586,9.3586,9.3586,9.3586,9.3586,9.3586,9.3586,9.3586,9.3586,9.3586,9.3586,9.3552,9.3451,9.3451,9.3451,9.3451,9.3451,9.3484,5.937,6.2956,6.6891,7.5473,7.554,7.5248,8.1853,8.1718,8.1054,8.3971,8.4614,8.4614,8.4614,8.4965,8.5384,8.5736,8.6785,8.7617,8.7955,8.8646,8.9086,8.9086,8.9086,8.9086,8.9086,8.9478,8.9715,8.9715,9.0391,9.0831,9.0831,9.1102,9.1643,9.2358,9.1677,9.188,9.3064,9.2305,9.2319,9.3064,9.3064,9.3064,9.3064,9.274,9.2131,9.1305,9.1305,9.1305,9.1338,9.1744,9.1899,9.2,9.2759,9.3064,9.3131,9.3484,9.3586,9.3586,9.3586,9.3586,9.3586,9.3586,9.4112,9.4706,9.4706,9.4706,9.4706,9.4706,9.418,9.3586,9.3586,9.3586,9.3586,9.3586,9.3586,9.3586,9.3586,9.3586,9.3586,9.3586,9.3586,9.3586,9.3586,9.3586,9.3586,9.3586,9.3586,9.3586,9.3586,9.3586,9.3586,9.3586,9.3586,9.3586,9.3586,9.3586,9.3586,9.3586,9.3586,9.3586,9.3586,9.3586,9.3586,9.3586,9.3586,9.3586,9.3586,9.3586,9.3586,9.3586,9.3586,9.3586,5.9988,6.2115,6.3973,7.3781,7.4018,7.3206,7.8619,7.9514,7.9958,8.2644,8.4056,8.4786,8.464,8.5249,8.5872,8.6041,8.7144,8.8057,8.826,8.8748,8.9086,8.9086,8.9086,8.9086,8.9086,8.9782,9.0208,9.0208,9.1068,9.1575,9.1575,9.1778,9.215,9.2677,9.1981,9.2218,9.3586,9.2996,9.2996,9.3586,9.3586,9.3586,9.3586,9.3586,9.2977,9.1894,9.1894,9.1894,9.1913,9.2489,9.2711,9.2745,9.3383,9.3586,9.3586,9.3586,9.3586,9.3586,9.3586,9.3586,9.3586,9.3586,9.3977,9.4451,9.4639,9.4571,9.4451,9.4658,9.4165,9.3586,9.3586,9.3586,9.3586,9.3586,9.3586,9.3586,9.3586,9.3586,9.3586,9.3586,9.3586,9.3586,9.3586,9.3586,9.3586,9.3586,9.3586,9.3586,9.3586,9.3586,9.3586,9.3586,9.3586,9.3586,9.3586,9.3586,9.3586,9.3586,9.3586,9.3586,9.3586,9.3586,9.3586,9.3586,9.3586,9.3586,9.3586,9.3586,9.3586,9.3586,9.3586,9.3586,5.5751,5.8314,6.0908,6.6956,6.7827,6.8155,7.2056,7.4736,7.698,7.8973,8.2616,8.5273,8.472,8.5249,8.6041,8.6724,8.7482,8.8226,8.8951,8.9086,8.9086,8.9086,8.9086,8.9086,8.9086,8.9782,9.0208,9.0208,9.1527,9.2339,9.2339,9.3064,9.3484,9.3552,9.2745,9.2745,9.3586,9.3552,9.3552,9.3586,9.3586,9.3586,9.3586,9.3586,9.3552,9.3484,9.3484,9.3484,9.3484,9.3518,9.3552,9.3552,9.3586,9.3586,9.3586,9.3586,9.3586,9.3586,9.3586,9.3586,9.3586,9.3586,9.362,9.3789,9.4485,9.4214,9.3808,9.4511,9.4169,9.3586,9.3586,9.3586,9.3586,9.3586,9.3586,9.3586,9.3586,9.3586,9.3586,9.3586,9.3586,9.3586,9.3586,9.3586,9.3586,9.3586,9.3586,9.3586,9.3586,9.3586,9.3586,9.3586,9.3586,9.3586,9.3586,9.3586,9.3586,9.3586,9.3586,9.3586,9.3586,9.3586,9.3586,9.3586,9.3586,9.3586,9.3586,9.3586,9.3586,9.3586,9.3586,9.3586,5.5,5.6149,5.7785,6.5623,6.474,6.3876,7.1135,7.3788,7.5352,7.762,8.19,8.4765,8.3283,8.5045,8.6786,8.6887,8.7922,8.8815,8.9052,8.9086,8.9086,8.9086,8.9086,8.9289,8.9748,9.0459,9.1102,9.1595,9.1223,9.1628,9.3098,9.2049,9.2083,9.3552,9.3315,9.3315,9.3586,9.3586,9.3586,9.3586,9.3586,9.3586,9.3586,9.3586,9.3586,9.3586,9.3586,9.3586,9.3586,9.3586,9.3586,9.3586,9.3586,9.3586,9.3586,9.3586,9.3586,9.3586,9.3586,9.3586,9.3586,9.3586,9.3586,9.3755,9.4485,9.418,9.374,9.4478,9.4169,9.3586,9.3586,9.3586,9.3586,9.3586,9.3586,9.3586,9.3586,9.3586,9.3586,9.3586,9.3586,9.3586,9.3586,9.3586,9.3586,9.3586,9.3586,9.3586,9.3586,9.3586,9.3586,9.3586,9.3586,9.3586,9.3586,9.3586,9.3586,9.3586,9.3586,9.3586,9.3586,9.3586,9.3586,9.3586,9.3586,9.3586,9.3586,9.3586,9.3586,9.3586,9.3586,9.3586,5.2666,5.345,5.4876,6.1304,6.0938,6.0687,6.7032,7.1431,7.465,7.6437,8.1362,8.5001,8.3836,8.5438,8.6968,8.7003,8.8194,8.9086,8.9086,8.9086,8.9086,8.9086,8.9086,8.939,9.0121,9.0865,9.1609,9.2339,9.173,9.1981,9.3518,9.215,9.2049,9.3552,9.3586,9.3586,9.3586,9.3586,9.3586,9.3586,9.3586,9.3586,9.3586,9.3586,9.3586,9.3586,9.3586,9.3586,9.3586,9.3586,9.3586,9.3586,9.3586,9.3586,9.3586,9.3586,9.3586,9.3586,9.3586,9.3755,9.3958,9.3958,9.3958,9.4045,9.4556,9.4165,9.3721,9.4203,9.3996,9.3586,9.3586,9.3586,9.3586,9.3586,9.3586,9.3586,9.3586,9.3586,9.3586,9.3586,9.3586,9.3586,9.3586,9.3586,9.3586,9.3586,9.3586,9.3586,9.3586,9.3586,9.3586,9.3586,9.3586,9.3586,9.3586,9.3586,9.3586,9.3586,9.3586,9.3586,9.3586,9.3586,9.3586,9.3586,9.3586,9.3586,9.3586,9.3586,9.3586,9.3586,9.3586,9.3586,0.0,0.0,0.0,5.3671,5.6218,5.8609,5.9438,6.7267,7.4506,7.5162,8.0849,8.5895,8.6447,8.635,8.6491,8.7198,8.8312,8.9066,8.9066,8.9114,8.9114,8.91,8.91,8.9404,9.0154,9.0865,9.1609,9.2373,9.3098,9.3518,9.3586,9.3586,9.3586,9.3586,9.3586,9.3586,9.3586,9.3586,9.3586,9.3586,9.3586,9.3586,9.3586,9.3586,9.3586,9.3586,9.3586,9.3586,9.3586,9.3586,9.3586,9.3586,9.3586,9.3586,9.3586,9.3586,9.3586,9.3586,9.3586,9.4079,9.4673,9.4673,9.4706,9.4691,9.4714,9.4203,9.3634,9.362,9.3586,9.3586,9.3586,9.3586,9.3586,9.3586,9.3586,9.3586,9.3586,9.3586,9.3586,9.3586,9.3586,9.3586,9.3586,9.3586,9.3586,9.3586,9.3586,9.3586,9.3586,9.3586,9.3586,9.3586,9.3586,9.3586,9.3586,9.3586,9.3586,9.3586,9.3586,9.3586,9.3586,9.3586,9.3586,9.3586,9.3586,9.3586,9.3586,9.3586,9.3586,9.3586,9.3586,9.3586,4.9405,0.0,0.0,0.0,0.0,0.0,5.9442,6.4211,6.8935,7.1964,7.748,8.2379,8.4345,8.6118,8.7409,8.7799,8.8292,8.8592,8.8592,8.928,8.9662,8.9407,8.9379,8.9804,9.0879,9.1169,9.1846,9.3165,9.1947,9.1846,9.3518,9.3586,9.3586,9.3586,9.3586,9.3586,9.3586,9.3586,9.3586,9.3586,9.3586,9.3586,9.3586,9.3586,9.3586,9.3586,9.3586,9.3586,9.3586,9.3586,9.3586,9.3586,9.3586,9.3586,9.3586,9.3586,9.3586,9.3586,9.3586,9.3721,9.3977,9.4552,9.4706,9.4691,9.4714,9.4563,9.4271,9.3765,9.3586,9.3586,9.3586,9.3586,9.3586,9.3586,9.3586,9.3586,9.3586,9.3586,9.3586,9.3586,9.3586,9.3586,9.3586,9.3586,9.3586,9.3586,9.3586,9.3586,9.3586,9.3586,9.3586,9.3586,9.3586,9.3586,9.3586,9.3586,9.3586,9.3586,9.3586,9.3586,9.3586,9.3586,9.3586,9.3586,9.3586,9.3586,9.3586,9.3586,9.3586,9.3586,9.3586,9.3586,4.9969,5.1065,5.2513,5.3728,0.0,0.0,5.8677,6.3836,6.8997,7.226,7.8076,8.2771,8.3405,8.4283,8.5066,8.5655,8.6122,8.6899,8.8347,8.9117,8.9492,8.9497,8.949,8.9854,9.0758,9.0831,9.1474,9.2996,9.1865,9.1846,9.3518,9.3586,9.3586,9.3586,9.3586,9.3586,9.3586,9.3586,9.3586,9.3586,9.3586,9.3586,9.3586,9.3586,9.3586,9.3586,9.3586,9.3586,9.3586,9.3586,9.3586,9.3586,9.3586,9.3586,9.3586,9.3586,9.3586,9.3586,9.3586,9.3988,9.4593,9.5007,9.5364,9.562,9.5634,9.5386,9.5067,9.4651,9.4504,9.4507,9.4518,9.4533,9.4533,9.4533,9.4296,9.4045,9.4045,9.3823,9.3586,9.3586,9.3586,9.3586,9.3586,9.3586,9.3586,9.3586,9.3586,9.3586,9.3586,9.3586,9.3586,9.3586,9.3586,9.3586,9.3586,9.3586,9.3586,9.3586,9.3586,9.3586,9.3586,9.3586,9.3586,9.3586,9.3267,9.2928,9.2638,9.3281,9.3586,9.3586,9.3586,9.3586,5.0417,5.1272,5.2513,5.321,5.4452,0.0,5.7314,6.3979,7.0601,7.3236,7.9062,8.3336,8.2211,8.106,8.0601,8.1737,8.246,8.418,8.7822,8.8732,8.9048,8.9164,8.9409,8.9794,9.0372,9.0377,9.0884,9.229,9.2339,9.2624,9.3461,9.3499,9.3533,9.363,9.3601,9.3586,9.3586,9.3586,9.3586,9.3586,9.3586,9.3586,9.3586,9.3687,9.3736,9.3717,9.3818,9.3837,9.3837,9.3837,9.3804,9.3721,9.3721,9.3789,9.3808,9.3734,9.3719,9.3704,9.363,9.453,9.5699,9.5762,9.63,9.6905,9.6893,9.6455,9.5896,9.5807,9.5807,9.5818,9.5823,9.5804,9.5804,9.5804,9.5296,9.4823,9.4706,9.418,9.3687,9.362,9.3586,9.3586,9.3586,9.3586,9.3586,9.3586,9.3586,9.3586,9.3586,9.3586,9.3586,9.3586,9.3586,9.3586,9.3586,9.3586,9.3586,9.3586,9.3586,9.3586,9.3586,9.3586,9.3586,9.3586,9.2895,9.217,9.144,9.2706,9.3383,9.3484,9.3484,9.3518,5.1824,5.2444,5.321,5.3356,5.4073,0.0,5.5823,5.7943,6.1013,6.5738,6.8354,7.117,7.5638,7.625,7.6538,7.7983,7.8339,8.0106,8.4926,8.8376,8.9582,8.7348,8.8755,9.0458,9.1841,9.144,9.144,9.2324,9.1831,9.1961,9.2967,9.2789,9.3031,9.3903,9.3718,9.3586,9.3586,9.3586,9.3586,9.3586,9.3586,9.3586,9.362,9.4214,9.4506,9.4518,9.5103,9.5378,9.5378,9.5378,9.5014,9.4485,9.4485,9.4857,9.5304,9.4709,9.4476,9.4399,9.3888,9.4243,9.5025,9.5663,9.6337,9.6905,9.6893,9.6822,9.6546,9.5948,9.5803,9.5807,9.5804,9.5804,9.5804,9.5804,9.5702,9.5432,9.4808,9.4571,9.4315,9.3721,9.3586,9.3586,9.3586,9.3586,9.3586,9.3586,9.3586,9.3586,9.3586,9.3586,9.3586,9.3586,9.3586,9.3586,9.3586,9.3586,9.3586,9.3586,9.3586,9.3586,9.3586,9.3586,9.3586,9.3586,9.3451,9.2962,9.217,9.188,9.2049,9.2643,9.2643,9.2996,5.3341,5.3383,5.3494,5.3866,5.4245,0.0,0.0,5.7694,6.0504,6.3531,6.6265,6.8714,7.0591,7.097,7.1453,7.3015,7.3567,7.4834,7.7743,8.3707,8.7873,8.8193,8.9512,9.0443,9.0738,9.0425,9.0493,9.1256,9.1448,9.1789,9.2319,9.2665,9.3096,9.3628,9.3763,9.3806,9.3806,9.3659,9.3586,9.3586,9.3977,9.4146,9.418,9.4916,9.5262,9.5249,9.5634,9.5796,9.5804,9.5804,9.5698,9.5528,9.5323,9.5466,9.571,9.5207,9.4871,9.4635,9.4138,9.4544,9.5342,9.5781,9.6599,9.7446,9.744,9.7443,9.7357,9.6997,9.6908,9.6886,9.6886,9.6886,9.6886,9.6886,9.6616,9.6259,9.5872,9.5634,9.5279,9.4499,9.4481,9.4393,9.3712,9.3586,9.3586,9.3586,9.3586,9.3586,9.3586,9.3586,9.3586,9.3586,9.3586,9.3586,9.3586,9.3586,9.3586,9.3586,9.3586,9.3586,9.3586,9.3199,9.2658,9.1913,9.188,9.1508,9.0763,9.0391,9.1184,9.2996,9.2996,9.3199,5.5211,5.4486,5.3969,5.4555,5.4624,5.4659,0.0,0.0,0.0,6.191,6.4989,6.7093,6.5541,6.5368,6.5782,6.6758,6.799,6.9197,7.0059,7.693,8.3065,8.64,8.7577,8.794,8.7477,8.8335,8.9323,9.0309,9.1251,9.1804,9.186,9.2651,9.3139,9.331,9.3775,9.3976,9.3918,9.3718,9.3687,9.3823,9.4417,9.4774,9.4958,9.5672,9.6022,9.6037,9.6154,9.6141,9.6046,9.6046,9.6146,9.628,9.6003,9.5972,9.5967,9.5583,9.5189,9.4782,9.4363,9.4888,9.5714,9.588,9.6844,9.7987,9.7987,9.7987,9.7987,9.7987,9.8049,9.8095,9.8095,9.8141,9.8187,9.8187,9.7728,9.7269,9.7133,9.6835,9.6367,9.557,9.5624,9.5365,9.4019,9.3762,9.3762,9.3762,9.3762,9.3762,9.3762,9.3762,9.3762,9.3762,9.3762,9.3747,9.3674,9.3674,9.3645,9.3586,9.3451,9.3383,9.3383,9.2609,9.1561,9.0242,9.0343,9.0053,8.9323,8.9458,9.071,9.2943,9.3078,9.3315,5.7702,5.6452,5.5375,5.5444,5.4969,5.4521,5.4624,0.0,5.5624,5.6349,0.0,5.7625,5.8728,0.0,0.0,5.8392,6.1125,6.3885,6.529,6.8983,7.2499,7.5,7.738,7.9522,8.1287,8.5526,8.897,9.1,9.1571,9.1888,9.2155,9.2265,9.2607,9.3262,9.3775,9.3908,9.3645,9.3601,9.3924,9.4586,9.4639,9.5045,9.5702,9.6443,9.6778,9.679,9.7458,9.7415,9.6855,9.6855,9.6501,9.598,9.6218,9.6539,9.6798,9.6142,9.5672,9.5227,9.4593,9.4659,9.511,9.5721,9.6835,9.7987,9.7987,9.7987,9.7987,9.7987,9.8218,9.8447,9.8447,9.8644,9.8889,9.8889,9.8821,9.8597,9.793,9.7769,9.7477,9.6677,9.6569,9.6111,9.4638,9.4385,9.4385,9.4385,9.4385,9.4385,9.4385,9.4385,9.4385,9.4385,9.4385,9.4285,9.3976,9.3947,9.383,9.3601,9.2928,9.2542,9.2542,9.1812,9.1034,9.0208,9.0831,9.0797,9.0087,9.0729,9.0899,9.0594,9.1271,9.23,6.3427,6.2737,6.1461,6.1013,6.0323,5.9668,5.9219,5.7081,5.5099,5.4996,0.0,0.0,0.0,0.0,0.0,0.0,5.8504,6.0047,6.0668,6.2286,6.6048,7.3181,7.5515,7.7861,8.1283,8.2345,8.412,8.7164,8.7851,8.8175,8.8295,9.1117,9.2859,9.3155,9.3893,9.4241,9.4111,9.4188,9.4383,9.4706,9.5567,9.6157,9.6462,9.7191,9.7332,9.6963,9.7301,9.7021,9.6343,9.6343,9.6051,9.5623,9.575,9.6172,9.6681,9.6391,9.605,9.564,9.4924,9.4924,9.5309,9.6017,9.7319,9.8522,9.8114,9.8257,9.8587,9.8584,9.8659,9.8799,9.8799,9.8905,9.8994,9.8994,9.8994,9.8926,9.8599,9.8695,9.8588,9.777,9.7793,9.758,9.6549,9.5666,9.5012,9.4554,9.4485,9.4485,9.4485,9.4485,9.4485,9.4485,9.4485,9.4443,9.4313,9.4299,9.4241,9.4126,9.3239,9.2237,9.1169,9.0817,9.0324,8.9593,8.9864,9.0087,9.0208,9.0527,9.0729,9.0865,9.2049,9.3199,6.8777,6.8391,6.6955,6.5667,6.4782,6.3712,6.1712,5.8625,5.5969,5.5004,5.4797,0.0,0.0,0.0,0.0,0.0,0.0,5.7314,5.6452,5.7404,6.1262,6.9581,7.3021,7.5885,7.8939,7.9771,8.1055,8.3298,8.521,8.6145,8.5827,9.0557,9.3167,9.2845,9.3926,9.4516,9.4548,9.4639,9.4819,9.5025,9.6303,9.6911,9.693,9.7596,9.762,9.7136,9.704,9.6571,9.5935,9.5935,9.5673,9.5274,9.5375,9.5673,9.6066,9.6066,9.5903,9.5607,9.5092,9.5176,9.5673,9.618,9.7323,9.8391,9.8101,9.8196,9.8527,9.8885,9.8935,9.892,9.9099,9.9203,9.9263,9.9263,9.9263,9.9263,9.9263,9.9455,9.9445,9.8861,9.8946,9.8863,9.8138,9.6976,9.5989,9.5475,9.5372,9.5372,9.5372,9.5372,9.5372,9.5372,9.5372,9.533,9.5244,9.5229,9.5098,9.4822,9.3784,9.2525,9.1008,9.0671,9.0256,8.9695,8.9695,8.9966,9.0493,9.0493,9.0899,9.1643,9.2759,9.3774,7.2573,7.1829,7.0045,6.7537,6.6368,6.4481,5.9254,5.7935,5.7383,5.59,5.5547,5.534,0.0,0.0,0.0,0.0,0.0,0.0,0.0,5.4961,5.7797,6.0349,6.6996,7.1289,7.1169,7.8214,8.2174,8.0739,8.539,8.7796,8.6634,9.1158,9.3284,9.2245,9.3714,9.4573,9.4683,9.4687,9.5081,9.5875,9.6561,9.6935,9.6999,9.7346,9.7487,9.7474,9.7143,9.6634,9.6001,9.6001,9.5557,9.4942,9.5259,9.5209,9.4942,9.4942,9.4925,9.4925,9.4891,9.5375,9.5985,9.6001,9.6508,9.7185,9.7789,9.7559,9.7327,9.8637,9.875,9.8659,9.9322,9.967,9.9854,9.9854,9.9854,9.9854,9.9854,9.9869,9.9869,9.9834,9.9849,9.9622,9.8897,9.8124,9.7627,9.7593,9.7593,9.7593,9.7593,9.7593,9.7593,9.7593,9.7593,9.7479,9.715,9.7121,9.6678,9.5617,9.4568,9.3631,9.2863,9.1816,9.1237,9.1237,9.1237,9.1237,9.1271,9.1271,9.1643,9.2373,9.2426,9.3252,7.647,7.6362,7.555,7.5536,7.3063,7.0399,6.9381,6.4462,5.9737,5.8219,5.7487,0.0,0.0,0.0,0.0,0.0,0.0,0.0,0.0,5.4976,5.6191,5.7056,6.0915,6.4801,6.8046,7.0278,7.2723,7.5637,7.8169,7.9858,8.0433,8.6581,9.0147,9.0288,9.3026,9.4761,9.5273,9.5161,9.548,9.6239,9.7178,9.741,9.7016,9.7583,9.7348,9.6488,9.6392,9.5919,9.5275,9.5275,9.5128,9.4931,9.5011,9.4992,9.4908,9.5142,9.5226,9.5226,9.5226,9.5541,9.5903,9.5689,9.652,9.762,9.738,9.7492,9.776,9.8221,9.8535,9.8802,9.9061,9.9504,9.9898,9.9898,9.9898,9.9898,9.9898,9.9898,9.9898,9.9898,9.9898,9.9814,9.9587,9.9311,9.8828,9.7828,9.769,9.769,9.769,9.769,9.769,9.769,9.769,9.7648,9.7534,9.7534,9.6855,9.53,9.4645,9.3691,9.2232,9.1612,9.1305,9.1305,9.1305,9.1541,9.2034,9.2034,9.2421,9.3199,9.3199,9.374,7.9395,7.9755,7.9321,7.9238,7.7031,7.4889,7.5016,7.0485,6.6075,6.5343,6.4759,6.3273,0.0,0.0,0.0,0.0,0.0,0.0,0.0,5.4783,5.5043,5.5187,5.8778,6.2146,6.443,6.6341,6.8517,7.1128,7.3809,7.5883,7.7223,8.4147,8.8421,8.9135,9.2342,9.459,9.5633,9.5428,9.5619,9.6266,9.7191,9.7285,9.6649,9.7222,9.7,9.6181,9.6051,9.5739,9.5292,9.5292,9.5277,9.5293,9.5293,9.5209,9.5076,9.5176,9.5292,9.5425,9.5541,9.5739,9.5903,9.5656,9.6391,9.7254,9.7048,9.7127,9.738,9.7864,9.8107,9.8334,9.8787,9.9219,9.9621,9.984,9.9898,9.9898,9.9898,9.9898,9.9898,9.9898,9.9898,9.9898,9.9898,9.9898,9.9587,9.8621,9.8483,9.8483,9.8483,9.8483,9.8483,9.8483,9.8242,9.8069,9.8069,9.8311,9.7803,9.6266,9.5609,9.459,9.3082,9.244,9.1981,9.1711,9.1981,9.2218,9.2392,9.2677,9.3098,9.3586,9.3586,9.3857]},{"header":{"parameterUnit":"m.s-1","parameterCategory":1,"la1":30.6,"la2":29.2853,"lo1":-89.7004,"lo2":-87.6739,"dx":0.0162,"dy":0.0183,"nx":112,"ny":82,"refTime":"2022-11-15T18:00:00:Z","depth":0,"parameterNumber":3,"parameterNumberName":"V-component_of_WINDS"},"data":[0.0,0.0,0.0,0.0,0.0,0.0,0.0,0.0,0.0,0.0,0.0,0.0,0.0,0.0,0.0,0.0,0.0,0.0,0.0,0.0,0.0,0.0,0.0,0.0,0.0,0.0,0.0,0.0,0.0,0.0,0.0,0.0,0.0,0.0,0.0,0.0,0.0,0.0,0.0,0.0,0.0,0.0,0.0,0.0,0.0,0.0,0.0,0.0,0.0,0.0,0.0,0.0,0.0,0.0,0.0,0.0,0.0,0.0,0.0,0.0,0.0,0.0,0.0,0.0,0.0,0.0,0.0,0.0,0.0,0.0,0.0,0.0,0.0,0.0,0.0,0.0,0.0,0.0,0.0,0.0,0.0,0.0,0.0,0.0,0.0,0.0,0.0,0.0,0.0,0.0,1.0701,1.2149,1.2887,1.3403,1.3716,1.3755,1.3022,1.135,0.0,0.0,0.0,0.0,0.0,0.0,0.0,0.0,0.0,0.0,0.0,0.0,0.0,0.0,0.0,0.0,0.0,0.0,0.0,0.0,0.0,0.0,0.0,0.0,0.0,0.0,0.0,0.0,0.0,0.0,0.0,0.0,0.0,0.0,0.0,0.0,0.0,0.0,0.0,0.0,0.0,0.0,0.0,0.0,0.0,0.0,0.0,0.0,0.0,0.0,0.0,0.0,0.0,0.0,0.0,0.0,0.0,0.0,0.0,0.0,0.0,0.0,0.0,0.0,0.0,0.0,0.0,0.0,0.0,0.0,0.0,0.0,0.0,0.0,0.0,0.0,0.0,0.0,0.0,0.0,0.0,0.0,0.0,0.0,0.0,0.0,0.0,0.0,0.0,0.0,0.0,0.0,0.0,0.0,0.0,0.0,0.0,0.0,0.0,0.0,0.0,0.0,0.0,0.0,1.3322,1.5294,1.4379,1.3714,1.3948,1.3942,1.3234,1.1564,0.0,0.0,0.0,0.0,0.0,0.0,0.0,0.0,0.0,0.0,0.0,0.0,0.0,0.0,0.0,0.0,0.0,0.0,0.0,0.0,0.0,0.0,0.0,0.0,0.0,0.0,0.0,0.0,0.0,0.0,0.0,0.0,0.0,0.0,0.0,0.0,0.0,0.0,0.0,0.0,0.0,0.0,0.0,0.0,0.0,0.0,0.0,0.0,0.0,0.0,0.0,0.0,0.0,0.0,0.0,0.0,0.0,0.0,0.0,0.0,0.0,0.0,0.0,0.0,0.0,0.0,0.0,0.0,0.0,0.0,0.0,0.0,0.0,0.0,0.0,0.0,0.0,0.0,0.0,0.0,0.0,0.0,0.0,0.0,0.0,0.0,0.0,0.0,0.0,0.0,0.0,0.0,0.0,0.0,0.0,0.0,0.0,0.0,0.0,0.0,0.0,0.0,0.0,1.3393,1.4923,1.4998,1.5105,1.4846,1.4076,1.4093,1.3395,1.1608,1.1132,0.0,0.0,0.0,0.0,0.0,0.0,0.0,0.0,0.0,0.0,0.0,0.0,0.0,0.0,0.0,0.0,0.0,0.0,0.0,0.0,0.0,0.0,0.0,0.0,0.0,0.0,0.0,0.0,0.0,0.0,0.0,0.0,0.0,0.0,0.0,0.0,0.0,0.0,0.0,0.0,0.0,0.0,0.0,0.0,0.0,0.0,0.0,0.0,0.0,0.0,0.0,0.0,0.0,0.0,0.0,0.0,0.0,0.0,0.0,0.0,0.0,0.0,0.0,0.0,0.0,0.0,0.0,0.0,0.0,0.0,0.0,0.0,0.0,0.0,0.0,0.0,0.0,0.0,0.0,0.0,0.0,0.0,0.0,0.0,0.0,0.0,0.0,0.0,0.0,0.0,0.0,0.0,0.0,0.0,0.0,0.0,0.0,0.0,0.0,0.0,0.0,0.0,1.5497,1.6429,1.5647,1.6358,1.6272,1.479,1.4788,1.3921,1.1709,1.1435,0.0,0.0,0.0,0.0,0.0,0.0,0.0,0.0,0.0,0.0,0.0,0.0,0.0,0.0,0.0,0.0,0.0,0.0,0.0,0.0,0.0,0.0,0.0,0.0,0.0,0.0,0.0,0.0,0.0,0.0,0.0,0.0,0.0,0.0,0.0,0.0,0.0,0.0,0.0,0.0,0.0,0.0,0.0,0.0,0.0,0.0,0.0,0.0,0.0,0.0,0.0,0.0,0.0,0.0,0.0,0.0,0.0,0.0,0.0,0.0,0.0,0.0,0.0,0.0,0.0,0.0,0.0,0.0,0.0,0.0,0.0,0.0,0.0,0.0,0.0,0.0,0.0,0.0,0.0,0.0,0.0,0.0,0.0,0.0,0.0,0.0,0.0,0.0,0.0,0.0,0.0,0.0,0.0,0.0,0.0,0.0,0.0,0.0,0.0,0.0,0.0,0.0,1.6764,1.8332,1.9958,1.9003,1.7812,1.6691,1.656,1.516,1.1982,1.1771,0.0,0.0,0.0,0.0,0.0,0.0,0.0,0.0,0.0,0.0,0.0,0.0,0.0,0.0,0.0,0.0,0.0,0.0,0.0,0.0,0.0,0.0,0.0,0.0,0.0,0.0,0.0,0.0,0.0,0.0,0.0,0.0,0.0,0.0,0.0,0.0,0.0,0.0,0.0,0.0,0.0,0.0,0.0,0.0,0.0,0.0,0.0,0.0,0.0,0.0,0.0,0.0,0.0,0.0,0.0,0.0,0.0,0.0,0.0,0.0,0.0,0.0,0.0,0.0,0.0,0.0,0.0,0.0,0.0,0.0,0.0,0.0,0.0,0.0,0.0,0.0,0.0,0.0,0.0,0.0,0.0,0.0,0.0,0.0,0.0,0.0,0.0,0.0,0.0,0.0,0.0,0.0,0.0,0.0,0.0,0.0,0.0,0.0,0.0,0.0,0.0,0.0,1.8561,1.9825,1.9742,1.9942,1.927,1.7224,1.773,1.6385,1.2253,0.0,0.0,0.0,0.0,0.0,0.0,0.0,0.0,0.0,0.0,0.0,0.0,0.0,0.0,0.0,0.0,0.0,0.0,0.0,0.0,0.0,0.0,0.0,0.0,0.0,0.0,0.0,0.0,0.0,0.0,0.0,0.0,0.0,0.0,0.0,0.0,0.0,0.0,0.0,0.0,0.0,0.0,0.0,0.0,0.0,0.0,0.0,0.0,0.0,0.0,0.0,0.0,0.0,0.0,0.0,0.0,0.0,0.0,0.0,0.0,0.0,0.0,0.0,0.0,0.0,0.0,0.0,0.0,0.0,0.0,0.0,0.0,0.0,0.0,0.0,0.0,0.0,0.0,0.0,0.0,0.0,0.0,0.0,0.0,0.0,0.0,0.0,0.0,0.0,0.0,0.0,0.0,0.0,0.0,0.0,0.0,0.0,0.0,0.0,0.0,0.0,0.0,1.6765,1.9647,2.1232,2.0358,2.1232,2.0942,1.8653,1.9301,1.7823,1.316,0.0,0.0,0.0,0.0,0.0,0.0,0.0,0.0,0.0,0.0,0.0,0.0,0.0,0.0,0.0,0.0,0.0,0.0,0.0,0.0,0.0,0.0,0.0,0.0,0.0,0.0,0.0,0.0,0.0,0.0,0.0,0.0,0.0,0.0,0.0,0.0,0.0,0.0,0.0,0.0,0.0,0.0,0.0,0.0,0.0,0.0,0.0,0.0,0.0,0.0,0.0,0.0,0.0,0.0,0.0,0.0,0.0,0.0,0.0,0.0,0.0,0.0,0.0,0.0,0.0,0.0,0.0,0.0,0.0,0.0,0.0,0.0,0.0,0.0,0.0,0.0,0.0,0.0,0.0,0.0,0.0,0.0,0.0,0.0,0.0,0.0,0.0,0.0,0.0,0.0,0.0,0.0,0.0,0.0,0.0,0.0,0.0,0.0,0.0,0.0,0.0,0.0,1.6036,1.9834,2.2612,2.2612,2.3152,2.2886,2.134,2.1459,1.9589,0.0,0.0,0.0,0.0,0.0,0.0,0.0,0.0,0.0,0.0,0.0,0.0,0.0,0.0,0.0,0.0,0.0,0.0,0.0,0.0,0.0,0.0,0.0,0.0,0.0,0.0,0.0,0.0,0.0,0.0,0.0,0.0,0.0,0.0,0.0,0.0,0.0,0.0,0.0,0.0,0.0,0.0,0.0,0.0,0.0,0.0,0.0,0.0,0.0,0.0,0.0,0.0,0.0,0.0,0.0,0.0,0.0,0.0,0.0,0.0,0.0,0.0,0.0,0.0,0.0,0.0,0.0,0.0,0.0,0.0,0.0,0.0,0.0,0.0,0.0,0.0,0.0,0.0,0.0,0.0,0.0,0.0,0.0,0.0,0.0,0.0,0.0,0.0,0.0,0.0,0.0,0.0,0.0,0.0,0.0,0.0,0.0,0.0,0.0,0.0,0.0,0.0,0.0,1.7831,2.0644,2.2974,2.3905,2.3658,2.3076,2.2193,2.2575,2.0829,1.607,0.0,0.0,0.0,0.0,0.0,0.0,0.0,0.0,0.0,0.0,0.0,0.0,0.0,0.0,0.0,0.0,0.0,0.0,0.0,0.0,0.0,0.0,0.0,0.0,0.0,0.0,0.0,0.0,0.0,0.0,0.0,0.0,0.0,0.0,0.0,0.0,0.0,0.0,0.0,0.0,0.0,0.0,0.0,0.0,0.0,0.0,0.0,0.0,0.0,0.0,0.0,0.0,0.0,0.0,0.0,0.0,0.0,0.0,0.0,0.0,0.0,0.0,0.0,0.0,0.0,0.0,0.0,0.0,0.0,0.0,0.0,0.0,0.0,0.0,0.0,0.0,0.0,0.0,0.0,0.0,0.0,0.0,0.0,0.0,0.0,0.0,0.0,0.0,0.0,0.0,0.0,0.0,0.0,0.0,0.0,0.0,0.0,0.0,0.0,0.0,0.0,0.0,1.832,2.0904,2.3034,2.3845,2.3811,2.355,2.3067,2.3365,2.1989,1.8208,0.0,0.0,0.0,0.0,0.0,0.0,0.0,0.0,0.0,0.0,0.0,0.0,0.0,0.0,0.0,0.0,0.0,0.0,0.0,0.0,0.0,0.0,0.0,0.0,0.0,0.0,0.0,0.0,0.0,0.0,0.0,0.0,0.0,0.0,0.0,0.0,0.0,0.0,0.0,0.0,0.0,0.0,0.0,0.0,0.0,0.0,0.0,0.0,0.0,0.0,0.0,0.0,0.0,0.0,0.0,0.0,0.0,0.0,0.0,0.0,0.0,0.0,0.0,0.0,0.0,0.0,0.0,0.0,0.0,0.0,0.0,0.0,0.0,0.0,0.0,0.0,0.0,0.0,0.0,0.0,0.0,0.0,0.0,0.0,0.0,0.0,0.0,0.0,0.0,0.0,0.0,0.0,0.0,0.0,0.0,0.0,0.0,0.0,0.0,0.0,0.0,0.0,1.8021,2.0854,2.2964,2.3077,2.3794,2.418,2.3911,2.3918,2.301,2.0809,0.0,0.0,0.0,0.0,0.0,0.0,0.0,0.0,0.0,0.0,0.0,0.0,0.0,0.0,0.0,0.0,0.0,0.0,0.0,0.0,0.0,0.0,0.0,0.0,0.0,0.0,0.0,0.0,0.0,0.0,0.0,0.0,0.0,0.0,0.0,0.0,0.0,0.0,0.0,0.0,0.0,0.0,0.0,0.0,0.0,0.0,0.0,0.0,0.0,0.0,0.0,0.0,0.0,0.0,0.0,0.0,0.0,0.0,0.0,0.0,1.578,1.4084,0.0,0.0,0.0,0.0,0.0,0.0,0.0,0.0,0.0,0.0,0.0,0.0,0.0,0.0,0.0,0.0,0.0,0.0,0.0,0.0,0.0,0.0,0.0,0.0,0.0,0.0,0.0,0.0,0.0,0.0,0.0,0.0,0.0,0.0,0.0,0.0,0.0,0.0,0.0,0.0,1.8861,2.1385,2.3523,2.4319,2.4299,2.4309,2.4583,2.43,2.3523,2.2094,2.1452,0.0,0.0,0.0,0.0,0.0,0.0,0.0,0.0,0.0,0.0,0.0,0.0,0.0,0.0,0.0,0.0,0.0,0.0,0.0,0.0,0.0,0.0,0.0,0.0,0.0,0.0,0.0,0.0,0.0,0.0,0.0,0.0,0.0,0.0,0.0,0.0,0.0,0.0,0.0,0.0,0.0,0.0,0.0,0.0,0.0,0.0,0.0,0.0,0.0,0.0,0.0,0.0,0.0,0.0,0.0,0.0,0.0,0.0,0.0,1.7355,1.6339,0.0,0.0,0.0,0.0,0.0,0.0,0.0,0.0,0.0,0.0,0.0,0.0,0.0,0.0,0.0,0.0,0.0,0.0,0.0,0.0,0.0,0.0,0.0,0.0,0.0,0.0,0.0,0.0,0.0,0.0,0.0,0.0,0.0,0.0,0.0,0.0,0.0,0.0,0.0,0.0,1.9862,2.2121,2.3933,2.4461,2.444,2.4482,2.4688,2.4384,2.3928,2.3303,2.2561,0.0,0.0,0.0,0.0,0.0,0.0,0.0,0.0,0.0,0.0,0.0,0.0,0.0,0.0,0.0,0.0,0.0,0.0,0.0,0.0,0.0,0.0,0.0,0.0,0.0,0.0,0.0,0.0,0.0,0.0,0.0,0.0,0.0,0.0,0.0,0.0,0.0,0.0,0.0,0.0,0.0,0.0,0.0,0.0,0.0,0.0,0.0,0.0,0.0,0.0,0.0,0.0,0.0,1.9654,1.9349,1.9134,1.9634,1.9591,1.9135,1.947,1.9276,1.8651,1.7702,0.0,0.0,0.0,0.0,0.0,0.0,0.0,0.0,0.0,0.0,0.0,0.0,0.0,0.0,0.0,0.0,0.0,0.0,0.0,0.0,0.0,0.0,2.0573,2.0876,2.0424,1.9003,1.5617,0.0,0.0,0.0,0.0,0.0,0.0,0.0,0.0,0.0,0.0,0.0,2.0902,2.2926,2.4356,2.4356,2.4604,2.4746,2.4746,2.4511,2.4356,2.4356,2.3321,2.2368,0.0,0.0,0.0,0.0,0.0,0.0,0.0,0.0,0.0,0.0,0.0,0.0,0.0,0.0,0.0,0.0,0.0,0.0,0.0,0.0,0.0,0.0,0.0,0.0,0.0,0.0,0.0,0.0,0.0,0.0,0.0,0.0,1.7497,2.0144,0.0,0.0,0.0,0.0,0.0,0.0,0.0,0.0,0.0,0.0,0.0,0.0,0.0,2.3414,2.1325,2.271,2.2335,2.0201,2.235,2.273,2.162,2.4132,2.3911,2.1628,2.3323,0.0,1.9639,1.9718,0.0,0.0,0.0,0.0,0.0,0.0,0.0,0.0,0.0,0.0,0.0,0.0,0.0,0.0,0.0,0.0,0.0,0.0,0.0,0.0,0.0,0.0,2.2893,2.3048,2.1724,2.0622,2.1459,1.9591,1.8415,2.0583,1.982,1.8482,0.0,0.0,0.0,0.0,0.0,0.0,2.1753,2.3679,2.4975,2.4975,2.5224,2.5379,2.5379,2.513,2.4975,2.4975,2.4338,2.3442,2.2331,2.2769,0.0,0.0,0.0,0.0,0.0,0.0,0.0,0.0,0.0,0.0,0.0,0.0,0.0,0.0,0.0,0.0,0.0,0.0,0.0,0.0,0.0,0.0,0.0,0.0,0.0,0.0,0.0,0.0,0.0,1.6851,1.8622,2.2036,2.1654,2.0971,0.0,0.0,0.0,0.0,0.0,0.0,0.0,0.0,0.0,2.4694,2.5526,2.568,2.506,2.5678,2.5881,2.5657,2.619,2.6051,2.5366,2.6615,2.6438,2.5148,2.6147,2.5238,2.2994,2.2211,2.1351,2.0468,0.0,0.0,0.0,0.0,1.8156,1.8503,1.8637,1.9358,2.0267,2.043,0.0,0.0,0.0,0.0,0.0,0.0,0.0,2.032,1.8676,2.1147,2.4046,2.4105,2.3267,2.2723,2.3639,2.2843,2.1536,2.0185,2.1215,2.1847,2.033,2.0052,0.0,0.0,0.0,2.2495,2.2957,2.4227,2.5163,2.5304,2.5438,2.5499,2.5499,2.5398,2.5317,2.5317,2.5077,2.4826,2.459,2.408,2.292,0.0,0.0,0.0,0.0,0.0,0.0,0.0,0.0,0.0,0.0,0.0,0.0,0.0,0.0,0.0,0.0,0.0,0.0,0.0,0.0,0.0,0.0,0.0,0.0,0.0,0.0,0.0,0.0,1.9507,2.0669,2.4049,2.3847,2.3387,0.0,0.0,0.0,0.0,0.0,0.0,2.6871,2.6926,2.6903,2.6872,2.7482,2.7924,2.8128,2.8128,2.8559,2.9378,2.9036,2.866,2.8316,2.9059,2.8993,2.8294,2.8859,2.8027,2.6177,2.4568,2.3079,2.179,2.1793,2.1376,2.0731,2.0504,2.057,2.0786,2.0866,2.1614,2.2565,2.2645,2.2475,2.2168,2.1857,0.0,0.0,0.0,0.0,2.0932,2.161,2.319,2.4641,2.4861,2.4524,2.4243,2.4541,2.4602,2.3402,1.9288,2.1929,2.4421,2.3126,2.2358,0.0,2.1002,2.2335,2.3567,2.3941,2.4953,2.5695,2.5892,2.615,2.6289,2.6289,2.6241,2.614,2.6073,2.6107,2.6158,2.6251,2.5363,2.457,2.3952,0.0,0.0,0.0,0.0,0.0,0.0,0.0,0.0,0.0,0.0,0.0,0.0,0.0,0.0,0.0,0.0,0.0,0.0,0.0,0.0,0.0,0.0,0.0,0.0,0.0,0.0,0.0,0.0,0.0,2.6756,2.8286,0.0,0.0,0.0,0.0,2.7027,2.7027,2.7761,2.9335,2.9427,3.0112,3.1624,3.1699,3.113,2.9875,3.0188,2.9547,2.8017,2.9614,3.0021,2.9425,3.2164,3.2294,3.0427,3.1776,3.0766,2.8039,2.6506,2.4988,2.3589,2.2699,2.2335,2.2188,2.136,2.1574,2.2335,2.2649,2.3344,2.4142,2.4391,2.3741,2.2639,2.1496,2.1325,0.0,0.0,2.1627,2.3593,2.5573,2.5349,2.4791,2.5569,2.5144,2.4577,2.4609,2.4607,2.3883,2.1402,2.3384,2.5431,2.5336,0.0,2.2813,2.2773,2.3348,2.3955,2.4479,2.5995,2.6997,2.701,2.7877,2.8433,2.8433,2.8207,2.7933,2.7619,2.7699,2.7286,2.6153,2.6473,2.6003,2.4579,2.3661,0.0,0.0,0.0,0.0,0.0,0.0,0.0,0.0,0.0,0.0,0.0,0.0,0.0,0.0,0.0,0.0,0.0,0.0,0.0,0.0,0.0,0.0,0.0,0.0,0.0,0.0,0.0,0.0,2.7653,2.8476,0.0,2.8219,2.855,2.877,2.8748,2.9706,3.0644,3.1485,3.154,3.1781,3.2368,3.2386,3.2281,3.2063,3.2423,3.245,3.2105,3.3508,3.4022,3.3829,3.5382,3.5657,3.4961,3.5467,3.4544,3.2579,3.1516,2.8607,2.4758,2.4067,2.3812,2.3772,2.3483,2.3545,2.3852,2.42,2.4641,2.513,2.5611,2.5478,2.5069,2.4636,2.4601,2.4626,2.429,2.4719,2.5475,2.6207,2.5891,2.5503,2.6051,2.5374,2.4711,2.5101,2.5477,2.5518,2.4661,2.5043,2.551,2.5499,2.5693,2.559,2.4834,2.6023,2.7089,2.728,2.8093,2.8707,2.8882,2.9232,2.9327,2.9064,2.8779,2.8497,2.8296,2.8417,2.8523,2.8612,2.8271,2.7757,2.7056,2.5985,2.4296,0.0,0.0,0.0,0.0,0.0,0.0,0.0,0.0,0.0,0.0,0.0,0.0,0.0,0.0,0.0,0.0,0.0,0.0,0.0,0.0,0.0,0.0,0.0,0.0,0.0,2.4579,2.636,2.8733,2.9265,2.9522,2.9782,3.0073,3.0384,3.0772,3.1799,3.2571,3.2991,3.3138,3.3211,3.3211,3.334,3.3543,3.38,3.4354,3.4735,3.5013,3.6091,3.672,3.6968,3.7651,3.7942,3.7875,3.7856,3.7092,3.5773,3.4776,3.2154,2.8584,2.6949,2.5982,2.5485,2.558,2.5432,2.5232,2.5451,2.5651,2.5892,2.6373,2.66,2.6787,2.7182,2.7156,2.6968,2.6834,2.6754,2.6733,2.6777,2.6255,2.5872,2.6545,2.6242,2.5862,2.6067,2.6593,2.7011,2.7014,2.6986,2.6747,2.602,2.6774,2.7092,2.6031,2.7128,2.8133,2.8246,2.8841,2.9387,2.9795,3.0375,3.058,3.018,2.9714,2.9552,2.9725,2.9655,2.9847,3.0346,2.9403,2.8607,2.8033,2.6537,2.4972,2.3331,0.0,0.0,0.0,0.0,0.0,0.0,0.0,0.0,0.0,0.0,0.0,0.0,0.0,0.0,0.0,0.0,0.0,0.0,0.0,0.0,0.0,0.0,0.0,2.4373,2.6729,2.8902,3.013,3.0972,3.1742,3.2514,3.2606,3.279,3.3194,3.3214,3.3414,3.3818,3.4183,3.4385,3.4385,3.4788,3.5027,3.5027,3.5888,3.6317,3.6317,3.7153,3.7913,3.8527,3.9023,3.9109,3.8941,3.8853,3.8302,3.7363,3.5981,3.5383,3.5012,3.1234,2.8767,2.7363,2.7541,2.7116,2.6439,2.6419,2.6433,2.6519,2.6767,2.7101,2.7607,2.8771,2.8751,2.8209,2.7772,2.7524,2.7444,2.7662,2.6691,2.5958,2.714,2.7901,2.8152,2.7475,2.7913,2.841,2.8331,2.9252,2.9394,2.7283,2.7207,2.7207,2.642,2.6663,0.0,2.7352,2.8263,2.9115,2.9784,3.137,3.2249,3.1891,3.1233,3.1152,3.1975,3.1537,3.1204,3.1141,2.9843,2.8569,2.7386,2.5328,2.4842,2.5971,0.0,0.0,0.0,0.0,0.0,0.0,0.0,0.0,0.0,0.0,0.0,0.0,0.0,0.0,0.0,0.0,0.0,0.0,0.0,0.0,0.0,2.7008,2.8785,2.8197,2.9027,3.0259,3.1763,3.2146,3.2366,3.257,3.2846,3.3194,3.3598,3.3908,3.4239,3.4661,3.4221,3.3964,3.3964,3.4965,3.5504,3.5504,3.7796,3.8974,3.8974,4.0404,4.1191,4.1377,4.1714,4.2004,4.2253,4.1576,4.1328,4.1207,3.8974,3.7716,3.6781,3.2684,3.0797,3.0161,2.8335,2.7689,2.7605,2.6927,2.7378,2.8297,2.8359,2.8782,2.9348,2.9887,3.0446,3.0603,2.9227,2.9183,2.9647,3.0155,2.9782,2.9339,2.969,3.0717,3.0938,2.8475,3.09,3.2959,3.0919,3.242,3.3516,3.1906,3.0163,2.8891,2.8583,3.0457,3.189,3.1846,3.2344,3.2861,3.3346,3.249,3.2312,3.3379,3.2139,3.161,3.2325,3.2221,3.2164,3.2185,3.1759,3.0688,2.8927,2.7195,2.6078,0.0,0.0,0.0,0.0,0.0,0.0,0.0,0.0,0.0,0.0,0.0,0.0,0.0,0.0,0.0,0.0,0.0,0.0,0.0,0.0,0.0,0.0,2.9229,3.132,3.1357,3.1414,3.1873,3.2973,3.2955,3.2974,3.3321,3.3578,3.3873,3.4276,3.4514,3.4986,3.5734,3.517,3.5036,3.554,3.6472,3.7029,3.7161,3.9557,4.0839,4.1056,4.2541,4.3251,4.327,4.3817,4.4008,4.3905,4.3946,4.3905,4.3707,4.2581,4.1836,4.0833,0.0,0.0,0.0,0.0,2.9082,2.9308,2.8905,2.9331,3.0082,3.0371,3.0812,3.1346,3.2019,3.2127,3.1872,3.1144,3.0637,3.0459,3.1126,3.1649,3.1825,3.1124,3.1721,3.2149,3.0902,3.1596,3.2617,3.308,3.4479,0.0,3.608,3.3568,3.1213,3.0247,3.1697,3.284,3.2663,3.3275,3.3802,3.3952,3.3172,3.3018,3.3936,3.2858,0.0,0.0,0.0,3.2734,3.2411,3.2246,0.0,0.0,0.0,2.7071,2.7,2.5992,0.0,0.0,2.3661,2.2743,0.0,0.0,0.0,0.0,0.0,0.0,0.0,0.0,0.0,0.0,0.0,0.0,0.0,0.0,0.0,0.0,3.102,3.267,3.3659,3.3533,3.3476,3.3836,3.3546,3.362,3.4333,3.4567,3.4786,3.5047,3.5337,3.5955,3.7039,3.6718,0.0,0.0,0.0,3.9143,3.9504,4.1357,4.2541,4.3005,4.4153,4.4691,4.4712,4.5478,4.5416,4.4753,4.5831,4.5892,4.5272,4.5836,4.5963,4.5088,3.7798,3.3876,3.2186,3.1188,3.1046,3.138,3.1562,0.0,0.0,3.2461,3.2866,3.3331,3.4483,3.3832,3.282,3.3323,3.2224,3.1032,3.1755,3.3041,3.3817,3.2375,3.2338,3.2999,3.4365,3.1897,3.0713,3.5203,3.6072,3.6838,3.9233,3.6834,3.3971,3.2157,3.2064,3.2155,3.1994,3.288,3.3472,3.3375,3.3811,0.0,3.4247,3.3567,3.3686,3.4967,3.4258,3.3441,3.2613,3.2345,3.1509,3.0018,2.8484,2.8244,2.9348,2.8172,2.811,2.9015,2.5825,2.4909,0.0,0.0,0.0,0.0,0.0,0.0,0.0,0.0,0.0,0.0,0.0,0.0,0.0,0.0,0.0,3.1302,3.3113,3.427,3.3875,3.3999,3.4198,3.426,3.4212,3.4234,3.4378,3.5624,3.6159,3.5538,3.733,3.8431,3.8367,3.828,3.8315,3.8546,3.9967,4.092,4.1369,4.4064,4.5672,4.6145,4.6762,0.0,4.7051,4.6823,4.6865,4.701,4.6534,4.6431,4.6515,4.5221,4.3889,4.2471,4.0469,3.8195,3.5781,3.3638,3.3157,3.3471,3.2604,3.2903,3.3654,3.3575,3.3956,3.452,3.4974,3.5416,0.0,3.5323,3.5114,3.5152,3.5615,3.6144,3.6537,3.6452,3.6808,3.7405,3.8454,3.7616,3.7132,3.8694,3.8986,3.891,3.8705,3.7755,3.6972,3.6772,3.6605,3.6427,3.6244,3.6098,3.6236,3.6844,3.5685,3.5326,3.6389,3.4937,3.4528,3.5853,3.6179,3.6048,3.5502,3.5482,3.4889,3.3627,3.2236,3.1347,3.0947,2.9917,2.9526,2.9691,2.8323,2.7923,0.0,0.0,0.0,0.0,0.0,0.0,0.0,0.0,0.0,0.0,0.0,2.8711,2.9724,0.0,3.1724,3.2737,3.391,3.4829,3.5244,3.5472,3.5237,3.4216,3.483,3.5339,3.5358,3.6845,3.7702,3.7465,3.8591,3.9579,4.022,4.0059,4.0219,4.0838,4.2128,4.3022,4.3446,4.5568,4.6906,4.7361,4.8045,4.8397,4.8397,4.8603,4.8831,4.9038,4.8562,4.8478,4.8621,4.7726,4.6869,4.5968,4.4779,4.1731,3.7756,3.5758,3.5275,3.5616,3.5436,3.5741,3.6207,3.6244,3.6491,3.6774,3.6899,3.6908,3.6795,3.6491,3.6152,3.6066,3.6775,3.6923,3.7156,3.8155,3.8229,3.8371,3.9546,3.9509,3.9363,3.9719,3.9808,3.9634,3.9171,3.8917,3.8513,3.785,3.7647,3.7492,3.7317,3.7092,3.7107,3.7508,3.6711,3.6442,3.7198,3.645,3.6236,3.6915,3.7209,3.7194,3.6877,3.6869,3.6629,3.5998,3.4886,3.4128,3.3806,3.2322,3.1601,3.1588,3.0591,2.99,0.0,0.0,0.0,0.0,0.0,0.0,0.0,2.8274,2.913,2.9702,2.999,3.056,3.1845,3.2162,3.275,3.4359,3.4848,3.5482,3.686,3.7051,3.6454,3.4822,3.5834,3.6645,3.6645,3.8178,3.9219,3.928,3.9892,4.074,4.1874,4.1835,4.2245,4.3218,4.4159,4.4886,4.5364,4.664,4.7483,4.7957,4.8719,4.9069,4.909,4.9809,5.0139,5.0139,5.0227,5.0315,5.0403,5.0403,5.0403,5.0206,4.8328,4.473,4.0347,3.8322,3.7519,3.7489,3.81,3.829,3.8338,3.8608,3.8688,3.8688,3.8688,3.81,3.7425,3.7489,3.6924,3.6495,3.7401,3.7432,3.7563,3.8918,3.8656,3.841,3.9554,3.9804,3.9792,3.9792,3.9792,3.9792,3.9792,3.9792,3.9345,3.8079,3.7867,3.7834,3.7708,3.7715,3.7715,3.7715,3.7595,3.7559,3.7567,3.7797,3.7951,3.7951,3.8045,3.8047,3.7867,3.7781,3.775,3.775,3.6752,3.6278,3.638,3.4635,3.3667,3.343,3.2576,3.1514,2.4902,2.388,2.3999,2.5174,2.6894,2.8366,0.0,3.1047,3.3056,3.2794,3.3579,3.48,3.6373,3.5833,3.5666,3.735,3.7372,3.7335,3.789,3.7964,3.7869,3.7647,3.7776,3.7894,3.7912,3.9721,4.0472,3.9378,4.2053,4.3338,4.2385,4.3359,4.4015,4.414,4.5025,4.589,4.6761,4.7688,4.8394,4.886,4.8961,4.9001,4.9001,4.9102,4.9163,4.9185,4.9606,5.0027,5.0403,5.0403,5.0403,5.0206,4.8328,4.7209,4.6191,4.2489,4.0004,3.8529,3.8632,3.864,3.864,3.8672,3.8688,3.8688,3.8688,3.8608,3.8576,3.887,3.8886,3.891,3.9379,3.9458,3.9499,3.9674,3.9633,3.9617,3.9778,3.9793,3.9792,3.9792,3.9792,3.9792,3.9792,3.9792,3.9745,3.9561,3.9545,3.9536,3.9519,3.9495,3.9495,3.9495,3.9082,3.8603,3.8157,3.8574,3.8859,3.8859,3.9312,3.9546,3.9545,3.9179,3.9005,3.9005,3.7735,3.7074,3.7091,3.5984,3.4929,3.4013,3.3892,3.3116,2.7762,2.83,2.9274,2.9632,3.1507,3.3211,3.2906,3.4246,3.5556,3.5617,3.568,3.6202,3.784,3.6757,3.6291,3.8451,3.8072,3.807,3.9672,3.99,4.0079,4.0556,4.018,3.951,3.8538,4.0802,4.1876,4.0821,4.2507,4.3679,4.3885,4.464,4.5307,4.5852,4.6725,4.7355,4.7758,4.8382,4.8806,4.9007,4.9291,4.9411,4.9411,4.965,4.9771,4.9771,4.9974,5.0177,5.0337,5.0337,5.0337,5.0157,4.8174,4.6711,4.5381,4.2889,4.1477,4.0607,3.966,3.9347,3.9347,3.9347,3.9347,3.9347,3.9347,3.9347,3.9379,3.9522,3.9546,3.9602,3.9745,3.9792,3.9792,3.9792,3.9792,3.9792,3.9792,3.9792,3.9792,3.9792,3.9792,3.9792,3.9792,3.9792,3.9792,3.9792,3.9792,3.9792,3.9792,3.9792,3.9792,3.9792,3.9597,3.9362,3.9158,3.9353,3.946,3.946,3.9695,3.9792,3.9792,3.9649,3.9546,3.9546,3.9,3.8704,3.8704,3.7663,3.6919,3.6456,3.5208,3.4303,3.0109,3.1389,3.2626,3.2973,3.4796,3.6425,3.6323,3.6922,3.7605,3.8018,3.7633,3.7652,3.8956,3.7877,3.7498,3.965,3.9271,3.9423,4.1591,4.1881,4.2028,4.2361,4.1894,4.0861,3.9185,4.1269,4.2684,4.2526,4.3318,4.4269,4.5309,4.5769,4.6309,4.6949,4.7712,4.8167,4.8264,4.8725,4.8987,4.8987,4.9329,4.9489,4.9489,4.9785,4.9994,5.0108,5.0108,5.0177,5.0291,5.0291,5.0291,5.0154,4.8693,4.6892,4.4955,4.3373,4.2063,4.0939,3.9754,3.9353,3.9353,3.9353,3.9353,3.9353,3.9353,3.9353,3.9353,3.9353,3.9475,3.9582,3.9582,3.9695,3.9792,3.9792,3.9792,3.9792,3.9792,3.9792,3.9792,3.9792,3.9792,3.9792,3.9792,3.9792,3.9792,3.9792,3.9792,3.9792,3.9792,3.9792,3.9792,3.9792,3.9792,3.9792,3.9792,3.9792,3.9792,3.9792,3.9792,3.9792,3.9792,3.9792,3.9792,3.9792,3.9792,3.9792,3.9792,3.902,3.8491,3.8173,3.6607,3.5582,3.1161,3.1135,3.1106,3.3239,3.472,3.6064,3.7663,3.8641,3.9333,3.9748,3.9852,3.999,4.0373,4.0079,4.0194,4.1501,4.1697,4.2124,4.3429,4.3631,4.3318,4.2499,4.2382,4.1718,4.0021,4.1055,4.254,4.42,4.5129,4.5824,4.6235,4.6708,4.6927,4.6894,4.7369,4.7799,4.8209,4.8662,4.892,4.892,4.892,4.892,4.892,4.894,4.917,4.9627,4.9627,4.9879,5.0291,5.0291,5.0291,5.0291,5.0223,4.897,4.6985,4.4973,4.1727,3.831,3.8277,3.8252,3.8252,3.8252,3.8252,3.8252,3.8252,3.8252,3.8252,3.8252,3.8604,3.902,3.902,3.9411,3.9792,3.9792,3.9792,3.9792,3.9792,3.9792,3.9792,3.9792,3.9792,3.9792,3.9792,3.9792,3.9792,3.9792,3.9792,3.9792,3.9792,3.9792,3.9792,3.9792,3.9792,3.9792,3.9792,3.9792,3.9792,3.9792,3.9792,3.9792,3.9792,3.9792,3.9792,3.9792,3.9792,3.9792,3.9792,3.9768,3.9216,3.8197,3.8148,3.6977,3.1734,3.2969,3.4662,3.572,3.7205,3.8555,3.9147,3.9667,4.0073,4.0253,3.9181,3.8611,3.9868,3.884,3.8576,4.1016,4.0919,4.1403,4.3826,4.295,4.2676,4.4396,4.328,4.2851,4.4043,4.3496,4.3183,4.3517,4.5129,4.6403,4.7132,4.7304,4.766,4.8206,4.8382,4.8519,4.8656,4.8812,4.8913,4.8913,4.8913,4.8913,4.8913,4.8913,4.9006,4.9144,4.9144,4.9236,4.9374,4.9374,4.9529,4.9622,4.8235,4.6622,4.481,4.2747,4.0214,3.7849,3.8109,3.8203,3.8203,3.8203,3.8203,3.8203,3.8203,3.8203,3.8203,3.8203,3.8326,3.8473,3.8473,3.8595,3.8791,3.9034,3.9058,3.9007,3.8833,3.92,3.9534,3.9538,3.9933,4.0255,4.0255,4.0255,4.032,4.0435,4.0078,3.9792,3.9792,3.9792,3.9792,3.9792,3.9792,3.9792,3.9792,3.9792,3.9792,3.9792,3.9792,3.9792,3.9792,3.9792,3.9792,3.9792,3.9792,3.9792,3.9792,3.9792,3.9622,3.924,3.854,3.7814,3.3982,3.5514,3.7255,3.7936,3.9197,4.0358,4.0539,4.0987,4.1379,4.1404,4.0453,3.9642,3.9846,3.914,3.9067,4.0685,4.0859,4.1699,4.4237,4.3691,4.3634,4.5254,4.4336,4.4121,4.5488,4.5019,4.4453,4.4064,4.5314,4.6445,4.7305,4.7344,4.7835,4.8874,4.8913,4.8913,4.8913,4.8913,4.8913,4.8913,4.9046,4.9125,4.9125,4.9281,4.9105,4.8675,4.9144,4.9086,4.8695,4.9164,4.9535,4.9624,4.8292,4.6638,4.4801,4.2673,4.0572,3.8676,3.8144,3.7984,3.7984,3.7984,3.7984,3.7984,3.7984,3.7984,3.7984,3.7984,3.8108,3.8257,3.8257,3.8405,3.8579,3.8783,3.8848,3.8795,3.8624,3.8969,3.928,3.9289,3.9727,4.0119,4.0119,4.0234,4.0375,4.0485,4.0032,3.9782,4.0093,4.0093,4.0093,4.0158,4.0158,4.0158,4.0158,4.0158,4.0158,4.0158,4.0158,4.0094,3.9983,3.9983,3.9919,3.9792,3.9792,3.9792,3.9792,3.9792,3.9792,3.9792,3.9094,3.8565,3.7493,3.8377,3.8739,3.9743,4.0625,4.1347,4.1735,4.2486,4.3042,4.2962,4.318,4.2645,4.0154,4.0644,4.123,4.0547,4.1445,4.287,4.4686,4.5644,4.5879,4.5154,4.5449,4.5451,4.4707,4.5723,4.625,4.5803,4.5822,4.6213,4.697,4.7009,4.7598,4.8855,4.8913,4.8913,4.8913,4.8933,4.8933,4.8952,4.9336,4.9547,4.9547,5.0,4.9515,4.8379,4.9652,4.9496,4.8398,4.9691,5.0219,5.0238,5.0238,4.889,4.6761,4.4707,4.2567,4.0394,3.8342,3.7632,3.7603,3.7603,3.7603,3.7603,3.7603,3.7603,3.7603,3.7603,3.7958,3.8352,3.8352,3.8691,3.9014,3.9014,3.9014,3.9029,3.9044,3.9069,3.9094,3.9059,3.9266,3.9407,3.9357,3.9706,4.0014,4.0037,3.9764,3.9833,4.0685,4.0653,4.0603,4.0785,4.081,4.081,4.081,4.081,4.081,4.081,4.081,4.0667,4.034,4.0324,4.0165,3.9832,3.9824,3.9824,3.98,3.9792,3.9792,3.9848,3.9848,3.9296,3.6713,3.8252,4.0192,4.1094,4.1484,4.1738,4.215,4.2405,4.2229,4.0974,3.9994,3.8899,3.7285,3.6738,3.7168,3.9199,3.9786,4.0957,4.3632,4.3965,4.4435,4.5801,4.6074,4.6562,4.764,4.803,4.7796,4.6677,4.7522,4.8167,4.8382,4.8382,4.8538,4.8894,4.8913,4.8913,4.8913,4.9203,4.9355,4.9355,4.9805,5.0019,5.0019,5.016,5.0023,4.9711,5.0063,5.0004,4.973,5.0063,5.0395,5.0644,5.0644,4.8559,4.5476,4.4918,4.2321,3.9013,3.8461,3.7973,3.7603,3.7603,3.7603,3.7603,3.7603,3.7603,3.7603,3.7603,3.7704,3.7806,3.7806,3.7882,3.7968,3.7968,3.7968,3.8042,3.8294,3.8685,3.8883,3.8688,3.9384,3.9733,3.8879,3.9523,4.0292,4.067,4.101,4.1083,4.0814,4.0926,4.0967,4.081,4.081,4.081,4.081,4.081,4.081,4.081,4.081,4.0753,4.0683,4.0658,4.0452,3.9974,4.0095,3.9977,3.9583,3.9724,3.9919,4.019,4.019,4.0169,3.8352,3.9785,4.1445,4.1933,4.2226,4.2226,4.1679,4.1562,4.1094,3.9356,3.8283,3.7248,3.5959,3.5488,3.6116,3.8769,3.9531,4.0762,4.3613,4.4121,4.4767,4.6133,4.6465,4.7168,4.8757,4.8913,4.8578,4.7832,4.793,4.8008,4.8008,4.8008,4.8304,4.8894,4.8913,4.8968,4.9164,4.959,4.9805,4.9824,5.0254,5.0449,5.0449,5.0644,5.043,4.9922,5.0488,5.041,4.9941,5.0508,5.0859,5.105,5.105,4.9715,4.7692,4.6754,4.4859,4.2494,4.0605,3.9733,3.9276,3.8295,3.8002,3.8002,3.8002,3.8002,3.8002,3.8002,3.8002,3.8002,3.8002,3.8002,3.8002,3.8002,3.8002,3.8046,3.8236,3.8512,3.8671,3.8545,3.9019,3.9267,3.8593,3.9015,3.9567,3.9868,4.0429,4.0765,4.0549,4.067,4.0746,4.0746,4.0629,4.0638,4.0866,4.0892,4.0892,4.0892,4.0892,4.0829,4.0687,4.0671,4.0583,4.035,4.0461,4.035,4.0077,4.0185,4.0333,4.0515,4.0515,4.0635,4.0916,4.1836,4.2519,4.2636,4.293,4.2774,4.1191,4.0664,4.0001,3.8205,3.7346,3.6641,3.5586,3.5742,3.6701,3.8848,3.9981,4.1328,4.3496,4.4904,4.5783,4.6016,4.654,4.7441,4.8776,4.8737,4.8718,4.8894,4.7812,4.7165,4.7165,4.7165,4.7734,4.8929,4.8968,4.9183,4.9586,5.0039,5.0297,5.0297,5.0683,5.0898,5.0898,5.1245,5.0796,4.982,5.0933,5.0777,4.984,5.0952,5.1401,5.1401,5.1401,5.1231,5.0725,4.8577,4.7593,4.6779,4.2749,4.136,4.1042,3.9111,3.8517,3.8517,3.8517,3.8517,3.8517,3.8517,3.8517,3.8517,3.8517,3.8517,3.8517,3.8517,3.8517,3.8517,3.8517,3.8517,3.8517,3.8517,3.8517,3.8517,3.8517,3.8517,3.85,3.8489,3.903,3.9623,4.0073,4.0177,4.0321,4.06,4.0321,4.0342,4.0842,4.0893,4.0893,4.0893,4.0893,4.0759,4.048,4.0464,4.0512,4.0602,4.063,4.0598,4.0523,4.0551,4.0601,4.0648,4.0648,4.068,4.1327,4.2071,4.3144,4.3867,4.3828,4.3437,4.2794,4.1543,3.9903,3.7832,3.6211,3.5195,3.5371,3.5742,3.6701,3.8848,4.0273,4.0996,4.0703,4.3575,4.5471,4.4805,4.6013,4.7441,4.8776,4.7891,4.7715,4.8815,4.8675,4.8538,4.8538,4.8538,4.8812,4.9371,4.9414,4.9629,5.0058,5.0488,5.0703,5.0703,5.1089,5.1304,5.1304,5.1382,5.1284,5.1089,5.1304,5.1284,5.1089,5.1323,5.1401,5.1401,5.1401,5.0334,4.8503,4.6348,4.4422,4.2545,3.995,3.9059,3.9022,3.8607,3.8517,3.8517,3.8517,3.8517,3.8517,3.8517,3.8517,3.8517,3.8517,3.8517,3.8517,3.8517,3.8517,3.8517,3.8517,3.8517,3.8517,3.8517,3.8517,3.8517,3.8517,3.8517,3.85,3.8489,3.8615,3.8933,3.9623,3.9996,4.0228,4.0295,3.995,3.9883,4.029,4.0342,4.0342,4.0342,4.0342,4.0301,4.024,4.024,4.0055,3.9644,3.9821,3.9658,3.9149,3.9317,3.957,3.9887,3.9887,4.0041,4.0877,4.1953,4.3496,4.3926,4.3867,4.3125,4.0898,3.959,3.797,3.4905,3.3457,3.2851,3.3301,3.373,3.5078,3.8358,3.9823,4.0937,4.207,4.424,4.5627,4.541,4.6287,4.7146,4.7793,4.7263,4.7165,4.7812,4.7851,4.8144,4.8874,4.9105,4.9414,4.9844,5.0078,5.0293,5.0508,5.0918,5.1109,5.1109,5.1304,5.1401,5.1401,5.1401,5.1401,5.1401,5.1401,5.103,5.0464,5.1128,5.1011,5.0484,5.1148,5.0774,4.9752,4.87,4.7692,4.6313,4.3012,4.1872,4.1504,3.9241,3.8517,3.8517,3.8517,3.8517,3.8517,3.8517,3.8517,3.8517,3.8517,3.8517,3.8517,3.8517,3.8517,3.8517,3.8517,3.8517,3.8517,3.8517,3.8517,3.8517,3.8517,3.8517,3.8503,3.8511,3.8514,3.8647,3.8985,3.9193,3.9323,3.9323,3.9137,3.9226,3.9748,3.9774,3.9774,3.9774,3.9774,3.9774,3.9774,3.9774,3.98,3.9825,3.9906,3.983,3.9521,3.9637,3.9765,3.9958,3.9958,4.0035,4.0955,4.2168,4.373,4.3828,4.3769,4.2754,3.9142,3.7812,3.6269,3.266,3.1367,3.1133,3.1899,3.2359,3.3919,3.7948,3.9022,4.0371,4.3301,4.4552,4.5392,4.6094,4.6599,4.7009,4.7302,4.7067,4.7028,4.7302,4.7419,4.793,4.8968,4.9433,4.9863,5.0317,5.0644,5.0859,5.0937,5.1245,5.1401,5.1401,5.1401,5.1401,5.1401,5.1401,5.1401,5.1401,5.1401,5.0679,4.9605,5.0874,5.066,4.9625,5.0913,5.1401,5.1328,5.0871,5.07,5.0168,4.6313,4.5001,4.4439,4.1017,3.9267,3.8517,3.8517,3.8517,3.8517,3.8517,3.8517,3.8517,3.8517,3.8517,3.8517,3.8517,3.8517,3.8517,3.8517,3.8517,3.8517,3.8517,3.8517,3.8517,3.8517,3.8517,3.8517,3.8517,3.8517,3.8517,3.8517,3.8517,3.8517,3.8517,3.8517,3.8685,3.9178,3.9204,3.9204,3.9204,3.9204,3.9204,3.9204,3.9204,3.9411,3.9841,3.9841,3.9841,3.9841,3.9841,3.9841,3.9841,3.9841,3.9841,4.2935,4.3516,4.3808,4.4238,4.4023,4.3008,4.0332,3.8457,3.6523,3.3793,3.1992,3.1499,3.3492,3.3899,3.4938,3.8084,3.7988,3.8457,4.1113,4.2559,4.3946,4.5568,4.6445,4.7383,4.8597,4.7617,4.7399,4.8617,4.9062,4.9313,4.943,4.9883,5.0312,5.0742,5.0781,5.0996,5.1343,5.1382,5.1401,5.1401,5.1401,5.1401,5.1401,5.1401,5.1401,5.1401,5.1401,5.0679,4.9605,5.0874,5.066,4.9625,5.0913,5.1401,5.1158,4.9217,4.8503,4.8163,4.5822,4.5019,4.4926,4.4531,4.1728,3.8517,3.8517,3.8517,3.8517,3.8517,3.8517,3.8517,3.8517,3.8517,3.8517,3.8517,3.8517,3.8517,3.8517,3.8517,3.8517,3.8517,3.8517,3.8517,3.8517,3.8517,3.8517,3.8517,3.8517,3.8517,3.8517,3.8517,3.8517,3.8517,3.8517,3.8517,3.8595,3.8581,3.8581,3.8581,3.8581,3.8581,3.8581,3.8581,3.8607,3.8673,3.8673,3.8673,3.8673,3.8673,3.8673,3.8673,3.8673,3.8673,4.0211,4.1738,4.3437,4.3867,4.3652,4.2441,3.9101,3.7615,3.5993,3.2598,3.1367,3.1167,3.2027,3.2363,3.334,3.5857,3.6638,3.8202,4.1836,4.3673,4.5295,4.6992,4.7946,4.8258,4.7754,4.7204,4.7224,4.805,4.8496,4.9176,5.0211,5.0469,5.0742,5.1148,5.1148,5.1245,5.1401,5.1401,5.1401,5.1401,5.1401,5.1401,5.1401,5.1401,5.1401,5.1401,5.1401,5.023,4.8516,5.0562,5.0191,4.8555,5.0601,5.1401,5.1304,5.0432,5.0119,4.9825,4.7668,4.6922,4.6722,4.5429,4.3815,4.2408,4.2408,4.1504,4.0476,4.0476,4.0476,4.0476,4.0476,4.0476,4.0476,4.0476,3.9474,3.8867,4.0208,3.9448,3.8517,3.8517,3.8517,3.8517,3.8517,3.8517,3.8517,3.8517,3.8517,3.8517,3.8517,3.8517,3.8517,3.8517,3.8517,3.8517,3.8517,3.8517,3.8517,3.8517,3.8517,3.8517,3.8517,3.8517,3.8517,3.8517,3.8517,3.8517,3.8517,3.8517,3.8517,3.8517,3.8517,3.8517,3.8608,4.084,4.336,4.3633,4.3008,4.1465,3.8066,3.6599,3.4958,3.1597,3.0913,3.0913,3.0913,3.1133,3.2055,3.4336,3.572,3.7869,4.1797,4.3829,4.5607,4.7422,4.8418,4.859,4.7751,4.7556,4.7734,4.8323,4.8613,4.9433,5.0894,5.0972,5.1109,5.1401,5.1401,5.1401,5.1401,5.1401,5.1401,5.1401,5.1401,5.1206,5.0855,5.1226,5.1206,5.0874,5.1245,5.0152,4.832,5.0503,5.0113,4.8379,5.0542,5.1401,5.1401,5.1401,5.1401,5.1183,4.9678,4.9144,4.8897,4.737,4.6897,4.6897,4.6897,4.4523,4.1923,4.2587,4.2306,4.1949,4.2571,4.2281,4.1949,4.2612,4.1565,4.0698,4.1591,4.0579,3.9474,3.9474,3.8959,3.8915,4.0193,4.007,3.9926,4.0348,4.0415,4.0182,3.9552,3.9474,3.9215,3.8569,3.8517,3.8517,3.8517,3.8517,3.8517,3.8517,3.8517,3.8517,3.8517,3.8517,3.8517,3.8517,3.8517,3.8517,3.8517,3.8517,3.8517,3.8517,3.8517,3.8517,3.9507,4.1758,4.3691,4.3711,4.2089,3.9961,3.7793,3.5661,3.3512,3.1343,3.0913,3.0913,3.0913,3.0898,3.1738,3.4277,3.5449,3.7072,4.0098,4.2031,4.3927,4.6074,4.709,4.8105,4.9352,4.9125,4.9246,5.0102,5.018,5.0527,5.1362,5.1401,5.1401,5.1401,5.1401,5.1401,5.1401,5.1401,5.1401,5.1401,5.1401,5.0738,4.9566,5.0835,5.0718,4.9605,5.0855,5.0679,4.9586,5.0874,5.064,4.9605,5.0913,5.1401,5.1401,5.1401,5.1401,5.1401,5.1377,5.1353,5.1353,5.1328,5.1328,5.1328,5.1328,4.6879,4.2255,4.4388,4.3435,4.2306,4.4439,4.3384,4.2332,4.4447,4.4968,4.4363,4.2255,4.177,4.177,4.177,4.0005,3.9867,4.4178,4.3724,4.3238,4.4716,4.4943,4.4186,4.2051,4.177,4.0939,3.8737,3.8517,3.8517,3.8517,3.8517,3.8517,3.8517,3.8517,3.8517,3.8517,3.8517,3.8517,3.8517,3.8517,3.8517,3.8517,3.8517,3.8517,3.8517,3.8517,3.8517,3.5773,3.7381,3.8983,3.9258,3.8613,3.742,3.5544,3.4336,3.309,3.1284,3.0913,3.0913,3.0913,3.0913,3.1719,3.4277,3.5432,3.756,4.207,4.3945,4.5666,4.7815,4.8304,4.8636,4.9046,4.8144,4.8281,5.0063,4.9336,4.959,5.1323,5.1401,5.1401,5.1401,5.1401,5.1401,5.1401,5.1401,5.1401,5.1401,5.1401,5.0738,4.9547,5.0816,5.0718,4.9566,5.0855,5.0679,4.9605,5.0874,5.066,4.9625,5.0913,5.1401,5.1401,5.1401,5.1401,5.1401,5.1401,5.1401,5.1401,5.1401,5.1401,5.1401,5.1401,4.8947,4.633,4.6996,4.668,4.633,4.7021,4.668,4.6355,4.7046,4.529,4.4001,4.5795,4.4219,4.2765,4.3782,4.2606,4.1725,4.2649,4.2816,4.2306,4.0785,4.0569,4.0311,3.9629,3.9552,3.9847,4.0657,4.076,4.0131,3.8633,3.8517,3.8517,3.8517,3.8517,3.8517,3.8517,3.8517,3.8517,3.8517,3.8517,3.8517,3.8517,3.8517,3.8517,3.8517,3.8517,3.8517,3.3623,3.5452,3.699,3.7226,3.6502,3.5427,3.4349,3.3258,3.2168,3.1128,3.1538,3.1851,3.105,3.1695,3.2652,3.361,3.584,3.8419,4.1133,4.3652,4.5822,4.7483,4.8131,4.8597,4.9086,4.8356,4.8535,5.0082,4.957,4.982,5.1323,5.1401,5.1401,5.1401,5.1401,5.1401,5.1401,5.1401,5.1401,5.1401,5.1401,5.0738,4.9547,5.0816,5.0718,4.9566,5.0855,5.0952,0.0,5.1069,5.0933,5.0308,5.1089,5.1401,5.1401,5.1401,5.1401,5.1401,5.1401,5.1401,5.1401,5.1401,5.1519,5.1675,5.185,5.073,4.9242,4.8429,4.8341,4.8613,4.923,4.8935,4.8613,4.9255,4.7696,4.6349,4.7534,4.685,4.5995,4.5835,4.5046,4.4644,4.5302,4.5757,4.544,4.3638,4.3368,4.308,4.2265,4.2153,4.2077,4.1821,4.1795,4.1232,3.9847,3.9759,3.9396,3.8555,3.8517,3.8517,3.8517,3.8517,3.8517,3.8517,3.8517,3.8517,3.8517,3.8517,3.8517,3.8517,3.8517,3.8517,0.0,3.5136,3.6797,3.6836,3.5349,3.3864,3.3864,3.232,0.0,3.1108,3.2711,3.3489,3.1499,3.3203,3.4375,3.2707,3.6658,3.9551,3.838,4.1875,4.4844,4.5568,4.6858,4.8105,4.9215,4.943,4.9683,5.016,5.0566,5.0996,5.1382,5.1401,5.1401,5.1401,5.1401,5.1401,5.1401,5.1401,5.1362,5.1284,5.1362,5.0699,4.941,5.0777,5.0718,4.9566,5.0855,5.1401,5.1401,5.1401,5.1401,5.1401,5.1401,5.1401,5.1401,5.1401,5.1421,5.146,5.146,5.1479,5.1499,5.1499,5.1797,5.2207,5.2598,5.2124,5.1065,4.9052,4.8791,4.9468,5.0987,5.0233,4.948,5.1016,5.1401,5.0662,4.798,4.951,5.0596,4.7923,4.7401,4.8263,5.0939,5.1226,5.1066,5.0963,5.0939,5.0217,4.8231,4.7965,4.6505,4.2647,4.2255,4.2255,4.2255,4.1974,4.0991,3.9074,3.897,3.897,3.897,3.897,3.897,3.897,3.897,3.8815,3.8517,3.8659,3.8633,3.8517,3.8517,3.8517,3.0197,0.0,3.1953,3.2305,3.2027,3.1655,0.0,3.1265,3.1362,3.3004,3.3762,3.3958,3.3434,3.543,3.6604,3.4919,3.7871,4.0586,4.125,4.4217,4.6033,4.5252,4.7187,4.8304,4.7575,4.8727,4.9683,5.016,5.0566,5.0996,5.1382,5.1401,5.1401,5.1401,5.1401,5.1401,5.1401,5.1401,5.0913,4.9957,5.0933,5.0211,4.8105,5.0367,5.0718,4.9566,5.0855,5.1401,5.1401,5.1401,5.1401,5.1401,5.1401,5.1401,5.1401,5.1401,5.1616,5.1933,5.1933,5.2148,5.2377,5.2377,5.248,5.2578,5.2676,5.2578,5.2245,5.1421,5.1259,5.1358,5.1397,5.1114,5.0909,5.1299,5.1401,5.1212,5.0521,5.0924,5.1202,5.0535,5.0399,5.0606,5.128,4.9589,4.7763,4.668,4.6498,4.6323,4.5822,4.5747,4.5998,4.663,4.6705,4.6705,4.6705,4.3689,4.2281,4.3401,4.3477,4.3477,4.3477,4.3477,4.3477,4.3477,4.3477,4.1821,3.8517,4.0208,4.0157,3.8517,3.8517,3.8517,2.9177,2.9793,3.0488,3.1738,3.1465,3.1167,3.2144,3.1616,3.1519,3.3665,3.4235,3.4372,3.4372,3.5996,3.7051,3.615,3.8184,4.0762,4.3241,4.4998,4.5857,4.5391,4.6367,4.7129,4.7226,4.8808,5.0,5.043,5.0859,5.1265,5.1719,5.1519,5.1499,5.1719,5.1519,5.1401,5.1401,5.1401,5.0757,4.9527,5.0796,5.0367,4.8535,5.0503,5.103,5.0386,5.0484,5.0874,5.1362,5.0777,5.0874,5.1421,5.166,5.1719,5.1733,5.1928,5.2168,5.2363,5.2363,5.2519,5.2754,5.2949,5.3033,5.3072,5.3242,5.3295,5.3183,5.2558,5.2544,5.2544,5.1894,5.185,5.1889,5.1499,5.1401,5.1401,5.1401,5.1401,5.1401,5.1401,5.1401,5.1406,5.1391,5.0092,4.8829,4.8064,4.794,4.794,4.794,4.794,4.799,4.8163,4.8188,4.8188,4.8188,4.608,4.48,4.4993,4.4068,4.3967,4.4968,4.5001,4.5001,4.4993,4.4993,4.3857,4.1504,4.2689,4.2663,4.1478,4.1478,4.1478,2.8838,2.9667,3.0644,3.2855,3.2148,3.146,3.361,3.2437,3.1616,3.4157,3.4883,3.5156,3.5351,3.6853,3.7811,3.701,3.8555,4.1074,4.4432,4.5135,4.5369,4.5588,4.5605,4.6133,4.7483,4.9183,5.0375,5.0781,5.1167,5.1558,5.1973,5.1616,5.1577,5.1973,5.1597,5.1401,5.1401,5.1401,5.0757,4.9527,5.0796,5.0738,4.9547,5.0816,5.1401,5.1343,5.0269,5.0445,5.1421,5.0328,5.0562,5.1636,5.2031,5.2187,5.2226,5.2578,5.2754,5.2812,5.2891,5.291,5.2969,5.3365,5.3482,5.356,5.3881,5.3998,5.3842,5.31,5.3086,5.3111,5.231,5.2305,5.2299,5.1577,5.1401,5.1401,5.1401,5.1401,5.1401,5.1401,5.1401,5.1401,5.1401,5.1401,5.1401,5.1401,5.1401,5.1401,5.1401,5.1401,5.07,4.8873,4.87,4.87,4.87,4.8404,4.7568,4.6073,4.427,4.4093,4.5897,4.5963,4.5813,4.5496,4.5822,4.5647,4.4993,4.5346,4.532,4.4993,4.4993,4.4993,2.8317,2.9078,3.0288,3.2777,3.2148,3.146,3.361,3.2437,3.2109,3.6428,3.7092,3.7226,3.832,4.1699,4.2872,3.8457,4.0684,4.3359,4.4355,4.5701,4.6228,4.5232,4.7014,4.8109,4.7659,4.9183,5.0375,5.0781,5.1167,5.144,5.1499,5.144,5.144,5.1499,5.144,5.1401,5.1401,5.1401,5.0757,4.9527,5.0796,5.0738,4.9547,5.0816,5.1401,5.1401,5.1206,5.144,5.1997,5.1777,5.2012,5.2519,5.2598,5.2617,5.2617,5.2695,5.2949,5.3345,5.3666,5.3803,5.3822,5.3881,5.39,5.392,5.3978,5.3998,5.3978,5.3842,5.3315,5.2695,5.2207,5.1855,5.1577,5.144,5.1401,5.1401,5.1401,5.1401,5.1401,5.1401,5.1401,5.1401,5.1401,5.1401,5.1401,5.1401,5.1401,5.1401,5.1401,5.1401,5.128,5.0939,5.0915,5.0915,5.0915,4.9242,4.8823,5.0334,5.0095,5.007,5.0407,5.0432,4.9561,4.7742,4.9488,4.8626,4.4993,4.6822,4.6797,4.4993,4.4993,4.4993,2.8427,2.9096,3.0497,3.4254,3.3008,3.2144,3.6853,3.445,3.2875,3.879,3.7424,3.6172,3.9317,4.0976,4.1621,4.084,4.416,4.6579,4.5838,4.6641,4.707,4.6484,4.7246,4.7851,4.791,4.9301,5.0473,5.1069,5.1304,5.1499,5.1777,5.1538,5.1519,5.1777,5.1538,5.1401,5.1401,5.1401,5.0757,4.9527,5.0796,5.0738,4.9547,5.0816,5.1538,5.1738,5.1055,5.1387,5.2344,5.145,5.1606,5.2402,5.2617,5.2715,5.2773,5.3217,5.3555,5.375,5.3939,5.3998,5.3998,5.3998,5.3998,5.3998,5.3998,5.3998,5.3998,5.3998,5.3705,5.3236,5.2598,5.2266,5.1987,5.1519,5.1401,5.1401,5.1401,5.1401,5.1401,5.1401,5.1401,5.1401,5.1401,5.1597,5.1777,5.1777,5.1948,5.2104,5.2104,5.1889,5.1777,5.1777,5.1558,5.1401,5.1401,5.0505,4.985,4.9678,5.0749,5.1401,5.1401,5.1401,5.0939,4.9948,5.0895,5.0432,4.8478,4.9457,4.9433,4.8478,4.8478,4.8478,2.8675,2.9316,3.0757,3.5033,3.3551,3.2812,3.9648,3.6328,3.3734,4.0547,3.8185,3.6252,4.0606,4.0527,4.0722,4.3516,4.6758,4.8532,4.7497,4.7676,4.7894,4.7894,4.7676,4.7809,4.8594,4.9668,5.0644,5.1343,5.1401,5.1558,5.1914,5.1597,5.1558,5.1914,5.1577,5.1401,5.1401,5.1401,5.0913,4.9957,5.105,5.105,5.0132,5.1206,5.1914,5.2192,5.1215,5.1587,5.2754,5.1489,5.1587,5.2578,5.2866,5.3002,5.3105,5.3744,5.3998,5.3998,5.3998,5.3998,5.3998,5.3998,5.3998,5.3998,5.3998,5.3998,5.3998,5.3998,5.3998,5.3822,5.3066,5.2793,5.2519,5.1777,5.1489,5.1402,5.1397,5.1401,5.1401,5.1401,5.1401,5.1401,5.1401,5.1797,5.2114,5.2114,5.2441,5.2715,5.2715,5.2422,5.2187,5.2114,5.1777,5.1519,5.1421,5.1401,5.07,4.9045,5.0505,5.1401,5.1401,5.1401,5.1401,5.1401,5.1401,5.1401,5.1401,5.1401,5.1401,5.1401,5.1401,5.1401,2.8794,2.9531,3.0835,3.3606,3.2851,3.3184,3.9706,3.6795,3.4551,4.1016,4.0781,4.0391,4.3535,4.3691,4.4062,4.6267,4.6892,4.7477,4.8597,4.8796,4.8815,4.8815,4.9101,4.9508,5.0023,5.0469,5.0957,5.1382,5.1401,5.1421,5.146,5.1421,5.1421,5.146,5.1421,5.1401,5.1401,5.1401,5.1362,5.1284,5.1797,5.1992,5.1938,5.2402,5.2612,5.2656,5.2558,5.2857,5.3351,5.3234,5.3437,5.3861,5.39,5.39,5.392,5.3978,5.3998,5.3998,5.3998,5.3998,5.3998,5.3998,5.3998,5.3998,5.3998,5.3998,5.3998,5.3998,5.3998,5.39,5.3463,5.3033,5.2622,5.2311,5.1801,5.1405,5.1406,5.1401,5.1401,5.1401,5.1401,5.1401,5.1401,5.1797,5.2114,5.2114,5.2441,5.2715,5.2715,5.2676,5.2519,5.2153,5.2075,5.1875,5.144,5.1401,5.1328,5.1183,5.1304,5.1401,5.1401,5.1401,5.1401,5.1401,5.1401,5.1401,5.1401,5.1401,5.1401,5.1401,5.1401,5.1401,2.9403,2.9886,3.1211,3.541,3.4375,3.4004,4.0469,3.8652,3.7422,4.3866,4.2363,4.0488,4.2422,4.418,4.5664,4.6736,4.7598,4.8323,4.8835,4.8913,4.8913,4.8913,4.9258,4.9683,5.016,5.0566,5.0976,5.1382,5.1401,5.1401,5.1401,5.1401,5.1401,5.1401,5.1401,5.1538,5.1836,5.1836,5.1973,5.2202,5.2129,5.2226,5.248,5.2637,5.2851,5.313,5.313,5.3359,5.375,5.3502,5.3482,5.3638,5.3638,5.3789,5.3998,5.3998,5.3998,5.3998,5.3998,5.3998,5.3998,5.3998,5.3998,5.3998,5.3998,5.3998,5.3998,5.3998,5.3998,5.39,5.3502,5.3267,5.3033,5.2647,5.2248,5.1856,5.1473,5.1699,5.1851,5.146,5.1401,5.1401,5.1401,5.1797,5.2114,5.2114,5.2701,5.313,5.313,5.313,5.3072,5.2915,5.2427,5.2036,5.1855,5.1558,5.1401,5.1401,5.1401,5.1401,5.1401,5.1401,5.1401,5.1401,5.1401,5.1401,5.1401,5.1401,5.1401,5.1401,5.1401,5.1401,2.9857,3.0338,3.166,3.6018,3.5254,3.5059,4.1367,4.0176,3.9375,4.5291,4.4609,4.3027,4.3339,4.5215,4.6758,4.6892,4.7676,4.8421,4.8855,4.8913,4.8952,4.9066,4.9453,4.9902,5.0356,5.0762,5.1089,5.1382,5.1401,5.1401,5.1401,5.1401,5.1401,5.1401,5.1401,5.1641,5.2095,5.2114,5.2388,5.291,5.2642,5.2661,5.293,5.3203,5.3418,5.3599,5.3736,5.3867,5.3978,5.358,5.341,5.341,5.341,5.3658,5.3998,5.3998,5.3998,5.3998,5.3998,5.3998,5.3998,5.3998,5.3998,5.3998,5.3998,5.3998,5.3998,5.3998,5.3998,5.3939,5.3652,5.3599,5.3527,5.3192,5.298,5.2674,5.2082,5.2285,5.2419,5.1894,5.1714,5.1616,5.1616,5.1894,5.2153,5.2266,5.2915,5.3468,5.358,5.3599,5.3541,5.3404,5.274,5.2285,5.2285,5.2012,5.1753,5.1616,5.1616,5.1558,5.1421,5.1401,5.1401,5.1401,5.1401,5.1401,5.1401,5.1401,5.1401,5.1401,5.1401,5.1401,3.0071,3.0859,3.2133,3.4746,3.5059,3.6289,4.2305,4.1055,3.998,4.4748,4.7715,4.8942,4.7204,4.7285,4.7464,4.697,4.6911,4.738,4.8695,4.8913,4.9046,4.9449,4.9922,5.0351,5.0762,5.1167,5.1401,5.1401,5.1401,5.1401,5.1401,5.1401,5.1401,5.1401,5.1421,5.1616,5.2114,5.2114,5.2544,5.341,5.341,5.341,5.3449,5.4303,5.4433,5.4037,5.4492,5.4433,5.3978,5.358,5.341,5.341,5.341,5.3633,5.3998,5.3998,5.3998,5.3998,5.3998,5.3998,5.3998,5.3998,5.3998,5.3998,5.3998,5.3998,5.3998,5.3998,5.3998,5.3998,5.3998,5.3998,5.3996,5.3998,5.3995,5.3852,5.3304,5.3181,5.3087,5.2784,5.2383,5.2114,5.2114,5.2114,5.2226,5.2637,5.3111,5.3541,5.3939,5.3998,5.3867,5.3443,5.2994,5.2715,5.2715,5.2715,5.2539,5.2134,5.2114,5.1894,5.1421,5.1401,5.1401,5.1401,5.1401,5.1401,5.1401,5.1401,5.1401,5.1401,5.1401,5.1401,3.2205,3.2163,3.2133,3.4746,3.5759,3.697,4.0273,4.1621,4.3105,4.6369,4.7383,4.7243,4.5818,4.7168,4.8167,4.7067,4.7695,4.8441,4.8855,4.9121,4.9375,4.9488,5.0152,5.0664,5.0801,5.1167,5.1401,5.1401,5.1401,5.1401,5.1401,5.1401,5.1401,5.1401,5.1719,5.209,5.2519,5.2857,5.3287,5.3828,5.3828,5.3828,5.3848,5.4076,5.4134,5.4017,5.4134,5.4115,5.3998,5.3861,5.3828,5.3828,5.3828,5.3881,5.3998,5.3998,5.3998,5.3998,5.3998,5.3998,5.3998,5.3998,5.3998,5.3998,5.3998,5.3998,5.3998,5.3998,5.3998,5.3998,5.3998,5.3998,5.4004,5.4008,5.3994,5.3877,5.3452,5.3329,5.3206,5.2773,5.2598,5.2422,5.2153,5.2324,5.2461,5.2285,5.2915,5.3541,5.3939,5.3998,5.3959,5.3822,5.3437,5.3189,5.3189,5.2891,5.2656,5.2539,5.2519,5.2163,5.144,5.1401,5.1401,5.1401,5.1401,5.1401,5.1401,5.1401,5.1401,5.1401,5.1401,5.1401,3.3418,3.3505,3.3848,3.7109,3.783,3.8397,4.1074,4.3008,4.4961,4.7581,4.8164,4.7871,4.6758,4.7972,4.8808,4.7851,4.8363,4.8972,4.9125,4.9355,4.9625,4.9976,5.0488,5.0855,5.1011,5.1265,5.1401,5.1401,5.1401,5.1401,5.1401,5.1401,5.1479,5.1655,5.1953,5.2388,5.2969,5.3091,5.3418,5.3998,5.3848,5.3867,5.4017,5.4173,5.4173,5.3998,5.3998,5.39,5.3769,5.3769,5.3769,5.375,5.3549,5.3705,5.3978,5.3828,5.3861,5.3998,5.3998,5.3998,5.3998,5.3998,5.3998,5.3998,5.3998,5.3998,5.3998,5.3998,5.3998,5.3998,5.3998,5.3998,5.3998,5.3998,5.3998,5.3939,5.3691,5.3633,5.3555,5.3256,5.3086,5.2891,5.2661,5.2656,5.2676,5.2622,5.3209,5.373,5.3978,5.3998,5.3998,5.3998,5.3789,5.3633,5.3633,5.3379,5.3164,5.2988,5.2969,5.2656,5.1948,5.1909,5.1909,5.1909,5.1909,5.1831,5.1699,5.1699,5.1699,5.1699,5.1699,5.1753,3.4055,3.486,3.6365,4.0293,4.0254,4.0234,4.3906,4.4959,4.5877,4.8421,4.9457,4.9691,4.9031,4.9199,4.9336,4.8972,4.8933,4.9086,4.9449,4.9566,4.9918,5.0723,5.084,5.1016,5.1362,5.1401,5.1401,5.1401,5.1401,5.1401,5.1401,5.1401,5.1616,5.2095,5.2153,5.2544,5.3326,5.2974,5.3164,5.3939,5.358,5.3599,5.3959,5.4375,5.4316,5.3881,5.3881,5.3672,5.3351,5.3351,5.3351,5.3287,5.291,5.3262,5.39,5.358,5.3672,5.3998,5.3998,5.3998,5.3998,5.3998,5.4037,5.4056,5.4017,5.4037,5.4056,5.4017,5.3998,5.3998,5.3998,5.3998,5.3998,5.3998,5.3998,5.3998,5.3998,5.3998,5.3998,5.3998,5.3691,5.3443,5.341,5.3091,5.2969,5.3384,5.3769,5.3998,5.3998,5.3998,5.3998,5.3998,5.3998,5.3998,5.3998,5.3998,5.3822,5.3482,5.3443,5.3267,5.2851,5.2754,5.2715,5.2715,5.2715,5.2519,5.2129,5.2129,5.2129,5.2129,5.2129,5.2344,3.5525,3.5779,3.5703,3.6936,3.8516,4.1094,4.623,4.6911,4.7048,4.8961,4.8415,4.7871,4.8757,4.8968,4.8988,4.8913,4.916,4.9391,4.9488,5.0093,5.0605,5.0781,5.1069,5.1304,5.1401,5.1401,5.1401,5.1401,5.1401,5.1401,5.1401,5.1401,5.1616,5.2095,5.2402,5.2656,5.2851,5.3111,5.3345,5.3521,5.3424,5.3468,5.3521,5.3619,5.3424,5.2988,5.2988,5.2949,5.2851,5.2851,5.2851,5.2871,5.315,5.3365,5.356,5.3789,5.392,5.3998,5.3998,5.3998,5.3998,5.3998,5.4258,5.4473,5.4115,5.4277,5.4473,5.4095,5.3998,5.3998,5.3998,5.3998,5.3998,5.3998,5.3998,5.3998,5.3998,5.3998,5.3998,5.3998,5.392,5.3769,5.3443,5.3574,5.3744,5.3842,5.3939,5.3998,5.3998,5.3998,5.3998,5.3998,5.3998,5.3998,5.3998,5.3998,5.3959,5.3887,5.3861,5.3822,5.3724,5.3061,5.2715,5.2715,5.2715,5.2656,5.2578,5.2578,5.2578,5.2578,5.2578,5.2617,3.4665,3.6013,3.7439,3.9493,4.1953,4.4414,4.6523,4.7441,4.8105,4.9023,4.8476,4.8089,4.8776,4.8913,4.8913,4.8913,4.9238,4.9566,4.9805,5.0391,5.0879,5.105,5.1284,5.1401,5.1401,5.1401,5.1401,5.1401,5.1401,5.1401,5.1401,5.1401,5.1694,5.2363,5.2402,5.2715,5.3315,5.3144,5.3262,5.3672,5.3482,5.341,5.3384,5.317,5.293,5.2715,5.2715,5.2715,5.2734,5.293,5.3052,5.3072,5.3287,5.3521,5.3691,5.3711,5.3822,5.3998,5.3998,5.3998,5.3998,5.3998,5.4336,5.459,5.4134,5.4336,5.459,5.4134,5.3998,5.3998,5.3998,5.3998,5.3998,5.3998,5.3998,5.3998,5.3998,5.3998,5.3998,5.3998,5.3998,5.3939,5.373,5.3842,5.3998,5.3998,5.3998,5.3998,5.3998,5.3998,5.3998,5.3998,5.3998,5.3998,5.3998,5.3998,5.3998,5.3998,5.3998,5.3998,5.3998,5.3568,5.3315,5.3315,5.3315,5.3242,5.3052,5.3052,5.3052,5.3052,5.3052,5.3144,3.3105,3.5937,3.9608,4.334,4.5762,4.7031,4.6389,4.7386,4.8542,4.8855,4.8913,4.8913,4.8913,4.8913,4.8933,4.8988,4.9355,4.9762,5.0258,5.0644,5.1011,5.1362,5.1401,5.1401,5.1401,5.1401,5.1401,5.1401,5.1479,5.1519,5.1519,5.1597,5.1987,5.2793,5.2402,5.2754,5.3881,5.3105,5.3105,5.3881,5.356,5.341,5.3365,5.291,5.2715,5.2715,5.2715,5.2715,5.2734,5.313,5.3267,5.3287,5.339,5.3594,5.3861,5.3599,5.3711,5.3998,5.3998,5.3998,5.3998,5.3998,5.4336,5.4635,5.4258,5.4394,5.4635,5.4213,5.4056,5.3998,5.3998,5.3998,5.3998,5.3998,5.3998,5.3998,5.3998,5.3998,5.3998,5.3998,5.3998,5.3998,5.3998,5.3998,5.3998,5.3998,5.3998,5.3998,5.3998,5.3998,5.3998,5.3998,5.3998,5.3998,5.3998,5.3998,5.3998,5.3998,5.3998,5.3998,5.3998,5.3998,5.3998,5.3998,5.3998,5.3848,5.3502,5.3502,5.3502,5.3502,5.3502,5.3672,3.2769,3.5937,3.9863,4.3008,4.3475,4.41,4.7659,4.7522,4.7092,4.86,4.8913,4.8913,4.8913,4.8913,4.9007,4.9352,4.9805,5.0234,5.0664,5.1069,5.1343,5.1401,5.1401,5.1401,5.1401,5.1401,5.1401,5.1401,5.1777,5.2017,5.2017,5.2344,5.2773,5.3287,5.2851,5.2891,5.3463,5.2949,5.2949,5.3482,5.3449,5.341,5.3365,5.291,5.2715,5.2715,5.2715,5.2715,5.269,5.2773,5.2793,5.2832,5.3228,5.3424,5.3521,5.3808,5.3959,5.3998,5.3998,5.3998,5.3998,5.3998,5.4336,5.4694,5.4635,5.4655,5.4694,5.4609,5.4316,5.3998,5.3998,5.3998,5.3998,5.3998,5.3998,5.3998,5.3998,5.3998,5.3998,5.3998,5.3998,5.3998,5.3998,5.3998,5.3998,5.3998,5.3998,5.3998,5.3998,5.3998,5.3998,5.3998,5.3998,5.3998,5.3998,5.3998,5.3998,5.3998,5.3998,5.3998,5.3998,5.3998,5.3998,5.3998,5.3998,5.3978,5.392,5.392,5.392,5.392,5.392,5.3939,3.4277,3.6348,3.8595,4.3574,4.3613,4.3417,4.7288,4.721,4.6797,4.8542,4.8913,4.8913,4.8913,4.9086,4.9297,4.9469,5.0074,5.0586,5.0781,5.1148,5.1401,5.1401,5.1401,5.1401,5.1401,5.166,5.1797,5.1797,5.2187,5.2441,5.2441,5.2598,5.291,5.339,5.293,5.3047,5.373,5.3326,5.3301,5.373,5.373,5.373,5.373,5.351,5.3158,5.2715,5.2715,5.2715,5.2734,5.2969,5.3091,5.315,5.3555,5.373,5.3769,5.3939,5.3998,5.3998,5.3998,5.3998,5.3998,5.3998,5.4336,5.4713,5.4713,5.4713,5.4713,5.4713,5.4375,5.3998,5.3998,5.3998,5.3998,5.3998,5.3998,5.3998,5.3998,5.3998,5.3998,5.3998,5.3998,5.3998,5.3998,5.3998,5.3998,5.3998,5.3998,5.3998,5.3998,5.3998,5.3998,5.3998,5.3998,5.3998,5.3998,5.3998,5.3998,5.3998,5.3998,5.3998,5.3998,5.3998,5.3998,5.3998,5.3998,5.3998,5.3998,5.3998,5.3998,5.3998,5.3998,5.3998,3.4612,3.5772,3.6772,4.2598,4.2734,4.2266,4.5391,4.5792,4.5961,4.7715,4.8316,4.8613,4.8867,4.9219,4.9547,4.9644,5.0312,5.084,5.0957,5.1206,5.1401,5.1401,5.1401,5.1401,5.1401,5.1836,5.2114,5.2114,5.2578,5.2871,5.2871,5.2988,5.3203,5.3541,5.3105,5.3242,5.3998,5.3691,5.3691,5.3998,5.3998,5.3998,5.3998,5.3998,5.3646,5.3022,5.3022,5.3022,5.3066,5.3398,5.356,5.358,5.3881,5.3998,5.3998,5.3998,5.3998,5.3998,5.3998,5.3998,5.3998,5.3998,5.4258,5.4531,5.4674,5.4635,5.4531,5.4719,5.4401,5.3998,5.3998,5.3998,5.3998,5.3998,5.3998,5.3998,5.3998,5.3998,5.3998,5.3998,5.3998,5.3998,5.3998,5.3998,5.3998,5.3998,5.3998,5.3998,5.3998,5.3998,5.3998,5.3998,5.3998,5.3998,5.3998,5.3998,5.3998,5.3998,5.3998,5.3998,5.3998,5.3998,5.3998,5.3998,5.3998,5.3998,5.3998,5.3998,5.3998,5.3998,5.3998,5.3998,3.2107,3.3371,3.4658,3.856,3.916,3.9374,4.1601,4.2661,4.3692,4.548,4.6742,4.7755,4.8729,4.9219,4.9644,5.0102,5.0508,5.0937,5.1323,5.1401,5.1401,5.1401,5.1401,5.1401,5.1401,5.1836,5.2114,5.2114,5.2876,5.3345,5.3345,5.373,5.3939,5.3978,5.358,5.358,5.3998,5.3978,5.3978,5.3998,5.3998,5.3998,5.3998,5.3998,5.3978,5.3939,5.3939,5.3939,5.3939,5.3959,5.3978,5.3978,5.3998,5.3998,5.3998,5.3998,5.3998,5.3998,5.3998,5.3998,5.3998,5.3998,5.4017,5.4115,5.4551,5.4394,5.416,5.4738,5.4471,5.3998,5.3998,5.3998,5.3998,5.3998,5.3998,5.3998,5.3998,5.3998,5.3998,5.3998,5.3998,5.3998,5.3998,5.3998,5.3998,5.3998,5.3998,5.3998,5.3998,5.3998,5.3998,5.3998,5.3998,5.3998,5.3998,5.3998,5.3998,5.3998,5.3998,5.3998,5.3998,5.3998,5.3998,5.3998,5.3998,5.3998,5.3998,5.3998,5.3998,5.3998,5.3998,5.3998,3.0979,3.1566,3.2403,3.7033,3.6768,3.6393,4.0221,4.1641,4.2524,4.3831,4.6101,4.7622,4.691,4.8239,4.9602,5.0132,5.0762,5.1245,5.1382,5.1401,5.1401,5.1401,5.1401,5.1519,5.1816,5.2226,5.2598,5.2915,5.2701,5.2935,5.375,5.3144,5.3164,5.3978,5.3842,5.3842,5.3998,5.3998,5.3998,5.3998,5.3998,5.3998,5.3998,5.3998,5.3998,5.3998,5.3998,5.3998,5.3998,5.3998,5.3998,5.3998,5.3998,5.3998,5.3998,5.3998,5.3998,5.3998,5.3998,5.3998,5.3998,5.3998,5.3998,5.4095,5.4551,5.4375,5.4121,5.4719,5.4471,5.3998,5.3998,5.3998,5.3998,5.3998,5.3998,5.3998,5.3998,5.3998,5.3998,5.3998,5.3998,5.3998,5.3998,5.3998,5.3998,5.3998,5.3998,5.3998,5.3998,5.3998,5.3998,5.3998,5.3998,5.3998,5.3998,5.3998,5.3998,5.3998,5.3998,5.3998,5.3998,5.3998,5.3998,5.3998,5.3998,5.3998,5.3998,5.3998,5.3998,5.3998,5.3998,5.3998,2.9231,2.959,3.032,3.4113,3.4127,3.4095,3.7396,3.9773,4.1539,4.2506,4.5303,4.736,4.6561,4.7939,4.9361,4.9852,5.0759,5.1401,5.1401,5.1401,5.1401,5.1401,5.1401,5.1577,5.2031,5.2461,5.2891,5.3345,5.2994,5.3105,5.3959,5.3203,5.3144,5.3978,5.3998,5.3998,5.3998,5.3998,5.3998,5.3998,5.3998,5.3998,5.3998,5.3998,5.3998,5.3998,5.3998,5.3998,5.3998,5.3998,5.3998,5.3998,5.3998,5.3998,5.3998,5.3998,5.3998,5.3998,5.3998,5.4095,5.4213,5.4213,5.4213,5.4297,5.4661,5.4401,5.4076,5.4491,5.4303,5.3998,5.3998,5.3998,5.3998,5.3998,5.3998,5.3998,5.3998,5.3998,5.3998,5.3998,5.3998,5.3998,5.3998,5.3998,5.3998,5.3998,5.3998,5.3998,5.3998,5.3998,5.3998,5.3998,5.3998,5.3998,5.3998,5.3998,5.3998,5.3998,5.3998,5.3998,5.3998,5.3998,5.3998,5.3998,5.3998,5.3998,5.3998,5.3998,5.3998,5.3998,5.3998,5.3998,0.0,0.0,0.0,2.9674,3.1202,3.2529,3.2968,3.6809,4.0506,4.1422,4.4212,4.6789,4.7733,4.8389,4.8934,4.9272,5.0474,5.1358,5.1358,5.1353,5.1353,5.1377,5.1377,5.1553,5.2051,5.2461,5.2891,5.3365,5.375,5.3959,5.3998,5.3998,5.3998,5.3998,5.3998,5.3998,5.3998,5.3998,5.3998,5.3998,5.3998,5.3998,5.3998,5.3998,5.3998,5.3998,5.3998,5.3998,5.3998,5.3998,5.3998,5.3998,5.3998,5.3998,5.3998,5.3998,5.3998,5.3998,5.3998,5.4316,5.4694,5.4694,5.4713,5.4739,5.4856,5.4491,5.3992,5.4017,5.3998,5.3998,5.3998,5.3998,5.3998,5.3998,5.3998,5.3998,5.3998,5.3998,5.3998,5.3998,5.3998,5.3998,5.3998,5.3998,5.3998,5.3998,5.3998,5.3998,5.3998,5.3998,5.3998,5.3998,5.3998,5.3998,5.3998,5.3998,5.3998,5.3998,5.3998,5.3998,5.3998,5.3998,5.3998,5.3998,5.3998,5.3998,5.3998,5.3998,5.3998,5.3998,5.3998,5.3998,2.6564,0.0,0.0,0.0,0.0,0.0,3.2065,3.466,3.7258,3.8718,4.1904,4.467,4.5469,4.7277,4.8576,4.8355,4.9478,5.0378,5.0378,5.0352,5.047,5.0842,5.089,5.1327,5.2436,5.2637,5.3027,5.3789,5.3086,5.3027,5.3959,5.3998,5.3998,5.3998,5.3998,5.3998,5.3998,5.3998,5.3998,5.3998,5.3998,5.3998,5.3998,5.3998,5.3998,5.3998,5.3998,5.3998,5.3998,5.3998,5.3998,5.3998,5.3998,5.3998,5.3998,5.3998,5.3998,5.3998,5.3998,5.4076,5.4258,5.459,5.4713,5.4739,5.4856,5.4493,5.3982,5.3999,5.3998,5.3998,5.3998,5.3998,5.3998,5.3998,5.3998,5.3998,5.3998,5.3998,5.3998,5.3998,5.3998,5.3998,5.3998,5.3998,5.3998,5.3998,5.3998,5.3998,5.3998,5.3998,5.3998,5.3998,5.3998,5.3998,5.3998,5.3998,5.3998,5.3998,5.3998,5.3998,5.3998,5.3998,5.3998,5.3998,5.3998,5.3998,5.3998,5.3998,5.3998,5.3998,5.3998,5.3998,2.6586,2.7187,2.7958,2.8586,0.0,0.0,3.126,3.4121,3.6977,3.8497,4.2034,4.4766,4.4493,4.5911,4.7001,4.6658,4.7432,4.8448,4.954,4.9684,4.9894,5.0603,5.0695,5.1161,5.2333,5.2441,5.2812,5.3691,5.3072,5.3027,5.3959,5.3998,5.3998,5.3998,5.3998,5.3998,5.3998,5.3998,5.3998,5.3998,5.3998,5.3998,5.3998,5.3998,5.3998,5.3998,5.3998,5.3998,5.3998,5.3998,5.3998,5.3998,5.3998,5.3998,5.3998,5.3998,5.3998,5.3998,5.3998,5.4161,5.4441,5.4818,5.5058,5.5241,5.5528,5.4863,5.4163,5.4888,5.4906,5.4667,5.457,5.4544,5.4544,5.4544,5.4408,5.4297,5.4297,5.4134,5.3998,5.3998,5.3998,5.3998,5.3998,5.3998,5.3998,5.3998,5.3998,5.3998,5.3998,5.3998,5.3998,5.3998,5.3998,5.3998,5.3998,5.3998,5.3998,5.3998,5.3998,5.3998,5.3998,5.3998,5.3998,5.3998,5.3848,5.3652,5.3451,5.3822,5.3998,5.3998,5.3998,5.3998,2.6825,2.7298,2.7958,2.8311,2.8972,0.0,3.0495,3.4018,3.7539,3.8991,4.2509,4.4954,4.3827,4.4069,4.442,4.4379,4.4685,4.5855,4.8556,4.909,4.9487,5.0318,5.0521,5.103,5.2143,5.2212,5.2505,5.3351,5.3345,5.3476,5.3824,5.3914,5.3933,5.3921,5.3972,5.3998,5.3998,5.3998,5.3998,5.3998,5.3998,5.3998,5.3998,5.4056,5.405,5.4005,5.4064,5.4109,5.4109,5.4109,5.4089,5.4076,5.4076,5.4115,5.416,5.4288,5.4313,5.4339,5.4467,5.4784,5.5182,5.5463,5.5704,5.5983,5.6471,5.5513,5.4601,5.6083,5.6083,5.56,5.5358,5.5312,5.5312,5.5312,5.5019,5.4746,5.4713,5.4375,5.4056,5.4017,5.3998,5.3998,5.3998,5.3998,5.3998,5.3998,5.3998,5.3998,5.3998,5.3998,5.3998,5.3998,5.3998,5.3998,5.3998,5.3998,5.3998,5.3998,5.3998,5.3998,5.3998,5.3998,5.3998,5.3998,5.3633,5.3248,5.2793,5.349,5.3881,5.3939,5.3939,5.3959,2.7591,2.7922,2.8311,2.837,2.877,0.0,2.9721,3.0809,3.2441,3.4954,3.644,3.7966,4.0297,4.081,4.1099,4.171,4.1873,4.3042,4.6201,4.7704,4.8513,4.8605,4.9451,5.0886,5.2958,5.2793,5.2793,5.3371,5.3052,5.2827,5.2799,5.3268,5.3475,5.3365,5.3768,5.3998,5.3998,5.3998,5.3998,5.3998,5.3998,5.3998,5.4017,5.4394,5.4357,5.4022,5.4494,5.472,5.472,5.472,5.4649,5.4551,5.4551,5.4765,5.5162,5.6101,5.6417,5.6546,5.7464,5.7258,5.6639,5.7019,5.657,5.5983,5.6471,5.6359,5.6057,5.592,5.5626,5.5384,5.5312,5.5312,5.5312,5.5312,5.5254,5.5098,5.4772,5.4635,5.4453,5.4076,5.3998,5.3998,5.3998,5.3998,5.3998,5.3998,5.3998,5.3998,5.3998,5.3998,5.3998,5.3998,5.3998,5.3998,5.3998,5.3998,5.3998,5.3998,5.3998,5.3998,5.3998,5.3998,5.3998,5.3998,5.392,5.3672,5.3248,5.3047,5.3144,5.3521,5.3521,5.3691,2.8399,2.8403,2.8443,2.866,2.8862,0.0,0.0,3.0696,3.215,3.378,3.5211,3.6512,3.7559,3.776,3.8017,3.8823,3.9116,3.9895,4.1745,4.5007,4.7649,4.8855,4.9937,5.1073,5.2289,5.2207,5.2246,5.272,5.2466,5.2263,5.2199,5.2461,5.2571,5.2501,5.3217,5.3615,5.3615,5.387,5.3998,5.3998,5.4258,5.4355,5.4375,5.4662,5.4688,5.4474,5.4902,5.5169,5.5312,5.5312,5.5495,5.571,5.5208,5.5117,5.5397,5.6256,5.7428,5.8562,5.8325,5.8114,5.7855,5.7658,5.6972,5.6296,5.6541,5.6613,5.6528,5.6213,5.6056,5.5937,5.5937,5.5937,5.5937,5.5937,5.5781,5.554,5.5351,5.4902,5.4422,5.3976,5.3693,5.3609,5.3935,5.3998,5.3998,5.3998,5.3998,5.3998,5.3998,5.3998,5.3998,5.3998,5.3998,5.3998,5.3998,5.3998,5.3998,5.3998,5.3998,5.3998,5.3998,5.3808,5.3496,5.3066,5.3047,5.2832,5.2402,5.2187,5.2612,5.3691,5.3691,5.3808,2.9375,2.899,2.8715,2.9027,2.9063,2.9082,0.0,0.0,0.0,3.2918,3.4532,3.565,3.4826,3.4734,3.4954,3.5449,3.6127,3.6769,3.7227,4.1525,4.5453,4.7738,4.9077,4.9944,5.0282,5.0904,5.1538,5.2173,5.2022,5.1841,5.1741,5.1688,5.1694,5.1789,5.2718,5.3237,5.3339,5.3768,5.4056,5.4134,5.4512,5.4752,5.4824,5.4993,5.509,5.5064,5.541,5.5822,5.6294,5.6294,5.674,5.7281,5.6058,5.5724,5.5966,5.6619,5.8332,6.0165,5.9072,5.8969,5.9193,5.8325,5.7402,5.6609,5.6609,5.6609,5.6609,5.6609,5.6502,5.6421,5.6421,5.6341,5.6261,5.6261,5.5962,5.5664,5.5586,5.4926,5.4245,5.383,5.3415,5.3236,5.3635,5.3691,5.3691,5.3691,5.3691,5.3691,5.3691,5.3691,5.3691,5.3691,5.3691,5.3717,5.3845,5.3845,5.3896,5.3998,5.392,5.3881,5.3881,5.3502,5.2896,5.2134,5.2192,5.1992,5.1538,5.1616,5.2338,5.3627,5.3705,5.3842,3.0681,3.0036,2.9482,2.9519,2.9247,2.9008,2.9063,0.0,2.9595,2.9981,0.0,3.066,3.1247,0.0,0.0,3.1047,3.2479,3.3946,3.4715,3.7333,3.9697,4.1067,4.3141,4.4991,4.6312,4.913,5.1367,5.2539,5.2172,5.1691,5.1214,5.1176,5.1366,5.1796,5.2718,5.3435,5.3896,5.3972,5.4193,5.4609,5.4674,5.4909,5.5254,5.5611,5.5734,5.5636,5.6197,5.7203,5.8449,5.8449,5.8883,5.9358,5.7386,5.715,5.809,5.9169,6.0073,6.0849,6.1686,6.1656,6.1103,5.9995,5.8256,5.6609,5.6609,5.6609,5.6609,5.6609,5.6207,5.5805,5.5805,5.5456,5.5098,5.5098,5.506,5.49,5.4493,5.4299,5.4102,5.3692,5.3564,5.3343,5.2695,5.2588,5.2588,5.2588,5.2588,5.2588,5.2588,5.2588,5.2588,5.2588,5.2588,5.2768,5.3237,5.3288,5.3493,5.3972,5.3652,5.3463,5.3463,5.3008,5.2558,5.2114,5.2441,5.2422,5.2012,5.2383,5.248,5.2305,5.2695,5.3256,3.3725,3.3358,3.268,3.2441,3.2074,3.1726,3.1488,3.0351,2.9335,2.928,0.0,0.0,0.0,0.0,0.0,0.0,3.1086,3.1928,3.2258,3.3621,3.6025,3.9915,4.2155,4.4276,4.6634,4.7452,4.8597,5.0356,4.9704,4.9128,4.8911,4.9698,5.0255,5.0447,5.1945,5.2845,5.3076,5.3969,5.4492,5.4713,5.5176,5.5481,5.5657,5.6113,5.6727,5.7508,5.778,5.8476,5.9438,5.9438,5.991,6.0516,5.9505,5.897,5.8812,5.9286,5.9837,6.049,6.1608,6.1608,6.0938,5.9816,5.7827,5.599,5.6468,5.5981,5.5318,5.5563,5.5429,5.5259,5.5259,5.5071,5.4909,5.4909,5.4909,5.4871,5.4655,5.4321,5.3947,5.3569,5.3201,5.2775,5.2218,5.245,5.2666,5.2446,5.2408,5.2408,5.2408,5.2408,5.2408,5.2408,5.2408,5.2485,5.2717,5.2742,5.2845,5.3051,5.2953,5.2818,5.2637,5.2466,5.2148,5.1694,5.185,5.2012,5.2114,5.2266,5.2383,5.2461,5.3144,5.3808,3.8517,3.8007,3.6971,3.5169,3.4422,3.3854,3.2791,3.1192,2.9779,2.9265,2.9155,0.0,0.0,0.0,0.0,0.0,0.0,3.0495,3.0036,3.0824,3.3133,3.7706,4.045,4.2852,4.5146,4.5737,4.6561,4.7911,4.8026,4.7874,4.7483,4.9009,4.993,4.9952,5.1563,5.2594,5.3017,5.4125,5.4986,5.5487,5.5776,5.6128,5.6563,5.6738,5.7395,5.8437,5.8596,5.9142,5.9947,5.9947,6.0438,6.1209,6.0907,6.0365,5.9811,5.9811,6.0072,6.0542,6.1348,6.1146,6.0438,5.9627,5.7973,5.6377,5.6567,5.6088,5.5425,5.5025,5.5017,5.5044,5.472,5.453,5.4422,5.4422,5.4422,5.4422,5.4422,5.407,5.3679,5.3363,5.2957,5.2532,5.2147,5.2414,5.2593,5.2312,5.2255,5.2255,5.2255,5.2255,5.2255,5.2255,5.2255,5.2333,5.2489,5.2515,5.2511,5.2527,5.2622,5.2548,5.2213,5.225,5.2109,5.1753,5.1753,5.1909,5.2246,5.2246,5.248,5.291,5.3555,5.4141,4.5514,4.4044,4.2166,3.6885,3.5266,3.424,3.1506,3.0825,3.0531,2.9742,2.9574,2.9464,0.0,0.0,0.0,0.0,0.0,0.0,0.0,2.9262,3.0751,3.2109,3.6163,3.906,3.9602,4.397,4.6492,4.5854,4.8342,4.9325,4.796,4.9785,5.0946,5.1132,5.1946,5.3133,5.4597,5.4668,5.5623,5.7501,5.6419,5.6708,5.8211,5.7628,5.7389,5.7488,5.8045,5.8964,5.9988,5.9988,6.0621,6.1509,6.1016,6.1094,6.1509,6.1509,6.1535,6.1535,6.1586,6.0907,6.0015,5.9988,5.9394,5.8431,5.7029,5.7574,5.8119,5.5629,5.5267,5.5429,5.4314,5.359,5.3163,5.3163,5.3163,5.3163,5.3163,5.3136,5.3136,5.3118,5.3091,5.2935,5.255,5.2174,5.1943,5.1925,5.1925,5.1925,5.1925,5.1925,5.1925,5.1925,5.1925,5.2138,5.2748,5.2801,5.2799,5.2865,5.3062,5.2974,5.2506,5.261,5.2676,5.2676,5.2676,5.2676,5.2695,5.2695,5.291,5.3365,5.3429,5.3873,5.1065,5.0663,4.9268,4.5163,4.2823,4.0722,3.75,3.4275,3.1763,3.0956,3.0586,0.0,0.0,0.0,0.0,0.0,0.0,0.0,0.0,2.9482,3.0193,3.0397,3.3117,3.5943,3.8303,3.999,4.1617,4.3367,4.4367,4.4952,4.5045,4.7408,4.8946,4.9341,5.1333,5.2797,5.3561,5.4941,5.6102,5.7043,5.6602,5.7057,5.8257,5.7302,5.7701,5.9128,5.9359,6.0046,6.1063,6.1063,6.0859,6.0587,6.1113,6.1431,6.156,6.1198,6.1068,6.1068,6.1068,6.0574,5.9999,6.0412,5.9075,5.7395,5.7648,5.7535,5.7155,5.628,5.5571,5.5014,5.4628,5.3816,5.3082,5.3082,5.3082,5.3082,5.3082,5.3082,5.3082,5.3082,5.3082,5.3072,5.2917,5.277,5.2513,5.1982,5.1909,5.1909,5.1909,5.1909,5.1909,5.1909,5.1909,5.1988,5.2201,5.2201,5.2144,5.198,5.2361,5.2469,5.2116,5.2493,5.2715,5.2715,5.2715,5.2851,5.317,5.317,5.3359,5.3808,5.3808,5.4121,5.6861,5.6692,5.5477,5.1335,4.9133,4.6967,4.2957,3.9625,3.7027,3.5686,3.4796,3.3931,0.0,0.0,0.0,0.0,0.0,0.0,0.0,2.9513,2.977,2.942,3.2059,3.4448,3.5806,3.751,3.9136,4.055,4.1999,4.3014,4.358,4.6404,4.8196,4.868,5.0956,5.2702,5.3797,5.5338,5.6711,5.7914,5.7429,5.7807,5.8865,5.7913,5.8284,5.97,5.991,6.0407,6.1037,6.1037,6.0625,6.0089,6.0745,6.1167,6.1301,6.1146,6.0964,6.0756,6.0574,6.0261,5.9999,6.0391,5.9286,5.786,5.8204,5.8072,5.7648,5.6822,5.6322,5.5847,5.5041,5.4258,5.3599,5.3191,5.3082,5.3082,5.3082,5.3082,5.3082,5.3082,5.3082,5.3082,5.3082,5.3082,5.2917,5.2403,5.233,5.233,5.233,5.233,5.233,5.233,5.2202,5.211,5.211,5.2238,5.2277,5.2166,5.2555,5.2702,5.2596,5.2934,5.3105,5.2949,5.3105,5.3242,5.341,5.3541,5.375,5.3998,5.3998,5.4154]}]]